<?xml version="1.0" encoding="UTF-8" standalone="no" ?>
<gpx xmlns="http://www.topografix.com/GPX/1/1" xmlns:xsi="http://www.w3.org/2001/XMLSchema-instance" xsi:schemaLocation="http://www.topografix.com/GPX/1/1 http://www.topografix.com/GPX/1/1/gpx.xsd" version="1.1" creator="VisuGPX - https://www.visugpx.com">
  <metadata>
    <name>Aig des Calvaires</name>
    <desc><![CDATA[En ski de randonnée                                 ]]></desc>
  </metadata>
  <trk>
    <name><![CDATA[20180127112335-ZUXd4]]></name>
    <trkseg>
      <trkpt lat="45.90283" lon="6.42635">
        <ele>1101</ele>
        <time>2017-12-01T14:08:10Z</time>
      </trkpt>
      <trkpt lat="45.90282" lon="6.42634">
        <ele>1101</ele>
        <time>2017-12-01T14:08:11Z</time>
      </trkpt>
      <trkpt lat="45.90281" lon="6.42634">
        <ele>1101</ele>
        <time>2017-12-01T14:08:12Z</time>
      </trkpt>
      <trkpt lat="45.9028" lon="6.42634">
        <ele>1101</ele>
        <time>2017-12-01T14:08:13Z</time>
      </trkpt>
      <trkpt lat="45.90278" lon="6.42634">
        <ele>1102</ele>
        <time>2017-12-01T14:08:15Z</time>
      </trkpt>
      <trkpt lat="45.90277" lon="6.42634">
        <ele>1102</ele>
        <time>2017-12-01T14:08:16Z</time>
      </trkpt>
      <trkpt lat="45.90265" lon="6.42637">
        <ele>1103</ele>
        <time>2017-12-01T14:08:27Z</time>
      </trkpt>
      <trkpt lat="45.90261" lon="6.42637">
        <ele>1104</ele>
        <time>2017-12-01T14:08:31Z</time>
      </trkpt>
      <trkpt lat="45.9026" lon="6.42638">
        <ele>1104</ele>
        <time>2017-12-01T14:08:32Z</time>
      </trkpt>
      <trkpt lat="45.90259" lon="6.42639">
        <ele>1104</ele>
        <time>2017-12-01T14:08:33Z</time>
      </trkpt>
      <trkpt lat="45.90259" lon="6.4264">
        <ele>1104</ele>
        <time>2017-12-01T14:08:34Z</time>
      </trkpt>
      <trkpt lat="45.90258" lon="6.42661">
        <ele>1109</ele>
        <time>2017-12-01T14:08:48Z</time>
      </trkpt>
      <trkpt lat="45.90258" lon="6.42667">
        <ele>1114</ele>
        <time>2017-12-01T14:08:52Z</time>
      </trkpt>
      <trkpt lat="45.90258" lon="6.42669">
        <ele>1114</ele>
        <time>2017-12-01T14:08:53Z</time>
      </trkpt>
      <trkpt lat="45.90259" lon="6.42686">
        <ele>1115</ele>
        <time>2017-12-01T14:09:05Z</time>
      </trkpt>
      <trkpt lat="45.90261" lon="6.4269">
        <ele>1115</ele>
        <time>2017-12-01T14:09:08Z</time>
      </trkpt>
      <trkpt lat="45.90266" lon="6.42699">
        <ele>1116</ele>
        <time>2017-12-01T14:09:16Z</time>
      </trkpt>
      <trkpt lat="45.90268" lon="6.42702">
        <ele>1116</ele>
        <time>2017-12-01T14:09:18Z</time>
      </trkpt>
      <trkpt lat="45.90273" lon="6.42712">
        <ele>1117</ele>
        <time>2017-12-01T14:09:26Z</time>
      </trkpt>
      <trkpt lat="45.90276" lon="6.42719">
        <ele>1118</ele>
        <time>2017-12-01T14:09:31Z</time>
      </trkpt>
      <trkpt lat="45.90281" lon="6.42738">
        <ele>1119</ele>
        <time>2017-12-01T14:09:43Z</time>
      </trkpt>
      <trkpt lat="45.90277" lon="6.42785">
        <ele>1130</ele>
        <time>2017-12-01T14:10:12Z</time>
      </trkpt>
      <trkpt lat="45.90274" lon="6.42802">
        <ele>1133</ele>
        <time>2017-12-01T14:10:25Z</time>
      </trkpt>
      <trkpt lat="45.9027" lon="6.4282">
        <ele>1136</ele>
        <time>2017-12-01T14:10:38Z</time>
      </trkpt>
      <trkpt lat="45.90268" lon="6.42839">
        <ele>1143</ele>
        <time>2017-12-01T14:10:51Z</time>
      </trkpt>
      <trkpt lat="45.90265" lon="6.42861">
        <ele>1144</ele>
        <time>2017-12-01T14:11:06Z</time>
      </trkpt>
      <trkpt lat="45.90264" lon="6.42879">
        <ele>1145</ele>
        <time>2017-12-01T14:11:18Z</time>
      </trkpt>
      <trkpt lat="45.90264" lon="6.42884">
        <ele>1145</ele>
        <time>2017-12-01T14:11:21Z</time>
      </trkpt>
      <trkpt lat="45.90264" lon="6.42885">
        <ele>1146</ele>
        <time>2017-12-01T14:11:22Z</time>
      </trkpt>
      <trkpt lat="45.90263" lon="6.42898">
        <ele>1148</ele>
        <time>2017-12-01T14:11:30Z</time>
      </trkpt>
      <trkpt lat="45.90263" lon="6.42899">
        <ele>1148</ele>
        <time>2017-12-01T14:11:31Z</time>
      </trkpt>
      <trkpt lat="45.90262" lon="6.42916">
        <ele>1151</ele>
        <time>2017-12-01T14:11:42Z</time>
      </trkpt>
      <trkpt lat="45.90262" lon="6.42946">
        <ele>1154</ele>
        <time>2017-12-01T14:12:01Z</time>
      </trkpt>
      <trkpt lat="45.90261" lon="6.42973">
        <ele>1156</ele>
        <time>2017-12-01T14:12:19Z</time>
      </trkpt>
      <trkpt lat="45.9026" lon="6.42992">
        <ele>1160</ele>
        <time>2017-12-01T14:12:32Z</time>
      </trkpt>
      <trkpt lat="45.90259" lon="6.42994">
        <ele>1160</ele>
        <time>2017-12-01T14:12:33Z</time>
      </trkpt>
      <trkpt lat="45.90254" lon="6.43025">
        <ele>1162</ele>
        <time>2017-12-01T14:12:55Z</time>
      </trkpt>
      <trkpt lat="45.90254" lon="6.43026">
        <ele>1162</ele>
        <time>2017-12-01T14:12:56Z</time>
      </trkpt>
      <trkpt lat="45.90253" lon="6.43028">
        <ele>1162</ele>
        <time>2017-12-01T14:12:57Z</time>
      </trkpt>
      <trkpt lat="45.90253" lon="6.43029">
        <ele>1162</ele>
        <time>2017-12-01T14:12:58Z</time>
      </trkpt>
      <trkpt lat="45.90249" lon="6.43053">
        <ele>1177</ele>
        <time>2017-12-01T14:13:18Z</time>
      </trkpt>
      <trkpt lat="45.90247" lon="6.43062">
        <ele>1177</ele>
        <time>2017-12-01T14:13:25Z</time>
      </trkpt>
      <trkpt lat="45.90247" lon="6.43064">
        <ele>1177</ele>
        <time>2017-12-01T14:13:27Z</time>
      </trkpt>
      <trkpt lat="45.90247" lon="6.43065">
        <ele>1177</ele>
        <time>2017-12-01T14:13:28Z</time>
      </trkpt>
      <trkpt lat="45.90245" lon="6.43073">
        <ele>1176</ele>
        <time>2017-12-01T14:13:34Z</time>
      </trkpt>
      <trkpt lat="45.90243" lon="6.43081">
        <ele>1176</ele>
        <time>2017-12-01T14:13:41Z</time>
      </trkpt>
      <trkpt lat="45.90242" lon="6.43084">
        <ele>1179</ele>
        <time>2017-12-01T14:13:44Z</time>
      </trkpt>
      <trkpt lat="45.90241" lon="6.43087">
        <ele>1180</ele>
        <time>2017-12-01T14:13:47Z</time>
      </trkpt>
      <trkpt lat="45.90239" lon="6.43091">
        <ele>1181</ele>
        <time>2017-12-01T14:13:50Z</time>
      </trkpt>
      <trkpt lat="45.90238" lon="6.43096">
        <ele>1183</ele>
        <time>2017-12-01T14:13:55Z</time>
      </trkpt>
      <trkpt lat="45.90236" lon="6.43109">
        <ele>1186</ele>
        <time>2017-12-01T14:14:06Z</time>
      </trkpt>
      <trkpt lat="45.9023" lon="6.43124">
        <ele>1188</ele>
        <time>2017-12-01T14:14:20Z</time>
      </trkpt>
      <trkpt lat="45.9023" lon="6.43126">
        <ele>1189</ele>
        <time>2017-12-01T14:14:22Z</time>
      </trkpt>
      <trkpt lat="45.90228" lon="6.43131">
        <ele>1189</ele>
        <time>2017-12-01T14:14:27Z</time>
      </trkpt>
      <trkpt lat="45.90226" lon="6.43138">
        <ele>1190</ele>
        <time>2017-12-01T14:14:34Z</time>
      </trkpt>
      <trkpt lat="45.90225" lon="6.4314">
        <ele>1190</ele>
        <time>2017-12-01T14:14:36Z</time>
      </trkpt>
      <trkpt lat="45.90224" lon="6.43142">
        <ele>1190</ele>
        <time>2017-12-01T14:14:38Z</time>
      </trkpt>
      <trkpt lat="45.90223" lon="6.43145">
        <ele>1190</ele>
        <time>2017-12-01T14:14:41Z</time>
      </trkpt>
      <trkpt lat="45.90222" lon="6.43146">
        <ele>1191</ele>
        <time>2017-12-01T14:14:42Z</time>
      </trkpt>
      <trkpt lat="45.90221" lon="6.43148">
        <ele>1191</ele>
        <time>2017-12-01T14:14:45Z</time>
      </trkpt>
      <trkpt lat="45.90221" lon="6.43149">
        <ele>1191</ele>
        <time>2017-12-01T14:14:46Z</time>
      </trkpt>
      <trkpt lat="45.9022" lon="6.43151">
        <ele>1191</ele>
        <time>2017-12-01T14:14:47Z</time>
      </trkpt>
      <trkpt lat="45.90219" lon="6.43152">
        <ele>1191</ele>
        <time>2017-12-01T14:14:48Z</time>
      </trkpt>
      <trkpt lat="45.90219" lon="6.43153">
        <ele>1191</ele>
        <time>2017-12-01T14:14:49Z</time>
      </trkpt>
      <trkpt lat="45.90216" lon="6.43157">
        <ele>1192</ele>
        <time>2017-12-01T14:14:54Z</time>
      </trkpt>
      <trkpt lat="45.90215" lon="6.43159">
        <ele>1192</ele>
        <time>2017-12-01T14:14:56Z</time>
      </trkpt>
      <trkpt lat="45.90211" lon="6.43164">
        <ele>1193</ele>
        <time>2017-12-01T14:15:05Z</time>
      </trkpt>
      <trkpt lat="45.9021" lon="6.43165">
        <ele>1193</ele>
        <time>2017-12-01T14:15:07Z</time>
      </trkpt>
      <trkpt lat="45.90209" lon="6.43167">
        <ele>1194</ele>
        <time>2017-12-01T14:15:09Z</time>
      </trkpt>
      <trkpt lat="45.90208" lon="6.43167">
        <ele>1201</ele>
        <time>2017-12-01T14:15:10Z</time>
      </trkpt>
      <trkpt lat="45.90208" lon="6.43168">
        <ele>1201</ele>
        <time>2017-12-01T14:15:12Z</time>
      </trkpt>
      <trkpt lat="45.90205" lon="6.43171">
        <ele>1202</ele>
        <time>2017-12-01T14:15:19Z</time>
      </trkpt>
      <trkpt lat="45.902" lon="6.43177">
        <ele>1203</ele>
        <time>2017-12-01T14:15:28Z</time>
      </trkpt>
      <trkpt lat="45.90188" lon="6.43199">
        <ele>1205</ele>
        <time>2017-12-01T14:15:50Z</time>
      </trkpt>
      <trkpt lat="45.9018" lon="6.4321">
        <ele>1207</ele>
        <time>2017-12-01T14:16:04Z</time>
      </trkpt>
      <trkpt lat="45.90178" lon="6.4321">
        <ele>1207</ele>
        <time>2017-12-01T14:16:05Z</time>
      </trkpt>
      <trkpt lat="45.90167" lon="6.43207">
        <ele>1207</ele>
        <time>2017-12-01T14:16:18Z</time>
      </trkpt>
      <trkpt lat="45.90155" lon="6.43204">
        <ele>1221</ele>
        <time>2017-12-01T14:16:33Z</time>
      </trkpt>
      <trkpt lat="45.90142" lon="6.43205">
        <ele>1222</ele>
        <time>2017-12-01T14:16:49Z</time>
      </trkpt>
      <trkpt lat="45.90132" lon="6.43206">
        <ele>1223</ele>
        <time>2017-12-01T14:17:04Z</time>
      </trkpt>
      <trkpt lat="45.90128" lon="6.43208">
        <ele>1223</ele>
        <time>2017-12-01T14:17:09Z</time>
      </trkpt>
      <trkpt lat="45.90127" lon="6.43217">
        <ele>1224</ele>
        <time>2017-12-01T14:17:18Z</time>
      </trkpt>
      <trkpt lat="45.90126" lon="6.43234">
        <ele>1226</ele>
        <time>2017-12-01T14:17:34Z</time>
      </trkpt>
      <trkpt lat="45.90128" lon="6.43251">
        <ele>1235</ele>
        <time>2017-12-01T14:17:49Z</time>
      </trkpt>
      <trkpt lat="45.90128" lon="6.43252">
        <ele>1235</ele>
        <time>2017-12-01T14:17:50Z</time>
      </trkpt>
      <trkpt lat="45.90128" lon="6.43254">
        <ele>1235</ele>
        <time>2017-12-01T14:17:52Z</time>
      </trkpt>
      <trkpt lat="45.90128" lon="6.43256">
        <ele>1235</ele>
        <time>2017-12-01T14:17:54Z</time>
      </trkpt>
      <trkpt lat="45.90129" lon="6.43258">
        <ele>1235</ele>
        <time>2017-12-01T14:17:56Z</time>
      </trkpt>
      <trkpt lat="45.90129" lon="6.43261">
        <ele>1235</ele>
        <time>2017-12-01T14:17:58Z</time>
      </trkpt>
      <trkpt lat="45.90129" lon="6.43263">
        <ele>1235</ele>
        <time>2017-12-01T14:18:00Z</time>
      </trkpt>
      <trkpt lat="45.90124" lon="6.43268">
        <ele>1236</ele>
        <time>2017-12-01T14:18:10Z</time>
      </trkpt>
      <trkpt lat="45.90122" lon="6.43268">
        <ele>1237</ele>
        <time>2017-12-01T14:18:12Z</time>
      </trkpt>
      <trkpt lat="45.90116" lon="6.4327">
        <ele>1238</ele>
        <time>2017-12-01T14:18:21Z</time>
      </trkpt>
      <trkpt lat="45.90114" lon="6.4327">
        <ele>1238</ele>
        <time>2017-12-01T14:18:23Z</time>
      </trkpt>
      <trkpt lat="45.90102" lon="6.43273">
        <ele>1240</ele>
        <time>2017-12-01T14:18:39Z</time>
      </trkpt>
      <trkpt lat="45.90101" lon="6.43274">
        <ele>1240</ele>
        <time>2017-12-01T14:18:40Z</time>
      </trkpt>
      <trkpt lat="45.90089" lon="6.43278">
        <ele>1241</ele>
        <time>2017-12-01T14:18:55Z</time>
      </trkpt>
      <trkpt lat="45.90088" lon="6.43278">
        <ele>1241</ele>
        <time>2017-12-01T14:18:56Z</time>
      </trkpt>
      <trkpt lat="45.90086" lon="6.4328">
        <ele>1241</ele>
        <time>2017-12-01T14:18:59Z</time>
      </trkpt>
      <trkpt lat="45.90084" lon="6.4328">
        <ele>1241</ele>
        <time>2017-12-01T14:19:01Z</time>
      </trkpt>
      <trkpt lat="45.90083" lon="6.4328">
        <ele>1250</ele>
        <time>2017-12-01T14:19:03Z</time>
      </trkpt>
      <trkpt lat="45.90081" lon="6.43281">
        <ele>1250</ele>
        <time>2017-12-01T14:19:05Z</time>
      </trkpt>
      <trkpt lat="45.90077" lon="6.43283">
        <ele>1251</ele>
        <time>2017-12-01T14:19:10Z</time>
      </trkpt>
      <trkpt lat="45.90065" lon="6.43291">
        <ele>1252</ele>
        <time>2017-12-01T14:19:27Z</time>
      </trkpt>
      <trkpt lat="45.90061" lon="6.43293">
        <ele>1252</ele>
        <time>2017-12-01T14:19:32Z</time>
      </trkpt>
      <trkpt lat="45.90059" lon="6.43304">
        <ele>1254</ele>
        <time>2017-12-01T14:19:45Z</time>
      </trkpt>
      <trkpt lat="45.90059" lon="6.43312">
        <ele>1254</ele>
        <time>2017-12-01T14:19:53Z</time>
      </trkpt>
      <trkpt lat="45.90061" lon="6.43315">
        <ele>1254</ele>
        <time>2017-12-01T14:19:57Z</time>
      </trkpt>
      <trkpt lat="45.90062" lon="6.43317">
        <ele>1254</ele>
        <time>2017-12-01T14:19:59Z</time>
      </trkpt>
      <trkpt lat="45.90064" lon="6.43333">
        <ele>1262</ele>
        <time>2017-12-01T14:20:14Z</time>
      </trkpt>
      <trkpt lat="45.90065" lon="6.43343">
        <ele>1263</ele>
        <time>2017-12-01T14:20:23Z</time>
      </trkpt>
      <trkpt lat="45.90063" lon="6.43345">
        <ele>1264</ele>
        <time>2017-12-01T14:20:25Z</time>
      </trkpt>
      <trkpt lat="45.90059" lon="6.43346">
        <ele>1264</ele>
        <time>2017-12-01T14:20:31Z</time>
      </trkpt>
      <trkpt lat="45.90049" lon="6.43348">
        <ele>1266</ele>
        <time>2017-12-01T14:20:46Z</time>
      </trkpt>
      <trkpt lat="45.9004" lon="6.43353">
        <ele>1268</ele>
        <time>2017-12-01T14:20:58Z</time>
      </trkpt>
      <trkpt lat="45.90039" lon="6.43353">
        <ele>1268</ele>
        <time>2017-12-01T14:20:59Z</time>
      </trkpt>
      <trkpt lat="45.90033" lon="6.43359">
        <ele>1269</ele>
        <time>2017-12-01T14:21:08Z</time>
      </trkpt>
      <trkpt lat="45.9003" lon="6.43368">
        <ele>1270</ele>
        <time>2017-12-01T14:21:20Z</time>
      </trkpt>
      <trkpt lat="45.90025" lon="6.43378">
        <ele>1272</ele>
        <time>2017-12-01T14:21:33Z</time>
      </trkpt>
      <trkpt lat="45.90022" lon="6.43383">
        <ele>1273</ele>
        <time>2017-12-01T14:21:38Z</time>
      </trkpt>
      <trkpt lat="45.90021" lon="6.43392">
        <ele>1274</ele>
        <time>2017-12-01T14:21:48Z</time>
      </trkpt>
      <trkpt lat="45.90022" lon="6.43403">
        <ele>1276</ele>
        <time>2017-12-01T14:22:01Z</time>
      </trkpt>
      <trkpt lat="45.90022" lon="6.43417">
        <ele>1286</ele>
        <time>2017-12-01T14:22:16Z</time>
      </trkpt>
      <trkpt lat="45.90022" lon="6.43418">
        <ele>1286</ele>
        <time>2017-12-01T14:22:17Z</time>
      </trkpt>
      <trkpt lat="45.90021" lon="6.4342">
        <ele>1286</ele>
        <time>2017-12-01T14:22:19Z</time>
      </trkpt>
      <trkpt lat="45.90022" lon="6.43435">
        <ele>1286</ele>
        <time>2017-12-01T14:22:35Z</time>
      </trkpt>
      <trkpt lat="45.9002" lon="6.43442">
        <ele>1287</ele>
        <time>2017-12-01T14:22:43Z</time>
      </trkpt>
      <trkpt lat="45.90018" lon="6.43444">
        <ele>1287</ele>
        <time>2017-12-01T14:22:47Z</time>
      </trkpt>
      <trkpt lat="45.90008" lon="6.43456">
        <ele>1289</ele>
        <time>2017-12-01T14:23:05Z</time>
      </trkpt>
      <trkpt lat="45.90001" lon="6.43461">
        <ele>1290</ele>
        <time>2017-12-01T14:23:15Z</time>
      </trkpt>
      <trkpt lat="45.9" lon="6.43462">
        <ele>1300</ele>
        <time>2017-12-01T14:23:17Z</time>
      </trkpt>
      <trkpt lat="45.89998" lon="6.43463">
        <ele>1300</ele>
        <time>2017-12-01T14:23:19Z</time>
      </trkpt>
      <trkpt lat="45.89991" lon="6.43467">
        <ele>1300</ele>
        <time>2017-12-01T14:23:28Z</time>
      </trkpt>
      <trkpt lat="45.8999" lon="6.43467">
        <ele>1300</ele>
        <time>2017-12-01T14:23:30Z</time>
      </trkpt>
      <trkpt lat="45.89984" lon="6.43472">
        <ele>1301</ele>
        <time>2017-12-01T14:25:17Z</time>
      </trkpt>
      <trkpt lat="45.89981" lon="6.43476">
        <ele>1302</ele>
        <time>2017-12-01T14:25:52Z</time>
      </trkpt>
      <trkpt lat="45.8997" lon="6.43483">
        <ele>1303</ele>
        <time>2017-12-01T14:26:05Z</time>
      </trkpt>
      <trkpt lat="45.89968" lon="6.43484">
        <ele>1303</ele>
        <time>2017-12-01T14:26:08Z</time>
      </trkpt>
      <trkpt lat="45.89967" lon="6.43485">
        <ele>1303</ele>
        <time>2017-12-01T14:26:10Z</time>
      </trkpt>
      <trkpt lat="45.89962" lon="6.43488">
        <ele>1304</ele>
        <time>2017-12-01T14:26:17Z</time>
      </trkpt>
      <trkpt lat="45.89962" lon="6.43495">
        <ele>1304</ele>
        <time>2017-12-01T14:26:29Z</time>
      </trkpt>
      <trkpt lat="45.89965" lon="6.43504">
        <ele>1316</ele>
        <time>2017-12-01T14:26:37Z</time>
      </trkpt>
      <trkpt lat="45.89967" lon="6.43514">
        <ele>1316</ele>
        <time>2017-12-01T14:26:47Z</time>
      </trkpt>
      <trkpt lat="45.89969" lon="6.43523">
        <ele>1317</ele>
        <time>2017-12-01T14:26:57Z</time>
      </trkpt>
      <trkpt lat="45.89966" lon="6.43526">
        <ele>1317</ele>
        <time>2017-12-01T14:27:03Z</time>
      </trkpt>
      <trkpt lat="45.89957" lon="6.43528">
        <ele>1318</ele>
        <time>2017-12-01T14:27:17Z</time>
      </trkpt>
      <trkpt lat="45.89955" lon="6.43528">
        <ele>1319</ele>
        <time>2017-12-01T14:27:19Z</time>
      </trkpt>
      <trkpt lat="45.89945" lon="6.43533">
        <ele>1320</ele>
        <time>2017-12-01T14:27:34Z</time>
      </trkpt>
      <trkpt lat="45.89942" lon="6.43536">
        <ele>1321</ele>
        <time>2017-12-01T14:27:40Z</time>
      </trkpt>
      <trkpt lat="45.89936" lon="6.43542">
        <ele>1322</ele>
        <time>2017-12-01T14:27:52Z</time>
      </trkpt>
      <trkpt lat="45.89933" lon="6.43543">
        <ele>1322</ele>
        <time>2017-12-01T14:27:56Z</time>
      </trkpt>
      <trkpt lat="45.89932" lon="6.43545">
        <ele>1323</ele>
        <time>2017-12-01T14:28:06Z</time>
      </trkpt>
      <trkpt lat="45.89935" lon="6.43558">
        <ele>1325</ele>
        <time>2017-12-01T14:28:20Z</time>
      </trkpt>
      <trkpt lat="45.89936" lon="6.43569">
        <ele>1327</ele>
        <time>2017-12-01T14:28:33Z</time>
      </trkpt>
      <trkpt lat="45.89937" lon="6.43584">
        <ele>1338</ele>
        <time>2017-12-01T14:28:50Z</time>
      </trkpt>
      <trkpt lat="45.89938" lon="6.43598">
        <ele>1338</ele>
        <time>2017-12-01T14:29:05Z</time>
      </trkpt>
      <trkpt lat="45.89937" lon="6.43604">
        <ele>1338</ele>
        <time>2017-12-01T14:29:17Z</time>
      </trkpt>
      <trkpt lat="45.89935" lon="6.43604">
        <ele>1338</ele>
        <time>2017-12-01T14:29:19Z</time>
      </trkpt>
      <trkpt lat="45.89934" lon="6.43604">
        <ele>1338</ele>
        <time>2017-12-01T14:29:21Z</time>
      </trkpt>
      <trkpt lat="45.89924" lon="6.43606">
        <ele>1339</ele>
        <time>2017-12-01T14:29:40Z</time>
      </trkpt>
      <trkpt lat="45.89915" lon="6.43608">
        <ele>1350</ele>
        <time>2017-12-01T14:29:54Z</time>
      </trkpt>
      <trkpt lat="45.89909" lon="6.4361">
        <ele>1351</ele>
        <time>2017-12-01T14:30:02Z</time>
      </trkpt>
      <trkpt lat="45.89908" lon="6.43611">
        <ele>1351</ele>
        <time>2017-12-01T14:30:04Z</time>
      </trkpt>
      <trkpt lat="45.89902" lon="6.43618">
        <ele>1354</ele>
        <time>2017-12-01T14:30:16Z</time>
      </trkpt>
      <trkpt lat="45.899" lon="6.43619">
        <ele>1354</ele>
        <time>2017-12-01T14:30:19Z</time>
      </trkpt>
      <trkpt lat="45.89897" lon="6.43629">
        <ele>1356</ele>
        <time>2017-12-01T14:30:33Z</time>
      </trkpt>
      <trkpt lat="45.89895" lon="6.43641">
        <ele>1358</ele>
        <time>2017-12-01T14:30:46Z</time>
      </trkpt>
      <trkpt lat="45.89891" lon="6.43642">
        <ele>1358</ele>
        <time>2017-12-01T14:30:51Z</time>
      </trkpt>
      <trkpt lat="45.8989" lon="6.43643">
        <ele>1358</ele>
        <time>2017-12-01T14:30:52Z</time>
      </trkpt>
      <trkpt lat="45.89886" lon="6.43645">
        <ele>1359</ele>
        <time>2017-12-01T14:30:58Z</time>
      </trkpt>
      <trkpt lat="45.89877" lon="6.43651">
        <ele>1360</ele>
        <time>2017-12-01T14:31:12Z</time>
      </trkpt>
      <trkpt lat="45.89877" lon="6.43662">
        <ele>1361</ele>
        <time>2017-12-01T14:31:26Z</time>
      </trkpt>
      <trkpt lat="45.89878" lon="6.43667">
        <ele>1375</ele>
        <time>2017-12-01T14:31:31Z</time>
      </trkpt>
      <trkpt lat="45.89871" lon="6.43677">
        <ele>1377</ele>
        <time>2017-12-01T14:31:46Z</time>
      </trkpt>
      <trkpt lat="45.89874" lon="6.43689">
        <ele>1377</ele>
        <time>2017-12-01T14:31:59Z</time>
      </trkpt>
      <trkpt lat="45.89868" lon="6.43697">
        <ele>1379</ele>
        <time>2017-12-01T14:32:12Z</time>
      </trkpt>
      <trkpt lat="45.89865" lon="6.43705">
        <ele>1380</ele>
        <time>2017-12-01T14:32:24Z</time>
      </trkpt>
      <trkpt lat="45.89859" lon="6.43713">
        <ele>1382</ele>
        <time>2017-12-01T14:32:37Z</time>
      </trkpt>
      <trkpt lat="45.89858" lon="6.43719">
        <ele>1383</ele>
        <time>2017-12-01T14:32:43Z</time>
      </trkpt>
      <trkpt lat="45.89857" lon="6.43721">
        <ele>1383</ele>
        <time>2017-12-01T14:32:45Z</time>
      </trkpt>
      <trkpt lat="45.89854" lon="6.43725">
        <ele>1385</ele>
        <time>2017-12-01T14:32:51Z</time>
      </trkpt>
      <trkpt lat="45.89849" lon="6.43735">
        <ele>1388</ele>
        <time>2017-12-01T14:33:04Z</time>
      </trkpt>
      <trkpt lat="45.89847" lon="6.43741">
        <ele>1391</ele>
        <time>2017-12-01T14:33:14Z</time>
      </trkpt>
      <trkpt lat="45.89845" lon="6.43745">
        <ele>1392</ele>
        <time>2017-12-01T14:33:18Z</time>
      </trkpt>
      <trkpt lat="45.89843" lon="6.43747">
        <ele>1394</ele>
        <time>2017-12-01T14:33:21Z</time>
      </trkpt>
      <trkpt lat="45.89842" lon="6.43749">
        <ele>1395</ele>
        <time>2017-12-01T14:33:25Z</time>
      </trkpt>
      <trkpt lat="45.89841" lon="6.4375">
        <ele>1399</ele>
        <time>2017-12-01T14:33:26Z</time>
      </trkpt>
      <trkpt lat="45.89834" lon="6.43762">
        <ele>1399</ele>
        <time>2017-12-01T14:33:41Z</time>
      </trkpt>
      <trkpt lat="45.89832" lon="6.43763">
        <ele>1408</ele>
        <time>2017-12-01T14:33:44Z</time>
      </trkpt>
      <trkpt lat="45.89829" lon="6.43767">
        <ele>1409</ele>
        <time>2017-12-01T14:33:50Z</time>
      </trkpt>
      <trkpt lat="45.89824" lon="6.43772">
        <ele>1411</ele>
        <time>2017-12-01T14:33:56Z</time>
      </trkpt>
      <trkpt lat="45.89821" lon="6.43776">
        <ele>1412</ele>
        <time>2017-12-01T14:34:02Z</time>
      </trkpt>
      <trkpt lat="45.89813" lon="6.43783">
        <ele>1414</ele>
        <time>2017-12-01T14:34:16Z</time>
      </trkpt>
      <trkpt lat="45.89806" lon="6.4379">
        <ele>1416</ele>
        <time>2017-12-01T14:34:29Z</time>
      </trkpt>
      <trkpt lat="45.89798" lon="6.438">
        <ele>1418</ele>
        <time>2017-12-01T14:34:44Z</time>
      </trkpt>
      <trkpt lat="45.89792" lon="6.43808">
        <ele>1419</ele>
        <time>2017-12-01T14:34:57Z</time>
      </trkpt>
      <trkpt lat="45.8979" lon="6.43817">
        <ele>1420</ele>
        <time>2017-12-01T14:35:10Z</time>
      </trkpt>
      <trkpt lat="45.89784" lon="6.43828">
        <ele>1422</ele>
        <time>2017-12-01T14:35:24Z</time>
      </trkpt>
      <trkpt lat="45.89777" lon="6.43839">
        <ele>1433</ele>
        <time>2017-12-01T14:35:38Z</time>
      </trkpt>
      <trkpt lat="45.89771" lon="6.43849">
        <ele>1434</ele>
        <time>2017-12-01T14:35:50Z</time>
      </trkpt>
      <trkpt lat="45.89765" lon="6.43858">
        <ele>1435</ele>
        <time>2017-12-01T14:36:03Z</time>
      </trkpt>
      <trkpt lat="45.8976" lon="6.43868">
        <ele>1436</ele>
        <time>2017-12-01T14:36:17Z</time>
      </trkpt>
      <trkpt lat="45.89754" lon="6.43872">
        <ele>1437</ele>
        <time>2017-12-01T14:36:30Z</time>
      </trkpt>
      <trkpt lat="45.89753" lon="6.43872">
        <ele>1437</ele>
        <time>2017-12-01T14:36:31Z</time>
      </trkpt>
      <trkpt lat="45.89748" lon="6.43875">
        <ele>1446</ele>
        <time>2017-12-01T14:36:42Z</time>
      </trkpt>
      <trkpt lat="45.89747" lon="6.43876">
        <ele>1446</ele>
        <time>2017-12-01T14:36:44Z</time>
      </trkpt>
      <trkpt lat="45.89741" lon="6.43884">
        <ele>1448</ele>
        <time>2017-12-01T14:36:58Z</time>
      </trkpt>
      <trkpt lat="45.89735" lon="6.43891">
        <ele>1448</ele>
        <time>2017-12-01T14:37:14Z</time>
      </trkpt>
      <trkpt lat="45.89729" lon="6.43903">
        <ele>1449</ele>
        <time>2017-12-01T14:37:30Z</time>
      </trkpt>
      <trkpt lat="45.89724" lon="6.43914">
        <ele>1450</ele>
        <time>2017-12-01T14:37:44Z</time>
      </trkpt>
      <trkpt lat="45.89718" lon="6.43926">
        <ele>1463</ele>
        <time>2017-12-01T14:37:59Z</time>
      </trkpt>
      <trkpt lat="45.89714" lon="6.43932">
        <ele>1464</ele>
        <time>2017-12-01T14:38:06Z</time>
      </trkpt>
      <trkpt lat="45.89704" lon="6.43939">
        <ele>1466</ele>
        <time>2017-12-01T14:38:21Z</time>
      </trkpt>
      <trkpt lat="45.89697" lon="6.43945">
        <ele>1467</ele>
        <time>2017-12-01T14:38:35Z</time>
      </trkpt>
      <trkpt lat="45.89691" lon="6.43951">
        <ele>1468</ele>
        <time>2017-12-01T14:38:46Z</time>
      </trkpt>
      <trkpt lat="45.89687" lon="6.43959">
        <ele>1469</ele>
        <time>2017-12-01T14:38:59Z</time>
      </trkpt>
      <trkpt lat="45.89681" lon="6.43965">
        <ele>1471</ele>
        <time>2017-12-01T14:39:12Z</time>
      </trkpt>
      <trkpt lat="45.89679" lon="6.43967">
        <ele>1471</ele>
        <time>2017-12-01T14:39:14Z</time>
      </trkpt>
      <trkpt lat="45.89678" lon="6.43976">
        <ele>1473</ele>
        <time>2017-12-01T14:39:26Z</time>
      </trkpt>
      <trkpt lat="45.89679" lon="6.43989">
        <ele>1476</ele>
        <time>2017-12-01T14:39:40Z</time>
      </trkpt>
      <trkpt lat="45.89679" lon="6.43992">
        <ele>1476</ele>
        <time>2017-12-01T14:39:42Z</time>
      </trkpt>
      <trkpt lat="45.8968" lon="6.44">
        <ele>1477</ele>
        <time>2017-12-01T14:39:50Z</time>
      </trkpt>
      <trkpt lat="45.8968" lon="6.44002">
        <ele>1484</ele>
        <time>2017-12-01T14:39:52Z</time>
      </trkpt>
      <trkpt lat="45.8968" lon="6.44005">
        <ele>1484</ele>
        <time>2017-12-01T14:39:54Z</time>
      </trkpt>
      <trkpt lat="45.89683" lon="6.44017">
        <ele>1485</ele>
        <time>2017-12-01T14:40:07Z</time>
      </trkpt>
      <trkpt lat="45.89685" lon="6.44031">
        <ele>1486</ele>
        <time>2017-12-01T14:40:21Z</time>
      </trkpt>
      <trkpt lat="45.89685" lon="6.44032">
        <ele>1486</ele>
        <time>2017-12-01T14:40:22Z</time>
      </trkpt>
      <trkpt lat="45.89685" lon="6.44036">
        <ele>1486</ele>
        <time>2017-12-01T14:40:26Z</time>
      </trkpt>
      <trkpt lat="45.89683" lon="6.4405">
        <ele>1488</ele>
        <time>2017-12-01T14:40:40Z</time>
      </trkpt>
      <trkpt lat="45.89679" lon="6.44058">
        <ele>1489</ele>
        <time>2017-12-01T14:40:49Z</time>
      </trkpt>
      <trkpt lat="45.89671" lon="6.44065">
        <ele>1491</ele>
        <time>2017-12-01T14:40:58Z</time>
      </trkpt>
      <trkpt lat="45.8967" lon="6.44066">
        <ele>1492</ele>
        <time>2017-12-01T14:41:00Z</time>
      </trkpt>
      <trkpt lat="45.89653" lon="6.44087">
        <ele>1501</ele>
        <time>2017-12-01T14:41:22Z</time>
      </trkpt>
      <trkpt lat="45.89647" lon="6.44097">
        <ele>1503</ele>
        <time>2017-12-01T14:41:31Z</time>
      </trkpt>
      <trkpt lat="45.89646" lon="6.441">
        <ele>1503</ele>
        <time>2017-12-01T14:41:34Z</time>
      </trkpt>
      <trkpt lat="45.89645" lon="6.44105">
        <ele>1504</ele>
        <time>2017-12-01T14:41:38Z</time>
      </trkpt>
      <trkpt lat="45.89642" lon="6.44121">
        <ele>1505</ele>
        <time>2017-12-01T14:41:52Z</time>
      </trkpt>
      <trkpt lat="45.89641" lon="6.44125">
        <ele>1505</ele>
        <time>2017-12-01T14:41:55Z</time>
      </trkpt>
      <trkpt lat="45.89639" lon="6.44137">
        <ele>1506</ele>
        <time>2017-12-01T14:42:06Z</time>
      </trkpt>
      <trkpt lat="45.89638" lon="6.4414">
        <ele>1506</ele>
        <time>2017-12-01T14:42:08Z</time>
      </trkpt>
      <trkpt lat="45.89638" lon="6.44141">
        <ele>1507</ele>
        <time>2017-12-01T14:42:09Z</time>
      </trkpt>
      <trkpt lat="45.89635" lon="6.44156">
        <ele>1507</ele>
        <time>2017-12-01T14:42:23Z</time>
      </trkpt>
      <trkpt lat="45.89629" lon="6.44172">
        <ele>1514</ele>
        <time>2017-12-01T14:42:36Z</time>
      </trkpt>
      <trkpt lat="45.89629" lon="6.44173">
        <ele>1514</ele>
        <time>2017-12-01T14:42:37Z</time>
      </trkpt>
      <trkpt lat="45.89627" lon="6.44184">
        <ele>1515</ele>
        <time>2017-12-01T14:42:46Z</time>
      </trkpt>
      <trkpt lat="45.89626" lon="6.44187">
        <ele>1515</ele>
        <time>2017-12-01T14:42:48Z</time>
      </trkpt>
      <trkpt lat="45.89623" lon="6.44214">
        <ele>1516</ele>
        <time>2017-12-01T14:43:07Z</time>
      </trkpt>
      <trkpt lat="45.89619" lon="6.44239">
        <ele>1518</ele>
        <time>2017-12-01T14:43:24Z</time>
      </trkpt>
      <trkpt lat="45.89611" lon="6.44264">
        <ele>1523</ele>
        <time>2017-12-01T14:43:42Z</time>
      </trkpt>
      <trkpt lat="45.89605" lon="6.44283">
        <ele>1524</ele>
        <time>2017-12-01T14:43:56Z</time>
      </trkpt>
      <trkpt lat="45.89601" lon="6.44291">
        <ele>1525</ele>
        <time>2017-12-01T14:44:02Z</time>
      </trkpt>
      <trkpt lat="45.89601" lon="6.44292">
        <ele>1525</ele>
        <time>2017-12-01T14:44:03Z</time>
      </trkpt>
      <trkpt lat="45.896" lon="6.44293">
        <ele>1525</ele>
        <time>2017-12-01T14:44:04Z</time>
      </trkpt>
      <trkpt lat="45.89599" lon="6.44294">
        <ele>1525</ele>
        <time>2017-12-01T14:44:05Z</time>
      </trkpt>
      <trkpt lat="45.89597" lon="6.44297">
        <ele>1526</ele>
        <time>2017-12-01T14:44:07Z</time>
      </trkpt>
      <trkpt lat="45.89596" lon="6.44298">
        <ele>1526</ele>
        <time>2017-12-01T14:44:08Z</time>
      </trkpt>
      <trkpt lat="45.89593" lon="6.44304">
        <ele>1527</ele>
        <time>2017-12-01T14:44:13Z</time>
      </trkpt>
      <trkpt lat="45.89592" lon="6.44305">
        <ele>1527</ele>
        <time>2017-12-01T14:44:14Z</time>
      </trkpt>
      <trkpt lat="45.89591" lon="6.44306">
        <ele>1527</ele>
        <time>2017-12-01T14:44:15Z</time>
      </trkpt>
      <trkpt lat="45.8959" lon="6.44308">
        <ele>1527</ele>
        <time>2017-12-01T14:44:16Z</time>
      </trkpt>
      <trkpt lat="45.89589" lon="6.44309">
        <ele>1528</ele>
        <time>2017-12-01T14:44:17Z</time>
      </trkpt>
      <trkpt lat="45.89586" lon="6.44314">
        <ele>1529</ele>
        <time>2017-12-01T14:44:21Z</time>
      </trkpt>
      <trkpt lat="45.89585" lon="6.44315">
        <ele>1529</ele>
        <time>2017-12-01T14:44:22Z</time>
      </trkpt>
      <trkpt lat="45.89585" lon="6.44316">
        <ele>1529</ele>
        <time>2017-12-01T14:44:23Z</time>
      </trkpt>
      <trkpt lat="45.89584" lon="6.44318">
        <ele>1530</ele>
        <time>2017-12-01T14:44:24Z</time>
      </trkpt>
      <trkpt lat="45.89583" lon="6.44319">
        <ele>1535</ele>
        <time>2017-12-01T14:44:26Z</time>
      </trkpt>
      <trkpt lat="45.89582" lon="6.44321">
        <ele>1535</ele>
        <time>2017-12-01T14:44:27Z</time>
      </trkpt>
      <trkpt lat="45.89581" lon="6.44322">
        <ele>1535</ele>
        <time>2017-12-01T14:44:28Z</time>
      </trkpt>
      <trkpt lat="45.89573" lon="6.44341">
        <ele>1540</ele>
        <time>2017-12-01T14:44:43Z</time>
      </trkpt>
      <trkpt lat="45.89571" lon="6.44343">
        <ele>1541</ele>
        <time>2017-12-01T14:44:45Z</time>
      </trkpt>
      <trkpt lat="45.8957" lon="6.44344">
        <ele>1541</ele>
        <time>2017-12-01T14:44:46Z</time>
      </trkpt>
      <trkpt lat="45.89569" lon="6.44345">
        <ele>1541</ele>
        <time>2017-12-01T14:44:47Z</time>
      </trkpt>
      <trkpt lat="45.89568" lon="6.44348">
        <ele>1542</ele>
        <time>2017-12-01T14:44:50Z</time>
      </trkpt>
      <trkpt lat="45.89567" lon="6.44349">
        <ele>1542</ele>
        <time>2017-12-01T14:44:51Z</time>
      </trkpt>
      <trkpt lat="45.89567" lon="6.4435">
        <ele>1543</ele>
        <time>2017-12-01T14:44:52Z</time>
      </trkpt>
      <trkpt lat="45.89566" lon="6.44351">
        <ele>1543</ele>
        <time>2017-12-01T14:44:53Z</time>
      </trkpt>
      <trkpt lat="45.89565" lon="6.44353">
        <ele>1543</ele>
        <time>2017-12-01T14:44:54Z</time>
      </trkpt>
      <trkpt lat="45.89561" lon="6.44362">
        <ele>1545</ele>
        <time>2017-12-01T14:45:02Z</time>
      </trkpt>
      <trkpt lat="45.8956" lon="6.44363">
        <ele>1545</ele>
        <time>2017-12-01T14:45:03Z</time>
      </trkpt>
      <trkpt lat="45.89559" lon="6.44363">
        <ele>1545</ele>
        <time>2017-12-01T14:45:04Z</time>
      </trkpt>
      <trkpt lat="45.89552" lon="6.44378">
        <ele>1547</ele>
        <time>2017-12-01T14:45:17Z</time>
      </trkpt>
      <trkpt lat="45.89545" lon="6.4439">
        <ele>1548</ele>
        <time>2017-12-01T14:45:28Z</time>
      </trkpt>
      <trkpt lat="45.89545" lon="6.44391">
        <ele>1548</ele>
        <time>2017-12-01T14:45:29Z</time>
      </trkpt>
      <trkpt lat="45.8954" lon="6.44405">
        <ele>1549</ele>
        <time>2017-12-01T14:45:41Z</time>
      </trkpt>
      <trkpt lat="45.89535" lon="6.44422">
        <ele>1558</ele>
        <time>2017-12-01T14:45:56Z</time>
      </trkpt>
      <trkpt lat="45.89529" lon="6.44437">
        <ele>1560</ele>
        <time>2017-12-01T14:46:09Z</time>
      </trkpt>
      <trkpt lat="45.89524" lon="6.44448">
        <ele>1561</ele>
        <time>2017-12-01T14:46:21Z</time>
      </trkpt>
      <trkpt lat="45.89519" lon="6.4446">
        <ele>1562</ele>
        <time>2017-12-01T14:46:35Z</time>
      </trkpt>
      <trkpt lat="45.89515" lon="6.44471">
        <ele>1564</ele>
        <time>2017-12-01T14:46:48Z</time>
      </trkpt>
      <trkpt lat="45.8951" lon="6.44482">
        <ele>1566</ele>
        <time>2017-12-01T14:47:01Z</time>
      </trkpt>
      <trkpt lat="45.89503" lon="6.44495">
        <ele>1570</ele>
        <time>2017-12-01T14:47:16Z</time>
      </trkpt>
      <trkpt lat="45.89496" lon="6.4451">
        <ele>1577</ele>
        <time>2017-12-01T14:47:30Z</time>
      </trkpt>
      <trkpt lat="45.8949" lon="6.44527">
        <ele>1580</ele>
        <time>2017-12-01T14:47:46Z</time>
      </trkpt>
      <trkpt lat="45.89486" lon="6.44539">
        <ele>1582</ele>
        <time>2017-12-01T14:47:59Z</time>
      </trkpt>
      <trkpt lat="45.89483" lon="6.44541">
        <ele>1583</ele>
        <time>2017-12-01T14:48:04Z</time>
      </trkpt>
      <trkpt lat="45.89457" lon="6.44552">
        <ele>1584</ele>
        <time>2017-12-01T14:48:32Z</time>
      </trkpt>
      <trkpt lat="45.89441" lon="6.44571">
        <ele>1587</ele>
        <time>2017-12-01T14:48:55Z</time>
      </trkpt>
      <trkpt lat="45.89441" lon="6.44572">
        <ele>1587</ele>
        <time>2017-12-01T14:48:56Z</time>
      </trkpt>
      <trkpt lat="45.89437" lon="6.4458">
        <ele>1588</ele>
        <time>2017-12-01T14:49:05Z</time>
      </trkpt>
      <trkpt lat="45.89436" lon="6.44582">
        <ele>1588</ele>
        <time>2017-12-01T14:49:07Z</time>
      </trkpt>
      <trkpt lat="45.89423" lon="6.44604">
        <ele>1596</ele>
        <time>2017-12-01T14:49:30Z</time>
      </trkpt>
      <trkpt lat="45.89422" lon="6.44606">
        <ele>1596</ele>
        <time>2017-12-01T14:49:32Z</time>
      </trkpt>
      <trkpt lat="45.89421" lon="6.44607">
        <ele>1596</ele>
        <time>2017-12-01T14:49:33Z</time>
      </trkpt>
      <trkpt lat="45.89413" lon="6.44619">
        <ele>1603</ele>
        <time>2017-12-01T14:49:46Z</time>
      </trkpt>
      <trkpt lat="45.89413" lon="6.4462">
        <ele>1603</ele>
        <time>2017-12-01T14:49:47Z</time>
      </trkpt>
      <trkpt lat="45.89412" lon="6.44621">
        <ele>1604</ele>
        <time>2017-12-01T14:49:48Z</time>
      </trkpt>
      <trkpt lat="45.89402" lon="6.44632">
        <ele>1605</ele>
        <time>2017-12-01T14:50:04Z</time>
      </trkpt>
      <trkpt lat="45.89386" lon="6.4464">
        <ele>1607</ele>
        <time>2017-12-01T14:50:24Z</time>
      </trkpt>
      <trkpt lat="45.89366" lon="6.44645">
        <ele>1610</ele>
        <time>2017-12-01T14:50:49Z</time>
      </trkpt>
      <trkpt lat="45.89352" lon="6.44645">
        <ele>1612</ele>
        <time>2017-12-01T14:51:06Z</time>
      </trkpt>
      <trkpt lat="45.89351" lon="6.44645">
        <ele>1612</ele>
        <time>2017-12-01T14:51:07Z</time>
      </trkpt>
      <trkpt lat="45.89347" lon="6.44645">
        <ele>1612</ele>
        <time>2017-12-01T14:51:11Z</time>
      </trkpt>
      <trkpt lat="45.89345" lon="6.44645">
        <ele>1613</ele>
        <time>2017-12-01T14:51:13Z</time>
      </trkpt>
      <trkpt lat="45.89336" lon="6.44637">
        <ele>1612</ele>
        <time>2017-12-01T14:51:28Z</time>
      </trkpt>
      <trkpt lat="45.89334" lon="6.44636">
        <ele>1612</ele>
        <time>2017-12-01T14:51:30Z</time>
      </trkpt>
      <trkpt lat="45.89323" lon="6.44628">
        <ele>1619</ele>
        <time>2017-12-01T14:51:46Z</time>
      </trkpt>
      <trkpt lat="45.89306" lon="6.44617">
        <ele>1618</ele>
        <time>2017-12-01T14:52:05Z</time>
      </trkpt>
      <trkpt lat="45.89296" lon="6.44623">
        <ele>1620</ele>
        <time>2017-12-01T14:52:20Z</time>
      </trkpt>
      <trkpt lat="45.89288" lon="6.44636">
        <ele>1622</ele>
        <time>2017-12-01T14:52:35Z</time>
      </trkpt>
      <trkpt lat="45.89284" lon="6.44648">
        <ele>1624</ele>
        <time>2017-12-01T14:52:49Z</time>
      </trkpt>
      <trkpt lat="45.89279" lon="6.44662">
        <ele>1626</ele>
        <time>2017-12-01T14:53:40Z</time>
      </trkpt>
      <trkpt lat="45.89275" lon="6.44672">
        <ele>1640</ele>
        <time>2017-12-01T14:53:53Z</time>
      </trkpt>
      <trkpt lat="45.89278" lon="6.44674">
        <ele>1640</ele>
        <time>2017-12-01T14:54:00Z</time>
      </trkpt>
      <trkpt lat="45.89282" lon="6.44679">
        <ele>1640</ele>
        <time>2017-12-01T14:54:08Z</time>
      </trkpt>
      <trkpt lat="45.89285" lon="6.44692">
        <ele>1641</ele>
        <time>2017-12-01T14:54:24Z</time>
      </trkpt>
      <trkpt lat="45.89282" lon="6.44702">
        <ele>1643</ele>
        <time>2017-12-01T14:54:36Z</time>
      </trkpt>
      <trkpt lat="45.89283" lon="6.44706">
        <ele>1644</ele>
        <time>2017-12-01T14:54:39Z</time>
      </trkpt>
      <trkpt lat="45.89282" lon="6.44708">
        <ele>1644</ele>
        <time>2017-12-01T14:54:41Z</time>
      </trkpt>
      <trkpt lat="45.89282" lon="6.4471">
        <ele>1644</ele>
        <time>2017-12-01T14:54:43Z</time>
      </trkpt>
      <trkpt lat="45.89282" lon="6.44715">
        <ele>1645</ele>
        <time>2017-12-01T14:54:48Z</time>
      </trkpt>
      <trkpt lat="45.89279" lon="6.44726">
        <ele>1648</ele>
        <time>2017-12-01T14:55:01Z</time>
      </trkpt>
      <trkpt lat="45.89278" lon="6.44727">
        <ele>1648</ele>
        <time>2017-12-01T14:55:02Z</time>
      </trkpt>
      <trkpt lat="45.89276" lon="6.44732">
        <ele>1649</ele>
        <time>2017-12-01T14:55:07Z</time>
      </trkpt>
      <trkpt lat="45.89267" lon="6.44737">
        <ele>1653</ele>
        <time>2017-12-01T14:55:21Z</time>
      </trkpt>
      <trkpt lat="45.89265" lon="6.44738">
        <ele>1653</ele>
        <time>2017-12-01T14:55:23Z</time>
      </trkpt>
      <trkpt lat="45.89265" lon="6.44738">
        <ele>1654</ele>
        <time>2017-12-01T14:55:24Z</time>
      </trkpt>
      <trkpt lat="45.8926" lon="6.44737">
        <ele>1655</ele>
        <time>2017-12-01T14:55:30Z</time>
      </trkpt>
      <trkpt lat="45.89251" lon="6.44736">
        <ele>1656</ele>
        <time>2017-12-01T14:55:42Z</time>
      </trkpt>
      <trkpt lat="45.89238" lon="6.44734">
        <ele>1665</ele>
        <time>2017-12-01T14:55:56Z</time>
      </trkpt>
      <trkpt lat="45.89236" lon="6.44733">
        <ele>1665</ele>
        <time>2017-12-01T14:55:59Z</time>
      </trkpt>
      <trkpt lat="45.89235" lon="6.44733">
        <ele>1665</ele>
        <time>2017-12-01T14:56:00Z</time>
      </trkpt>
      <trkpt lat="45.89228" lon="6.4473">
        <ele>1665</ele>
        <time>2017-12-01T14:56:08Z</time>
      </trkpt>
      <trkpt lat="45.89227" lon="6.4473">
        <ele>1665</ele>
        <time>2017-12-01T14:56:09Z</time>
      </trkpt>
      <trkpt lat="45.89226" lon="6.4473">
        <ele>1665</ele>
        <time>2017-12-01T14:56:10Z</time>
      </trkpt>
      <trkpt lat="45.89225" lon="6.4473">
        <ele>1665</ele>
        <time>2017-12-01T14:56:11Z</time>
      </trkpt>
      <trkpt lat="45.89212" lon="6.44725">
        <ele>1666</ele>
        <time>2017-12-01T14:56:26Z</time>
      </trkpt>
      <trkpt lat="45.89208" lon="6.44723">
        <ele>1666</ele>
        <time>2017-12-01T14:56:30Z</time>
      </trkpt>
      <trkpt lat="45.89207" lon="6.44723">
        <ele>1667</ele>
        <time>2017-12-01T14:56:31Z</time>
      </trkpt>
      <trkpt lat="45.89206" lon="6.44722">
        <ele>1667</ele>
        <time>2017-12-01T14:56:32Z</time>
      </trkpt>
      <trkpt lat="45.89205" lon="6.44721">
        <ele>1667</ele>
        <time>2017-12-01T14:56:33Z</time>
      </trkpt>
      <trkpt lat="45.89204" lon="6.4472">
        <ele>1667</ele>
        <time>2017-12-01T14:56:34Z</time>
      </trkpt>
      <trkpt lat="45.89203" lon="6.4472">
        <ele>1667</ele>
        <time>2017-12-01T14:56:35Z</time>
      </trkpt>
      <trkpt lat="45.89202" lon="6.4472">
        <ele>1667</ele>
        <time>2017-12-01T14:56:36Z</time>
      </trkpt>
      <trkpt lat="45.89201" lon="6.44719">
        <ele>1667</ele>
        <time>2017-12-01T14:56:37Z</time>
      </trkpt>
      <trkpt lat="45.892" lon="6.44718">
        <ele>1667</ele>
        <time>2017-12-01T14:56:38Z</time>
      </trkpt>
      <trkpt lat="45.89198" lon="6.44718">
        <ele>1667</ele>
        <time>2017-12-01T14:56:39Z</time>
      </trkpt>
      <trkpt lat="45.8918" lon="6.44706">
        <ele>1667</ele>
        <time>2017-12-01T14:56:54Z</time>
      </trkpt>
      <trkpt lat="45.89166" lon="6.44697">
        <ele>1682</ele>
        <time>2017-12-01T14:57:05Z</time>
      </trkpt>
      <trkpt lat="45.89165" lon="6.44696">
        <ele>1682</ele>
        <time>2017-12-01T14:57:06Z</time>
      </trkpt>
      <trkpt lat="45.89164" lon="6.44696">
        <ele>1682</ele>
        <time>2017-12-01T14:57:07Z</time>
      </trkpt>
      <trkpt lat="45.89162" lon="6.44695">
        <ele>1682</ele>
        <time>2017-12-01T14:57:08Z</time>
      </trkpt>
      <trkpt lat="45.89161" lon="6.44695">
        <ele>1682</ele>
        <time>2017-12-01T14:57:09Z</time>
      </trkpt>
      <trkpt lat="45.89144" lon="6.44682">
        <ele>1682</ele>
        <time>2017-12-01T14:57:23Z</time>
      </trkpt>
      <trkpt lat="45.89143" lon="6.44682">
        <ele>1682</ele>
        <time>2017-12-01T14:57:24Z</time>
      </trkpt>
      <trkpt lat="45.89142" lon="6.44681">
        <ele>1682</ele>
        <time>2017-12-01T14:57:25Z</time>
      </trkpt>
      <trkpt lat="45.89141" lon="6.4468">
        <ele>1682</ele>
        <time>2017-12-01T14:57:26Z</time>
      </trkpt>
      <trkpt lat="45.8914" lon="6.44679">
        <ele>1683</ele>
        <time>2017-12-01T14:57:27Z</time>
      </trkpt>
      <trkpt lat="45.89138" lon="6.44678">
        <ele>1683</ele>
        <time>2017-12-01T14:57:28Z</time>
      </trkpt>
      <trkpt lat="45.89137" lon="6.44678">
        <ele>1683</ele>
        <time>2017-12-01T14:57:29Z</time>
      </trkpt>
      <trkpt lat="45.89135" lon="6.44678">
        <ele>1684</ele>
        <time>2017-12-01T14:57:30Z</time>
      </trkpt>
      <trkpt lat="45.89134" lon="6.44677">
        <ele>1684</ele>
        <time>2017-12-01T14:57:31Z</time>
      </trkpt>
      <trkpt lat="45.89133" lon="6.44676">
        <ele>1684</ele>
        <time>2017-12-01T14:57:32Z</time>
      </trkpt>
      <trkpt lat="45.89121" lon="6.44666">
        <ele>1672</ele>
        <time>2017-12-01T14:57:42Z</time>
      </trkpt>
      <trkpt lat="45.89119" lon="6.44665">
        <ele>1672</ele>
        <time>2017-12-01T14:57:43Z</time>
      </trkpt>
      <trkpt lat="45.89118" lon="6.44664">
        <ele>1673</ele>
        <time>2017-12-01T14:57:44Z</time>
      </trkpt>
      <trkpt lat="45.89117" lon="6.44664">
        <ele>1673</ele>
        <time>2017-12-01T14:57:45Z</time>
      </trkpt>
      <trkpt lat="45.89115" lon="6.44663">
        <ele>1674</ele>
        <time>2017-12-01T14:57:46Z</time>
      </trkpt>
      <trkpt lat="45.89094" lon="6.4465">
        <ele>1679</ele>
        <time>2017-12-01T14:58:02Z</time>
      </trkpt>
      <trkpt lat="45.89081" lon="6.4464">
        <ele>1690</ele>
        <time>2017-12-01T14:58:13Z</time>
      </trkpt>
      <trkpt lat="45.8908" lon="6.44639">
        <ele>1690</ele>
        <time>2017-12-01T14:58:14Z</time>
      </trkpt>
      <trkpt lat="45.89066" lon="6.44629">
        <ele>1689</ele>
        <time>2017-12-01T14:58:26Z</time>
      </trkpt>
      <trkpt lat="45.89064" lon="6.44629">
        <ele>1689</ele>
        <time>2017-12-01T14:58:27Z</time>
      </trkpt>
      <trkpt lat="45.89063" lon="6.44628">
        <ele>1689</ele>
        <time>2017-12-01T14:58:28Z</time>
      </trkpt>
      <trkpt lat="45.89062" lon="6.44627">
        <ele>1689</ele>
        <time>2017-12-01T14:58:29Z</time>
      </trkpt>
      <trkpt lat="45.8906" lon="6.44627">
        <ele>1689</ele>
        <time>2017-12-01T14:58:30Z</time>
      </trkpt>
      <trkpt lat="45.89059" lon="6.44627">
        <ele>1689</ele>
        <time>2017-12-01T14:58:31Z</time>
      </trkpt>
      <trkpt lat="45.89058" lon="6.44627">
        <ele>1689</ele>
        <time>2017-12-01T14:58:32Z</time>
      </trkpt>
      <trkpt lat="45.89057" lon="6.44626">
        <ele>1689</ele>
        <time>2017-12-01T14:58:33Z</time>
      </trkpt>
      <trkpt lat="45.89056" lon="6.44626">
        <ele>1689</ele>
        <time>2017-12-01T14:58:34Z</time>
      </trkpt>
      <trkpt lat="45.89054" lon="6.44625">
        <ele>1689</ele>
        <time>2017-12-01T14:58:35Z</time>
      </trkpt>
      <trkpt lat="45.89052" lon="6.44625">
        <ele>1689</ele>
        <time>2017-12-01T14:58:36Z</time>
      </trkpt>
      <trkpt lat="45.89051" lon="6.44625">
        <ele>1689</ele>
        <time>2017-12-01T14:58:37Z</time>
      </trkpt>
      <trkpt lat="45.8905" lon="6.44624">
        <ele>1689</ele>
        <time>2017-12-01T14:58:38Z</time>
      </trkpt>
      <trkpt lat="45.89049" lon="6.44623">
        <ele>1689</ele>
        <time>2017-12-01T14:58:39Z</time>
      </trkpt>
      <trkpt lat="45.89048" lon="6.44623">
        <ele>1689</ele>
        <time>2017-12-01T14:58:40Z</time>
      </trkpt>
      <trkpt lat="45.89047" lon="6.44622">
        <ele>1689</ele>
        <time>2017-12-01T14:58:41Z</time>
      </trkpt>
      <trkpt lat="45.89028" lon="6.44622">
        <ele>1691</ele>
        <time>2017-12-01T14:58:56Z</time>
      </trkpt>
      <trkpt lat="45.89027" lon="6.44622">
        <ele>1691</ele>
        <time>2017-12-01T14:58:57Z</time>
      </trkpt>
      <trkpt lat="45.89026" lon="6.44621">
        <ele>1691</ele>
        <time>2017-12-01T14:58:58Z</time>
      </trkpt>
      <trkpt lat="45.89024" lon="6.44621">
        <ele>1691</ele>
        <time>2017-12-01T14:58:59Z</time>
      </trkpt>
      <trkpt lat="45.89023" lon="6.44622">
        <ele>1691</ele>
        <time>2017-12-01T14:59:00Z</time>
      </trkpt>
      <trkpt lat="45.89022" lon="6.44622">
        <ele>1691</ele>
        <time>2017-12-01T14:59:01Z</time>
      </trkpt>
      <trkpt lat="45.89005" lon="6.44624">
        <ele>1692</ele>
        <time>2017-12-01T14:59:16Z</time>
      </trkpt>
      <trkpt lat="45.89001" lon="6.44626">
        <ele>1693</ele>
        <time>2017-12-01T14:59:20Z</time>
      </trkpt>
      <trkpt lat="45.88999" lon="6.44628">
        <ele>1694</ele>
        <time>2017-12-01T14:59:22Z</time>
      </trkpt>
      <trkpt lat="45.88982" lon="6.4464">
        <ele>1695</ele>
        <time>2017-12-01T14:59:39Z</time>
      </trkpt>
      <trkpt lat="45.88977" lon="6.44646">
        <ele>1696</ele>
        <time>2017-12-01T14:59:45Z</time>
      </trkpt>
      <trkpt lat="45.88977" lon="6.44646">
        <ele>1696</ele>
        <time>2017-12-01T14:59:46Z</time>
      </trkpt>
      <trkpt lat="45.88962" lon="6.44663">
        <ele>1695</ele>
        <time>2017-12-01T15:00:03Z</time>
      </trkpt>
      <trkpt lat="45.88958" lon="6.44672">
        <ele>1709</ele>
        <time>2017-12-01T15:00:10Z</time>
      </trkpt>
      <trkpt lat="45.88953" lon="6.44679">
        <ele>1709</ele>
        <time>2017-12-01T15:00:16Z</time>
      </trkpt>
      <trkpt lat="45.88948" lon="6.44692">
        <ele>1709</ele>
        <time>2017-12-01T15:00:28Z</time>
      </trkpt>
      <trkpt lat="45.88948" lon="6.44694">
        <ele>1709</ele>
        <time>2017-12-01T15:00:29Z</time>
      </trkpt>
      <trkpt lat="45.88948" lon="6.44695">
        <ele>1709</ele>
        <time>2017-12-01T15:00:30Z</time>
      </trkpt>
      <trkpt lat="45.88947" lon="6.44696">
        <ele>1710</ele>
        <time>2017-12-01T15:00:31Z</time>
      </trkpt>
      <trkpt lat="45.88947" lon="6.44698">
        <ele>1710</ele>
        <time>2017-12-01T15:00:32Z</time>
      </trkpt>
      <trkpt lat="45.88946" lon="6.44699">
        <ele>1710</ele>
        <time>2017-12-01T15:00:33Z</time>
      </trkpt>
      <trkpt lat="45.88945" lon="6.44702">
        <ele>1710</ele>
        <time>2017-12-01T15:00:35Z</time>
      </trkpt>
      <trkpt lat="45.88945" lon="6.44704">
        <ele>1710</ele>
        <time>2017-12-01T15:00:36Z</time>
      </trkpt>
      <trkpt lat="45.88945" lon="6.44705">
        <ele>1710</ele>
        <time>2017-12-01T15:00:37Z</time>
      </trkpt>
      <trkpt lat="45.88945" lon="6.44707">
        <ele>1711</ele>
        <time>2017-12-01T15:00:38Z</time>
      </trkpt>
      <trkpt lat="45.88945" lon="6.4471">
        <ele>1711</ele>
        <time>2017-12-01T15:00:40Z</time>
      </trkpt>
      <trkpt lat="45.88944" lon="6.44711">
        <ele>1711</ele>
        <time>2017-12-01T15:00:41Z</time>
      </trkpt>
      <trkpt lat="45.88945" lon="6.44735">
        <ele>1713</ele>
        <time>2017-12-01T15:00:56Z</time>
      </trkpt>
      <trkpt lat="45.88945" lon="6.44749">
        <ele>1714</ele>
        <time>2017-12-01T15:01:04Z</time>
      </trkpt>
      <trkpt lat="45.88946" lon="6.44751">
        <ele>1726</ele>
        <time>2017-12-01T15:01:05Z</time>
      </trkpt>
      <trkpt lat="45.88946" lon="6.44752">
        <ele>1727</ele>
        <time>2017-12-01T15:01:06Z</time>
      </trkpt>
      <trkpt lat="45.88946" lon="6.44753">
        <ele>1727</ele>
        <time>2017-12-01T15:01:07Z</time>
      </trkpt>
      <trkpt lat="45.88946" lon="6.44755">
        <ele>1727</ele>
        <time>2017-12-01T15:01:08Z</time>
      </trkpt>
      <trkpt lat="45.88946" lon="6.44756">
        <ele>1727</ele>
        <time>2017-12-01T15:01:09Z</time>
      </trkpt>
      <trkpt lat="45.88945" lon="6.44783">
        <ele>1731</ele>
        <time>2017-12-01T15:01:26Z</time>
      </trkpt>
      <trkpt lat="45.8894" lon="6.44801">
        <ele>1733</ele>
        <time>2017-12-01T15:01:39Z</time>
      </trkpt>
      <trkpt lat="45.8894" lon="6.44802">
        <ele>1733</ele>
        <time>2017-12-01T15:01:40Z</time>
      </trkpt>
      <trkpt lat="45.88934" lon="6.44823">
        <ele>1734</ele>
        <time>2017-12-01T15:01:56Z</time>
      </trkpt>
      <trkpt lat="45.88923" lon="6.44848">
        <ele>1744</ele>
        <time>2017-12-01T15:02:13Z</time>
      </trkpt>
      <trkpt lat="45.88921" lon="6.44852">
        <ele>1745</ele>
        <time>2017-12-01T15:02:16Z</time>
      </trkpt>
      <trkpt lat="45.8892" lon="6.44853">
        <ele>1745</ele>
        <time>2017-12-01T15:02:17Z</time>
      </trkpt>
      <trkpt lat="45.8892" lon="6.44854">
        <ele>1746</ele>
        <time>2017-12-01T15:02:18Z</time>
      </trkpt>
      <trkpt lat="45.88919" lon="6.44856">
        <ele>1747</ele>
        <time>2017-12-01T15:02:19Z</time>
      </trkpt>
      <trkpt lat="45.88919" lon="6.44857">
        <ele>1747</ele>
        <time>2017-12-01T15:02:20Z</time>
      </trkpt>
      <trkpt lat="45.88919" lon="6.44859">
        <ele>1748</ele>
        <time>2017-12-01T15:02:21Z</time>
      </trkpt>
      <trkpt lat="45.88918" lon="6.4486">
        <ele>1748</ele>
        <time>2017-12-01T15:02:22Z</time>
      </trkpt>
      <trkpt lat="45.88918" lon="6.44862">
        <ele>1749</ele>
        <time>2017-12-01T15:02:23Z</time>
      </trkpt>
      <trkpt lat="45.88917" lon="6.44863">
        <ele>1749</ele>
        <time>2017-12-01T15:02:24Z</time>
      </trkpt>
      <trkpt lat="45.88915" lon="6.44869">
        <ele>1731</ele>
        <time>2017-12-01T15:02:28Z</time>
      </trkpt>
      <trkpt lat="45.88915" lon="6.4487">
        <ele>1732</ele>
        <time>2017-12-01T15:02:29Z</time>
      </trkpt>
      <trkpt lat="45.88915" lon="6.44872">
        <ele>1732</ele>
        <time>2017-12-01T15:02:30Z</time>
      </trkpt>
      <trkpt lat="45.88914" lon="6.44873">
        <ele>1732</ele>
        <time>2017-12-01T15:02:31Z</time>
      </trkpt>
      <trkpt lat="45.88914" lon="6.44874">
        <ele>1732</ele>
        <time>2017-12-01T15:02:32Z</time>
      </trkpt>
      <trkpt lat="45.88914" lon="6.44876">
        <ele>1733</ele>
        <time>2017-12-01T15:02:33Z</time>
      </trkpt>
      <trkpt lat="45.88913" lon="6.44877">
        <ele>1733</ele>
        <time>2017-12-01T15:02:34Z</time>
      </trkpt>
      <trkpt lat="45.88913" lon="6.44878">
        <ele>1733</ele>
        <time>2017-12-01T15:02:35Z</time>
      </trkpt>
      <trkpt lat="45.88912" lon="6.4488">
        <ele>1734</ele>
        <time>2017-12-01T15:02:36Z</time>
      </trkpt>
      <trkpt lat="45.88911" lon="6.44881">
        <ele>1734</ele>
        <time>2017-12-01T15:02:37Z</time>
      </trkpt>
      <trkpt lat="45.88911" lon="6.44883">
        <ele>1734</ele>
        <time>2017-12-01T15:02:38Z</time>
      </trkpt>
      <trkpt lat="45.8891" lon="6.44884">
        <ele>1735</ele>
        <time>2017-12-01T15:02:39Z</time>
      </trkpt>
      <trkpt lat="45.8891" lon="6.44886">
        <ele>1735</ele>
        <time>2017-12-01T15:02:40Z</time>
      </trkpt>
      <trkpt lat="45.88909" lon="6.44887">
        <ele>1735</ele>
        <time>2017-12-01T15:02:41Z</time>
      </trkpt>
      <trkpt lat="45.88909" lon="6.44888">
        <ele>1736</ele>
        <time>2017-12-01T15:02:42Z</time>
      </trkpt>
      <trkpt lat="45.88908" lon="6.4489">
        <ele>1736</ele>
        <time>2017-12-01T15:02:43Z</time>
      </trkpt>
      <trkpt lat="45.88908" lon="6.44892">
        <ele>1737</ele>
        <time>2017-12-01T15:02:44Z</time>
      </trkpt>
      <trkpt lat="45.88908" lon="6.44893">
        <ele>1737</ele>
        <time>2017-12-01T15:02:45Z</time>
      </trkpt>
      <trkpt lat="45.88907" lon="6.44895">
        <ele>1738</ele>
        <time>2017-12-01T15:02:46Z</time>
      </trkpt>
      <trkpt lat="45.88907" lon="6.44896">
        <ele>1738</ele>
        <time>2017-12-01T15:02:47Z</time>
      </trkpt>
      <trkpt lat="45.88906" lon="6.44898">
        <ele>1739</ele>
        <time>2017-12-01T15:02:48Z</time>
      </trkpt>
      <trkpt lat="45.88906" lon="6.44899">
        <ele>1739</ele>
        <time>2017-12-01T15:02:49Z</time>
      </trkpt>
      <trkpt lat="45.88906" lon="6.449">
        <ele>1740</ele>
        <time>2017-12-01T15:02:50Z</time>
      </trkpt>
      <trkpt lat="45.88898" lon="6.44929">
        <ele>1748</ele>
        <time>2017-12-01T15:03:10Z</time>
      </trkpt>
      <trkpt lat="45.88897" lon="6.4493">
        <ele>1748</ele>
        <time>2017-12-01T15:03:11Z</time>
      </trkpt>
      <trkpt lat="45.88897" lon="6.44932">
        <ele>1748</ele>
        <time>2017-12-01T15:03:12Z</time>
      </trkpt>
      <trkpt lat="45.88897" lon="6.44933">
        <ele>1748</ele>
        <time>2017-12-01T15:03:13Z</time>
      </trkpt>
      <trkpt lat="45.88896" lon="6.44935">
        <ele>1748</ele>
        <time>2017-12-01T15:03:14Z</time>
      </trkpt>
      <trkpt lat="45.88896" lon="6.44937">
        <ele>1748</ele>
        <time>2017-12-01T15:03:15Z</time>
      </trkpt>
      <trkpt lat="45.88896" lon="6.44938">
        <ele>1748</ele>
        <time>2017-12-01T15:03:16Z</time>
      </trkpt>
      <trkpt lat="45.88895" lon="6.4494">
        <ele>1747</ele>
        <time>2017-12-01T15:03:17Z</time>
      </trkpt>
      <trkpt lat="45.88895" lon="6.44941">
        <ele>1747</ele>
        <time>2017-12-01T15:03:18Z</time>
      </trkpt>
      <trkpt lat="45.88894" lon="6.44943">
        <ele>1747</ele>
        <time>2017-12-01T15:03:19Z</time>
      </trkpt>
      <trkpt lat="45.88893" lon="6.44945">
        <ele>1747</ele>
        <time>2017-12-01T15:03:20Z</time>
      </trkpt>
      <trkpt lat="45.88893" lon="6.44946">
        <ele>1747</ele>
        <time>2017-12-01T15:03:21Z</time>
      </trkpt>
      <trkpt lat="45.88893" lon="6.44947">
        <ele>1747</ele>
        <time>2017-12-01T15:03:22Z</time>
      </trkpt>
      <trkpt lat="45.88893" lon="6.44949">
        <ele>1747</ele>
        <time>2017-12-01T15:03:23Z</time>
      </trkpt>
      <trkpt lat="45.88893" lon="6.4495">
        <ele>1747</ele>
        <time>2017-12-01T15:03:24Z</time>
      </trkpt>
      <trkpt lat="45.88893" lon="6.44952">
        <ele>1747</ele>
        <time>2017-12-01T15:03:25Z</time>
      </trkpt>
      <trkpt lat="45.88893" lon="6.44955">
        <ele>1747</ele>
        <time>2017-12-01T15:03:27Z</time>
      </trkpt>
      <trkpt lat="45.88892" lon="6.44956">
        <ele>1747</ele>
        <time>2017-12-01T15:03:28Z</time>
      </trkpt>
      <trkpt lat="45.88892" lon="6.44957">
        <ele>1747</ele>
        <time>2017-12-01T15:03:29Z</time>
      </trkpt>
      <trkpt lat="45.88892" lon="6.44961">
        <ele>1748</ele>
        <time>2017-12-01T15:03:32Z</time>
      </trkpt>
      <trkpt lat="45.88892" lon="6.44962">
        <ele>1748</ele>
        <time>2017-12-01T15:03:33Z</time>
      </trkpt>
      <trkpt lat="45.88891" lon="6.44964">
        <ele>1748</ele>
        <time>2017-12-01T15:03:34Z</time>
      </trkpt>
      <trkpt lat="45.88891" lon="6.44966">
        <ele>1748</ele>
        <time>2017-12-01T15:03:35Z</time>
      </trkpt>
      <trkpt lat="45.8889" lon="6.44968">
        <ele>1748</ele>
        <time>2017-12-01T15:03:36Z</time>
      </trkpt>
      <trkpt lat="45.8889" lon="6.4497">
        <ele>1748</ele>
        <time>2017-12-01T15:03:37Z</time>
      </trkpt>
      <trkpt lat="45.8889" lon="6.44971">
        <ele>1749</ele>
        <time>2017-12-01T15:03:38Z</time>
      </trkpt>
      <trkpt lat="45.88889" lon="6.44973">
        <ele>1749</ele>
        <time>2017-12-01T15:03:39Z</time>
      </trkpt>
      <trkpt lat="45.88889" lon="6.44979">
        <ele>1749</ele>
        <time>2017-12-01T15:03:43Z</time>
      </trkpt>
      <trkpt lat="45.88889" lon="6.44981">
        <ele>1750</ele>
        <time>2017-12-01T15:03:44Z</time>
      </trkpt>
      <trkpt lat="45.88889" lon="6.44983">
        <ele>1750</ele>
        <time>2017-12-01T15:03:45Z</time>
      </trkpt>
      <trkpt lat="45.88889" lon="6.44984">
        <ele>1750</ele>
        <time>2017-12-01T15:03:46Z</time>
      </trkpt>
      <trkpt lat="45.88889" lon="6.44985">
        <ele>1750</ele>
        <time>2017-12-01T15:03:47Z</time>
      </trkpt>
      <trkpt lat="45.88888" lon="6.44987">
        <ele>1750</ele>
        <time>2017-12-01T15:03:48Z</time>
      </trkpt>
      <trkpt lat="45.88888" lon="6.44989">
        <ele>1751</ele>
        <time>2017-12-01T15:03:49Z</time>
      </trkpt>
      <trkpt lat="45.88887" lon="6.44993">
        <ele>1751</ele>
        <time>2017-12-01T15:03:52Z</time>
      </trkpt>
      <trkpt lat="45.88887" lon="6.44995">
        <ele>1751</ele>
        <time>2017-12-01T15:03:53Z</time>
      </trkpt>
      <trkpt lat="45.88888" lon="6.44997">
        <ele>1751</ele>
        <time>2017-12-01T15:03:54Z</time>
      </trkpt>
      <trkpt lat="45.88888" lon="6.44999">
        <ele>1751</ele>
        <time>2017-12-01T15:03:55Z</time>
      </trkpt>
      <trkpt lat="45.88888" lon="6.45">
        <ele>1757</ele>
        <time>2017-12-01T15:03:56Z</time>
      </trkpt>
      <trkpt lat="45.88888" lon="6.45003">
        <ele>1757</ele>
        <time>2017-12-01T15:03:58Z</time>
      </trkpt>
      <trkpt lat="45.88888" lon="6.45023">
        <ele>1757</ele>
        <time>2017-12-01T15:04:12Z</time>
      </trkpt>
      <trkpt lat="45.88889" lon="6.45036">
        <ele>1757</ele>
        <time>2017-12-01T15:04:21Z</time>
      </trkpt>
      <trkpt lat="45.8889" lon="6.45039">
        <ele>1757</ele>
        <time>2017-12-01T15:04:23Z</time>
      </trkpt>
      <trkpt lat="45.8889" lon="6.4504">
        <ele>1757</ele>
        <time>2017-12-01T15:04:24Z</time>
      </trkpt>
      <trkpt lat="45.8889" lon="6.45042">
        <ele>1757</ele>
        <time>2017-12-01T15:04:25Z</time>
      </trkpt>
      <trkpt lat="45.88891" lon="6.45043">
        <ele>1757</ele>
        <time>2017-12-01T15:04:26Z</time>
      </trkpt>
      <trkpt lat="45.88891" lon="6.45044">
        <ele>1758</ele>
        <time>2017-12-01T15:04:27Z</time>
      </trkpt>
      <trkpt lat="45.88891" lon="6.45046">
        <ele>1758</ele>
        <time>2017-12-01T15:04:28Z</time>
      </trkpt>
      <trkpt lat="45.88892" lon="6.45048">
        <ele>1758</ele>
        <time>2017-12-01T15:04:30Z</time>
      </trkpt>
      <trkpt lat="45.88893" lon="6.45049">
        <ele>1758</ele>
        <time>2017-12-01T15:04:31Z</time>
      </trkpt>
      <trkpt lat="45.88896" lon="6.45067">
        <ele>1761</ele>
        <time>2017-12-01T15:04:45Z</time>
      </trkpt>
      <trkpt lat="45.88897" lon="6.45088">
        <ele>1765</ele>
        <time>2017-12-01T15:05:00Z</time>
      </trkpt>
      <trkpt lat="45.88897" lon="6.45112">
        <ele>1763</ele>
        <time>2017-12-01T15:05:16Z</time>
      </trkpt>
      <trkpt lat="45.88897" lon="6.45115">
        <ele>1763</ele>
        <time>2017-12-01T15:05:18Z</time>
      </trkpt>
      <trkpt lat="45.88901" lon="6.4513">
        <ele>1764</ele>
        <time>2017-12-01T15:05:29Z</time>
      </trkpt>
      <trkpt lat="45.88901" lon="6.45131">
        <ele>1764</ele>
        <time>2017-12-01T15:05:30Z</time>
      </trkpt>
      <trkpt lat="45.88902" lon="6.45136">
        <ele>1764</ele>
        <time>2017-12-01T15:05:34Z</time>
      </trkpt>
      <trkpt lat="45.88903" lon="6.45137">
        <ele>1765</ele>
        <time>2017-12-01T15:05:35Z</time>
      </trkpt>
      <trkpt lat="45.88903" lon="6.45139">
        <ele>1765</ele>
        <time>2017-12-01T15:05:36Z</time>
      </trkpt>
      <trkpt lat="45.88903" lon="6.4514">
        <ele>1765</ele>
        <time>2017-12-01T15:05:37Z</time>
      </trkpt>
      <trkpt lat="45.88904" lon="6.45141">
        <ele>1765</ele>
        <time>2017-12-01T15:05:38Z</time>
      </trkpt>
      <trkpt lat="45.88905" lon="6.45148">
        <ele>1767</ele>
        <time>2017-12-01T15:05:43Z</time>
      </trkpt>
      <trkpt lat="45.88906" lon="6.45149">
        <ele>1767</ele>
        <time>2017-12-01T15:05:44Z</time>
      </trkpt>
      <trkpt lat="45.88908" lon="6.45155">
        <ele>1770</ele>
        <time>2017-12-01T15:05:48Z</time>
      </trkpt>
      <trkpt lat="45.88909" lon="6.45158">
        <ele>1771</ele>
        <time>2017-12-01T15:05:50Z</time>
      </trkpt>
      <trkpt lat="45.88911" lon="6.45164">
        <ele>1774</ele>
        <time>2017-12-01T15:05:55Z</time>
      </trkpt>
      <trkpt lat="45.88911" lon="6.45165">
        <ele>1774</ele>
        <time>2017-12-01T15:05:56Z</time>
      </trkpt>
      <trkpt lat="45.8891" lon="6.45166">
        <ele>1774</ele>
        <time>2017-12-01T15:05:57Z</time>
      </trkpt>
      <trkpt lat="45.8891" lon="6.45168">
        <ele>1775</ele>
        <time>2017-12-01T15:05:58Z</time>
      </trkpt>
      <trkpt lat="45.8891" lon="6.45169">
        <ele>1775</ele>
        <time>2017-12-01T15:05:59Z</time>
      </trkpt>
      <trkpt lat="45.88918" lon="6.4519">
        <ele>1791</ele>
        <time>2017-12-01T15:06:16Z</time>
      </trkpt>
      <trkpt lat="45.88921" lon="6.45207">
        <ele>1794</ele>
        <time>2017-12-01T15:06:30Z</time>
      </trkpt>
      <trkpt lat="45.88925" lon="6.45216">
        <ele>1794</ele>
        <time>2017-12-01T15:06:38Z</time>
      </trkpt>
      <trkpt lat="45.88929" lon="6.45224">
        <ele>1794</ele>
        <time>2017-12-01T15:06:46Z</time>
      </trkpt>
      <trkpt lat="45.88929" lon="6.45225">
        <ele>1794</ele>
        <time>2017-12-01T15:06:47Z</time>
      </trkpt>
      <trkpt lat="45.88929" lon="6.45226">
        <ele>1794</ele>
        <time>2017-12-01T15:06:48Z</time>
      </trkpt>
      <trkpt lat="45.88931" lon="6.45234">
        <ele>1793</ele>
        <time>2017-12-01T15:06:54Z</time>
      </trkpt>
      <trkpt lat="45.88932" lon="6.45235">
        <ele>1793</ele>
        <time>2017-12-01T15:06:55Z</time>
      </trkpt>
      <trkpt lat="45.88947" lon="6.45285">
        <ele>1801</ele>
        <time>2017-12-01T15:07:37Z</time>
      </trkpt>
      <trkpt lat="45.88952" lon="6.45302">
        <ele>1802</ele>
        <time>2017-12-01T15:07:53Z</time>
      </trkpt>
      <trkpt lat="45.88953" lon="6.45303">
        <ele>1803</ele>
        <time>2017-12-01T15:07:54Z</time>
      </trkpt>
      <trkpt lat="45.88959" lon="6.4532">
        <ele>1805</ele>
        <time>2017-12-01T15:08:12Z</time>
      </trkpt>
      <trkpt lat="45.88964" lon="6.4533">
        <ele>1806</ele>
        <time>2017-12-01T15:08:28Z</time>
      </trkpt>
      <trkpt lat="45.88969" lon="6.45346">
        <ele>1810</ele>
        <time>2017-12-01T15:08:40Z</time>
      </trkpt>
      <trkpt lat="45.88981" lon="6.454">
        <ele>1815</ele>
        <time>2017-12-01T15:09:24Z</time>
      </trkpt>
      <trkpt lat="45.88988" lon="6.45428">
        <ele>1821</ele>
        <time>2017-12-01T15:09:46Z</time>
      </trkpt>
      <trkpt lat="45.88996" lon="6.4545">
        <ele>1820</ele>
        <time>2017-12-01T15:10:09Z</time>
      </trkpt>
      <trkpt lat="45.88997" lon="6.45452">
        <ele>1820</ele>
        <time>2017-12-01T15:10:10Z</time>
      </trkpt>
      <trkpt lat="45.89004" lon="6.45467">
        <ele>1835</ele>
        <time>2017-12-01T15:10:27Z</time>
      </trkpt>
      <trkpt lat="45.89006" lon="6.45472">
        <ele>1835</ele>
        <time>2017-12-01T15:10:32Z</time>
      </trkpt>
      <trkpt lat="45.89009" lon="6.45477">
        <ele>1835</ele>
        <time>2017-12-01T15:10:38Z</time>
      </trkpt>
      <trkpt lat="45.89012" lon="6.45484">
        <ele>1835</ele>
        <time>2017-12-01T15:10:45Z</time>
      </trkpt>
      <trkpt lat="45.89018" lon="6.45491">
        <ele>1835</ele>
        <time>2017-12-01T15:10:54Z</time>
      </trkpt>
      <trkpt lat="45.89021" lon="6.45498">
        <ele>1835</ele>
        <time>2017-12-01T15:10:59Z</time>
      </trkpt>
      <trkpt lat="45.89023" lon="6.45521">
        <ele>1842</ele>
        <time>2017-12-01T15:11:15Z</time>
      </trkpt>
      <trkpt lat="45.89022" lon="6.45523">
        <ele>1842</ele>
        <time>2017-12-01T15:11:16Z</time>
      </trkpt>
      <trkpt lat="45.89021" lon="6.45524">
        <ele>1842</ele>
        <time>2017-12-01T15:11:17Z</time>
      </trkpt>
      <trkpt lat="45.8902" lon="6.45525">
        <ele>1842</ele>
        <time>2017-12-01T15:11:18Z</time>
      </trkpt>
      <trkpt lat="45.89018" lon="6.45529">
        <ele>1842</ele>
        <time>2017-12-01T15:11:23Z</time>
      </trkpt>
      <trkpt lat="45.8902" lon="6.45552">
        <ele>1844</ele>
        <time>2017-12-01T15:11:40Z</time>
      </trkpt>
      <trkpt lat="45.89021" lon="6.45556">
        <ele>1845</ele>
        <time>2017-12-01T15:11:43Z</time>
      </trkpt>
      <trkpt lat="45.89021" lon="6.45558">
        <ele>1845</ele>
        <time>2017-12-01T15:11:44Z</time>
      </trkpt>
      <trkpt lat="45.89022" lon="6.45559">
        <ele>1845</ele>
        <time>2017-12-01T15:11:45Z</time>
      </trkpt>
      <trkpt lat="45.89022" lon="6.45561">
        <ele>1845</ele>
        <time>2017-12-01T15:11:46Z</time>
      </trkpt>
      <trkpt lat="45.89022" lon="6.45562">
        <ele>1845</ele>
        <time>2017-12-01T15:11:47Z</time>
      </trkpt>
      <trkpt lat="45.89022" lon="6.45564">
        <ele>1845</ele>
        <time>2017-12-01T15:11:48Z</time>
      </trkpt>
      <trkpt lat="45.89022" lon="6.45565">
        <ele>1845</ele>
        <time>2017-12-01T15:11:49Z</time>
      </trkpt>
      <trkpt lat="45.89021" lon="6.45567">
        <ele>1845</ele>
        <time>2017-12-01T15:11:50Z</time>
      </trkpt>
      <trkpt lat="45.8902" lon="6.45573">
        <ele>1845</ele>
        <time>2017-12-01T15:11:54Z</time>
      </trkpt>
      <trkpt lat="45.89023" lon="6.45591">
        <ele>1852</ele>
        <time>2017-12-01T15:12:07Z</time>
      </trkpt>
      <trkpt lat="45.89024" lon="6.45609">
        <ele>1854</ele>
        <time>2017-12-01T15:12:21Z</time>
      </trkpt>
      <trkpt lat="45.89026" lon="6.45624">
        <ele>1856</ele>
        <time>2017-12-01T15:12:33Z</time>
      </trkpt>
      <trkpt lat="45.89028" lon="6.45639">
        <ele>1857</ele>
        <time>2017-12-01T15:12:45Z</time>
      </trkpt>
      <trkpt lat="45.89029" lon="6.45643">
        <ele>1857</ele>
        <time>2017-12-01T15:12:49Z</time>
      </trkpt>
      <trkpt lat="45.8903" lon="6.45656">
        <ele>1858</ele>
        <time>2017-12-01T15:13:00Z</time>
      </trkpt>
      <trkpt lat="45.89031" lon="6.45668">
        <ele>1865</ele>
        <time>2017-12-01T15:13:11Z</time>
      </trkpt>
      <trkpt lat="45.89035" lon="6.45683">
        <ele>1867</ele>
        <time>2017-12-01T15:13:24Z</time>
      </trkpt>
      <trkpt lat="45.89035" lon="6.45694">
        <ele>1868</ele>
        <time>2017-12-01T15:13:34Z</time>
      </trkpt>
      <trkpt lat="45.89035" lon="6.45708">
        <ele>1869</ele>
        <time>2017-12-01T15:13:46Z</time>
      </trkpt>
      <trkpt lat="45.89037" lon="6.4572">
        <ele>1871</ele>
        <time>2017-12-01T15:13:58Z</time>
      </trkpt>
      <trkpt lat="45.89039" lon="6.45732">
        <ele>1872</ele>
        <time>2017-12-01T15:14:10Z</time>
      </trkpt>
      <trkpt lat="45.8904" lon="6.45737">
        <ele>1872</ele>
        <time>2017-12-01T15:14:15Z</time>
      </trkpt>
      <trkpt lat="45.8904" lon="6.4574">
        <ele>1872</ele>
        <time>2017-12-01T15:14:18Z</time>
      </trkpt>
      <trkpt lat="45.89042" lon="6.45755">
        <ele>1881</ele>
        <time>2017-12-01T15:14:33Z</time>
      </trkpt>
      <trkpt lat="45.89047" lon="6.45767">
        <ele>1882</ele>
        <time>2017-12-01T15:14:46Z</time>
      </trkpt>
      <trkpt lat="45.89052" lon="6.45786">
        <ele>1884</ele>
        <time>2017-12-01T15:15:05Z</time>
      </trkpt>
      <trkpt lat="45.89052" lon="6.45791">
        <ele>1884</ele>
        <time>2017-12-01T15:15:10Z</time>
      </trkpt>
      <trkpt lat="45.89057" lon="6.45818">
        <ele>1888</ele>
        <time>2017-12-01T15:15:37Z</time>
      </trkpt>
      <trkpt lat="45.89067" lon="6.45844">
        <ele>1897</ele>
        <time>2017-12-01T15:16:03Z</time>
      </trkpt>
      <trkpt lat="45.89069" lon="6.45847">
        <ele>1897</ele>
        <time>2017-12-01T15:16:07Z</time>
      </trkpt>
      <trkpt lat="45.89066" lon="6.45892">
        <ele>1899</ele>
        <time>2017-12-01T15:16:42Z</time>
      </trkpt>
      <trkpt lat="45.89059" lon="6.45925">
        <ele>1907</ele>
        <time>2017-12-01T15:17:06Z</time>
      </trkpt>
      <trkpt lat="45.89058" lon="6.45934">
        <ele>1908</ele>
        <time>2017-12-01T15:17:12Z</time>
      </trkpt>
      <trkpt lat="45.89055" lon="6.45958">
        <ele>1909</ele>
        <time>2017-12-01T15:17:27Z</time>
      </trkpt>
      <trkpt lat="45.89054" lon="6.45964">
        <ele>1910</ele>
        <time>2017-12-01T15:17:31Z</time>
      </trkpt>
      <trkpt lat="45.89054" lon="6.45966">
        <ele>1910</ele>
        <time>2017-12-01T15:17:32Z</time>
      </trkpt>
      <trkpt lat="45.89053" lon="6.45971">
        <ele>1910</ele>
        <time>2017-12-01T15:17:35Z</time>
      </trkpt>
      <trkpt lat="45.89052" lon="6.45973">
        <ele>1910</ele>
        <time>2017-12-01T15:17:37Z</time>
      </trkpt>
      <trkpt lat="45.89051" lon="6.45978">
        <ele>1911</ele>
        <time>2017-12-01T15:17:42Z</time>
      </trkpt>
      <trkpt lat="45.89049" lon="6.45981">
        <ele>1911</ele>
        <time>2017-12-01T15:17:44Z</time>
      </trkpt>
      <trkpt lat="45.89049" lon="6.45982">
        <ele>1911</ele>
        <time>2017-12-01T15:17:45Z</time>
      </trkpt>
      <trkpt lat="45.89043" lon="6.46003">
        <ele>1925</ele>
        <time>2017-12-01T15:18:02Z</time>
      </trkpt>
      <trkpt lat="45.89042" lon="6.46009">
        <ele>1925</ele>
        <time>2017-12-01T15:18:09Z</time>
      </trkpt>
      <trkpt lat="45.89044" lon="6.46019">
        <ele>1926</ele>
        <time>2017-12-01T15:18:19Z</time>
      </trkpt>
      <trkpt lat="45.89044" lon="6.46028">
        <ele>1927</ele>
        <time>2017-12-01T15:18:29Z</time>
      </trkpt>
      <trkpt lat="45.89044" lon="6.46036">
        <ele>1928</ele>
        <time>2017-12-01T15:18:38Z</time>
      </trkpt>
      <trkpt lat="45.89041" lon="6.46041">
        <ele>1929</ele>
        <time>2017-12-01T15:18:44Z</time>
      </trkpt>
      <trkpt lat="45.89032" lon="6.46047">
        <ele>1930</ele>
        <time>2017-12-01T15:18:58Z</time>
      </trkpt>
      <trkpt lat="45.89024" lon="6.46052">
        <ele>1931</ele>
        <time>2017-12-01T15:19:12Z</time>
      </trkpt>
      <trkpt lat="45.89021" lon="6.46059">
        <ele>1933</ele>
        <time>2017-12-01T15:19:26Z</time>
      </trkpt>
      <trkpt lat="45.89023" lon="6.46062">
        <ele>1933</ele>
        <time>2017-12-01T15:19:30Z</time>
      </trkpt>
      <trkpt lat="45.89025" lon="6.46063">
        <ele>1933</ele>
        <time>2017-12-01T15:19:32Z</time>
      </trkpt>
      <trkpt lat="45.89028" lon="6.46071">
        <ele>1934</ele>
        <time>2017-12-01T15:19:42Z</time>
      </trkpt>
      <trkpt lat="45.89031" lon="6.46079">
        <ele>1934</ele>
        <time>2017-12-01T15:19:51Z</time>
      </trkpt>
      <trkpt lat="45.89033" lon="6.46082">
        <ele>1934</ele>
        <time>2017-12-01T15:19:55Z</time>
      </trkpt>
      <trkpt lat="45.89034" lon="6.46083">
        <ele>1934</ele>
        <time>2017-12-01T15:19:56Z</time>
      </trkpt>
      <trkpt lat="45.89034" lon="6.46084">
        <ele>1950</ele>
        <time>2017-12-01T15:19:57Z</time>
      </trkpt>
      <trkpt lat="45.89041" lon="6.46095">
        <ele>1951</ele>
        <time>2017-12-01T15:20:10Z</time>
      </trkpt>
      <trkpt lat="45.89047" lon="6.46102">
        <ele>1952</ele>
        <time>2017-12-01T15:20:21Z</time>
      </trkpt>
      <trkpt lat="45.89047" lon="6.46102">
        <ele>1952</ele>
        <time>2017-12-01T15:20:22Z</time>
      </trkpt>
      <trkpt lat="45.89048" lon="6.46103">
        <ele>1952</ele>
        <time>2017-12-01T15:20:23Z</time>
      </trkpt>
      <trkpt lat="45.89049" lon="6.46104">
        <ele>1952</ele>
        <time>2017-12-01T15:20:26Z</time>
      </trkpt>
      <trkpt lat="45.89052" lon="6.46106">
        <ele>1952</ele>
        <time>2017-12-01T15:20:31Z</time>
      </trkpt>
      <trkpt lat="45.89051" lon="6.46113">
        <ele>1954</ele>
        <time>2017-12-01T15:20:43Z</time>
      </trkpt>
      <trkpt lat="45.89046" lon="6.4612">
        <ele>1955</ele>
        <time>2017-12-01T15:20:51Z</time>
      </trkpt>
      <trkpt lat="45.89043" lon="6.46123">
        <ele>1956</ele>
        <time>2017-12-01T15:20:56Z</time>
      </trkpt>
      <trkpt lat="45.8904" lon="6.46124">
        <ele>1956</ele>
        <time>2017-12-01T15:21:00Z</time>
      </trkpt>
      <trkpt lat="45.89035" lon="6.46123">
        <ele>1956</ele>
        <time>2017-12-01T15:21:08Z</time>
      </trkpt>
      <trkpt lat="45.89034" lon="6.46123">
        <ele>1956</ele>
        <time>2017-12-01T15:21:09Z</time>
      </trkpt>
      <trkpt lat="45.89027" lon="6.46124">
        <ele>1956</ele>
        <time>2017-12-01T15:21:17Z</time>
      </trkpt>
      <trkpt lat="45.89018" lon="6.46131">
        <ele>1958</ele>
        <time>2017-12-01T15:21:30Z</time>
      </trkpt>
      <trkpt lat="45.89007" lon="6.46136">
        <ele>1959</ele>
        <time>2017-12-01T15:21:46Z</time>
      </trkpt>
      <trkpt lat="45.88997" lon="6.46141">
        <ele>1966</ele>
        <time>2017-12-01T15:21:58Z</time>
      </trkpt>
      <trkpt lat="45.88987" lon="6.46146">
        <ele>1968</ele>
        <time>2017-12-01T15:22:14Z</time>
      </trkpt>
      <trkpt lat="45.88979" lon="6.4615">
        <ele>1968</ele>
        <time>2017-12-01T15:22:26Z</time>
      </trkpt>
      <trkpt lat="45.88978" lon="6.4615">
        <ele>1968</ele>
        <time>2017-12-01T15:22:27Z</time>
      </trkpt>
      <trkpt lat="45.88976" lon="6.46151">
        <ele>1968</ele>
        <time>2017-12-01T15:22:29Z</time>
      </trkpt>
      <trkpt lat="45.88965" lon="6.46155">
        <ele>1969</ele>
        <time>2017-12-01T15:22:44Z</time>
      </trkpt>
      <trkpt lat="45.88952" lon="6.46159">
        <ele>1972</ele>
        <time>2017-12-01T15:23:02Z</time>
      </trkpt>
      <trkpt lat="45.88938" lon="6.46163">
        <ele>1975</ele>
        <time>2017-12-01T15:23:25Z</time>
      </trkpt>
      <trkpt lat="45.88943" lon="6.4617">
        <ele>1989</ele>
        <time>2017-12-01T15:23:38Z</time>
      </trkpt>
      <trkpt lat="45.88943" lon="6.46171">
        <ele>1989</ele>
        <time>2017-12-01T15:23:39Z</time>
      </trkpt>
      <trkpt lat="45.88965" lon="6.46195">
        <ele>1989</ele>
        <time>2017-12-01T15:24:12Z</time>
      </trkpt>
      <trkpt lat="45.88975" lon="6.46207">
        <ele>1990</ele>
        <time>2017-12-01T15:24:29Z</time>
      </trkpt>
      <trkpt lat="45.88983" lon="6.46215">
        <ele>1991</ele>
        <time>2017-12-01T15:24:41Z</time>
      </trkpt>
      <trkpt lat="45.89003" lon="6.4624">
        <ele>1993</ele>
        <time>2017-12-01T15:25:11Z</time>
      </trkpt>
      <trkpt lat="45.89021" lon="6.46265">
        <ele>2006</ele>
        <time>2017-12-01T15:25:43Z</time>
      </trkpt>
      <trkpt lat="45.89028" lon="6.46275">
        <ele>2008</ele>
        <time>2017-12-01T15:25:57Z</time>
      </trkpt>
      <trkpt lat="45.89037" lon="6.4629">
        <ele>2010</ele>
        <time>2017-12-01T15:26:13Z</time>
      </trkpt>
      <trkpt lat="45.89042" lon="6.46297">
        <ele>2011</ele>
        <time>2017-12-01T15:26:24Z</time>
      </trkpt>
      <trkpt lat="45.89044" lon="6.46299">
        <ele>2011</ele>
        <time>2017-12-01T15:26:26Z</time>
      </trkpt>
      <trkpt lat="45.89046" lon="6.46301">
        <ele>2011</ele>
        <time>2017-12-01T15:26:30Z</time>
      </trkpt>
      <trkpt lat="45.89047" lon="6.46301">
        <ele>2011</ele>
        <time>2017-12-01T15:26:31Z</time>
      </trkpt>
      <trkpt lat="45.89057" lon="6.46319">
        <ele>2013</ele>
        <time>2017-12-01T15:26:53Z</time>
      </trkpt>
      <trkpt lat="45.89055" lon="6.46328">
        <ele>2014</ele>
        <time>2017-12-01T15:27:02Z</time>
      </trkpt>
      <trkpt lat="45.89038" lon="6.46352">
        <ele>2028</ele>
        <time>2017-12-01T15:27:35Z</time>
      </trkpt>
      <trkpt lat="45.89034" lon="6.46355">
        <ele>2029</ele>
        <time>2017-12-01T15:27:40Z</time>
      </trkpt>
      <trkpt lat="45.89023" lon="6.46362">
        <ele>2030</ele>
        <time>2017-12-01T15:27:58Z</time>
      </trkpt>
      <trkpt lat="45.89018" lon="6.46363">
        <ele>2030</ele>
        <time>2017-12-01T15:28:04Z</time>
      </trkpt>
      <trkpt lat="45.89001" lon="6.46369">
        <ele>2032</ele>
        <time>2017-12-01T15:28:27Z</time>
      </trkpt>
      <trkpt lat="45.88989" lon="6.46379">
        <ele>2042</ele>
        <time>2017-12-01T15:28:47Z</time>
      </trkpt>
      <trkpt lat="45.88981" lon="6.46388">
        <ele>2044</ele>
        <time>2017-12-01T15:29:03Z</time>
      </trkpt>
      <trkpt lat="45.88981" lon="6.46391">
        <ele>2044</ele>
        <time>2017-12-01T15:29:07Z</time>
      </trkpt>
      <trkpt lat="45.88983" lon="6.46393">
        <ele>2045</ele>
        <time>2017-12-01T15:29:12Z</time>
      </trkpt>
      <trkpt lat="45.88984" lon="6.46395">
        <ele>2045</ele>
        <time>2017-12-01T15:29:14Z</time>
      </trkpt>
      <trkpt lat="45.88994" lon="6.46408">
        <ele>2048</ele>
        <time>2017-12-01T15:29:32Z</time>
      </trkpt>
      <trkpt lat="45.89001" lon="6.46418">
        <ele>2050</ele>
        <time>2017-12-01T15:29:44Z</time>
      </trkpt>
      <trkpt lat="45.89014" lon="6.46433">
        <ele>2051</ele>
        <time>2017-12-01T15:30:06Z</time>
      </trkpt>
      <trkpt lat="45.89026" lon="6.46445">
        <ele>2051</ele>
        <time>2017-12-01T15:30:22Z</time>
      </trkpt>
      <trkpt lat="45.89026" lon="6.46446">
        <ele>2051</ele>
        <time>2017-12-01T15:30:23Z</time>
      </trkpt>
      <trkpt lat="45.8903" lon="6.46452">
        <ele>2052</ele>
        <time>2017-12-01T15:30:30Z</time>
      </trkpt>
      <trkpt lat="45.89034" lon="6.46455">
        <ele>2052</ele>
        <time>2017-12-01T15:30:36Z</time>
      </trkpt>
      <trkpt lat="45.89042" lon="6.46466">
        <ele>2052</ele>
        <time>2017-12-01T15:30:51Z</time>
      </trkpt>
      <trkpt lat="45.89047" lon="6.46475">
        <ele>2052</ele>
        <time>2017-12-01T15:31:03Z</time>
      </trkpt>
      <trkpt lat="45.89051" lon="6.46483">
        <ele>2052</ele>
        <time>2017-12-01T15:31:12Z</time>
      </trkpt>
      <trkpt lat="45.89053" lon="6.46491">
        <ele>2052</ele>
        <time>2017-12-01T15:31:26Z</time>
      </trkpt>
      <trkpt lat="45.89048" lon="6.46492">
        <ele>2053</ele>
        <time>2017-12-01T15:31:33Z</time>
      </trkpt>
      <trkpt lat="45.89041" lon="6.46494">
        <ele>2055</ele>
        <time>2017-12-01T15:31:40Z</time>
      </trkpt>
      <trkpt lat="45.89032" lon="6.46497">
        <ele>2058</ele>
        <time>2017-12-01T15:31:51Z</time>
      </trkpt>
      <trkpt lat="45.89021" lon="6.46502">
        <ele>2077</ele>
        <time>2017-12-01T15:32:10Z</time>
      </trkpt>
      <trkpt lat="45.89012" lon="6.46508">
        <ele>2078</ele>
        <time>2017-12-01T15:32:24Z</time>
      </trkpt>
      <trkpt lat="45.89014" lon="6.46511">
        <ele>2078</ele>
        <time>2017-12-01T15:32:28Z</time>
      </trkpt>
      <trkpt lat="45.89016" lon="6.46513">
        <ele>2078</ele>
        <time>2017-12-01T15:32:31Z</time>
      </trkpt>
      <trkpt lat="45.89028" lon="6.46524">
        <ele>2077</ele>
        <time>2017-12-01T15:32:51Z</time>
      </trkpt>
      <trkpt lat="45.89029" lon="6.46525">
        <ele>2077</ele>
        <time>2017-12-01T15:32:53Z</time>
      </trkpt>
      <trkpt lat="45.89033" lon="6.4653">
        <ele>2078</ele>
        <time>2017-12-01T15:33:00Z</time>
      </trkpt>
      <trkpt lat="45.89034" lon="6.46531">
        <ele>2078</ele>
        <time>2017-12-01T15:33:02Z</time>
      </trkpt>
      <trkpt lat="45.89035" lon="6.46532">
        <ele>2078</ele>
        <time>2017-12-01T15:33:03Z</time>
      </trkpt>
      <trkpt lat="45.89037" lon="6.46535">
        <ele>2078</ele>
        <time>2017-12-01T15:33:07Z</time>
      </trkpt>
      <trkpt lat="45.89044" lon="6.46544">
        <ele>2078</ele>
        <time>2017-12-01T15:33:20Z</time>
      </trkpt>
      <trkpt lat="45.89049" lon="6.46553">
        <ele>2079</ele>
        <time>2017-12-01T15:33:31Z</time>
      </trkpt>
      <trkpt lat="45.8905" lon="6.46555">
        <ele>2079</ele>
        <time>2017-12-01T15:33:33Z</time>
      </trkpt>
      <trkpt lat="45.89052" lon="6.46561">
        <ele>2080</ele>
        <time>2017-12-01T15:33:41Z</time>
      </trkpt>
      <trkpt lat="45.8905" lon="6.46565">
        <ele>2081</ele>
        <time>2017-12-01T15:33:47Z</time>
      </trkpt>
      <trkpt lat="45.89047" lon="6.46565">
        <ele>2081</ele>
        <time>2017-12-01T15:33:51Z</time>
      </trkpt>
      <trkpt lat="45.89042" lon="6.46566">
        <ele>2082</ele>
        <time>2017-12-01T15:33:58Z</time>
      </trkpt>
      <trkpt lat="45.89036" lon="6.4657">
        <ele>2084</ele>
        <time>2017-12-01T15:34:08Z</time>
      </trkpt>
      <trkpt lat="45.89034" lon="6.4657">
        <ele>2085</ele>
        <time>2017-12-01T15:34:11Z</time>
      </trkpt>
      <trkpt lat="45.89021" lon="6.46576">
        <ele>2090</ele>
        <time>2017-12-01T15:34:28Z</time>
      </trkpt>
      <trkpt lat="45.89013" lon="6.46584">
        <ele>2107</ele>
        <time>2017-12-01T15:34:55Z</time>
      </trkpt>
      <trkpt lat="45.89016" lon="6.46587">
        <ele>2107</ele>
        <time>2017-12-01T15:34:59Z</time>
      </trkpt>
      <trkpt lat="45.89016" lon="6.46587">
        <ele>2107</ele>
        <time>2017-12-01T15:35:00Z</time>
      </trkpt>
      <trkpt lat="45.89017" lon="6.46588">
        <ele>2107</ele>
        <time>2017-12-01T15:35:01Z</time>
      </trkpt>
      <trkpt lat="45.89025" lon="6.466">
        <ele>2108</ele>
        <time>2017-12-01T15:35:13Z</time>
      </trkpt>
      <trkpt lat="45.89026" lon="6.466">
        <ele>2108</ele>
        <time>2017-12-01T15:35:14Z</time>
      </trkpt>
      <trkpt lat="45.89038" lon="6.46616">
        <ele>2108</ele>
        <time>2017-12-01T15:35:34Z</time>
      </trkpt>
      <trkpt lat="45.89044" lon="6.46629">
        <ele>2109</ele>
        <time>2017-12-01T15:35:48Z</time>
      </trkpt>
      <trkpt lat="45.89049" lon="6.46636">
        <ele>2110</ele>
        <time>2017-12-01T15:35:56Z</time>
      </trkpt>
      <trkpt lat="45.8905" lon="6.4664">
        <ele>2110</ele>
        <time>2017-12-01T15:36:00Z</time>
      </trkpt>
      <trkpt lat="45.89047" lon="6.46644">
        <ele>2111</ele>
        <time>2017-12-01T15:36:11Z</time>
      </trkpt>
      <trkpt lat="45.89039" lon="6.46644">
        <ele>2113</ele>
        <time>2017-12-01T15:36:23Z</time>
      </trkpt>
      <trkpt lat="45.89032" lon="6.46645">
        <ele>2115</ele>
        <time>2017-12-01T15:36:33Z</time>
      </trkpt>
      <trkpt lat="45.89022" lon="6.46649">
        <ele>2118</ele>
        <time>2017-12-01T15:36:48Z</time>
      </trkpt>
      <trkpt lat="45.89007" lon="6.46657">
        <ele>2128</ele>
        <time>2017-12-01T15:37:08Z</time>
      </trkpt>
      <trkpt lat="45.8901" lon="6.46663">
        <ele>2129</ele>
        <time>2017-12-01T15:37:19Z</time>
      </trkpt>
      <trkpt lat="45.89016" lon="6.46673">
        <ele>2138</ele>
        <time>2017-12-01T15:37:30Z</time>
      </trkpt>
      <trkpt lat="45.89019" lon="6.46678">
        <ele>2138</ele>
        <time>2017-12-01T15:37:37Z</time>
      </trkpt>
      <trkpt lat="45.8902" lon="6.46679">
        <ele>2138</ele>
        <time>2017-12-01T15:37:39Z</time>
      </trkpt>
      <trkpt lat="45.89026" lon="6.4669">
        <ele>2138</ele>
        <time>2017-12-01T15:37:57Z</time>
      </trkpt>
      <trkpt lat="45.89022" lon="6.4669">
        <ele>2138</ele>
        <time>2017-12-01T15:38:02Z</time>
      </trkpt>
      <trkpt lat="45.8901" lon="6.46691">
        <ele>2140</ele>
        <time>2017-12-01T15:38:16Z</time>
      </trkpt>
      <trkpt lat="45.88966" lon="6.467">
        <ele>2157</ele>
        <time>2017-12-01T15:39:18Z</time>
      </trkpt>
      <trkpt lat="45.88955" lon="6.46705">
        <ele>2159</ele>
        <time>2017-12-01T15:39:38Z</time>
      </trkpt>
      <trkpt lat="45.88957" lon="6.46709">
        <ele>2159</ele>
        <time>2017-12-01T15:39:43Z</time>
      </trkpt>
      <trkpt lat="45.8896" lon="6.46713">
        <ele>2160</ele>
        <time>2017-12-01T15:39:48Z</time>
      </trkpt>
      <trkpt lat="45.88955" lon="6.46721">
        <ele>2161</ele>
        <time>2017-12-01T15:40:06Z</time>
      </trkpt>
      <trkpt lat="45.88944" lon="6.46725">
        <ele>2163</ele>
        <time>2017-12-01T15:40:22Z</time>
      </trkpt>
      <trkpt lat="45.88943" lon="6.46726">
        <ele>2163</ele>
        <time>2017-12-01T15:40:23Z</time>
      </trkpt>
      <trkpt lat="45.88941" lon="6.46731">
        <ele>2165</ele>
        <time>2017-12-01T15:40:33Z</time>
      </trkpt>
      <trkpt lat="45.88942" lon="6.46733">
        <ele>2165</ele>
        <time>2017-12-01T15:40:36Z</time>
      </trkpt>
      <trkpt lat="45.88943" lon="6.46735">
        <ele>2165</ele>
        <time>2017-12-01T15:40:38Z</time>
      </trkpt>
      <trkpt lat="45.88944" lon="6.46737">
        <ele>2165</ele>
        <time>2017-12-01T15:40:40Z</time>
      </trkpt>
      <trkpt lat="45.88944" lon="6.46738">
        <ele>2165</ele>
        <time>2017-12-01T15:40:41Z</time>
      </trkpt>
      <trkpt lat="45.88951" lon="6.46747">
        <ele>2165</ele>
        <time>2017-12-01T15:40:54Z</time>
      </trkpt>
      <trkpt lat="45.88953" lon="6.4675">
        <ele>2181</ele>
        <time>2017-12-01T15:40:59Z</time>
      </trkpt>
      <trkpt lat="45.88956" lon="6.46755">
        <ele>2181</ele>
        <time>2017-12-01T15:41:04Z</time>
      </trkpt>
      <trkpt lat="45.8896" lon="6.46762">
        <ele>2181</ele>
        <time>2017-12-01T15:41:13Z</time>
      </trkpt>
      <trkpt lat="45.88962" lon="6.46764">
        <ele>2182</ele>
        <time>2017-12-01T15:41:16Z</time>
      </trkpt>
      <trkpt lat="45.88962" lon="6.46766">
        <ele>2182</ele>
        <time>2017-12-01T15:41:17Z</time>
      </trkpt>
      <trkpt lat="45.88961" lon="6.46767">
        <ele>2182</ele>
        <time>2017-12-01T15:41:19Z</time>
      </trkpt>
      <trkpt lat="45.88959" lon="6.46769">
        <ele>2182</ele>
        <time>2017-12-01T15:41:22Z</time>
      </trkpt>
      <trkpt lat="45.88955" lon="6.46771">
        <ele>2183</ele>
        <time>2017-12-01T15:41:28Z</time>
      </trkpt>
      <trkpt lat="45.88954" lon="6.46771">
        <ele>2183</ele>
        <time>2017-12-01T15:41:29Z</time>
      </trkpt>
      <trkpt lat="45.88933" lon="6.46793">
        <ele>2187</ele>
        <time>2017-12-01T15:42:04Z</time>
      </trkpt>
      <trkpt lat="45.88936" lon="6.46797">
        <ele>2188</ele>
        <time>2017-12-01T15:42:09Z</time>
      </trkpt>
      <trkpt lat="45.88936" lon="6.46797">
        <ele>2188</ele>
        <time>2017-12-01T15:42:10Z</time>
      </trkpt>
      <trkpt lat="45.88937" lon="6.46799">
        <ele>2188</ele>
        <time>2017-12-01T15:42:11Z</time>
      </trkpt>
      <trkpt lat="45.88956" lon="6.4682">
        <ele>2189</ele>
        <time>2017-12-01T15:42:42Z</time>
      </trkpt>
      <trkpt lat="45.88957" lon="6.46821">
        <ele>2189</ele>
        <time>2017-12-01T15:42:44Z</time>
      </trkpt>
      <trkpt lat="45.88958" lon="6.46821">
        <ele>2189</ele>
        <time>2017-12-01T15:42:45Z</time>
      </trkpt>
      <trkpt lat="45.88955" lon="6.46838">
        <ele>2209</ele>
        <time>2017-12-01T15:43:09Z</time>
      </trkpt>
      <trkpt lat="45.88942" lon="6.4685">
        <ele>2210</ele>
        <time>2017-12-01T15:43:27Z</time>
      </trkpt>
      <trkpt lat="45.88936" lon="6.46859">
        <ele>2211</ele>
        <time>2017-12-01T15:43:40Z</time>
      </trkpt>
      <trkpt lat="45.8894" lon="6.46865">
        <ele>2213</ele>
        <time>2017-12-01T15:43:51Z</time>
      </trkpt>
      <trkpt lat="45.88941" lon="6.46865">
        <ele>2213</ele>
        <time>2017-12-01T15:43:52Z</time>
      </trkpt>
      <trkpt lat="45.88942" lon="6.46866">
        <ele>2213</ele>
        <time>2017-12-01T15:43:53Z</time>
      </trkpt>
      <trkpt lat="45.88945" lon="6.46876">
        <ele>2215</ele>
        <time>2017-12-01T15:44:09Z</time>
      </trkpt>
      <trkpt lat="45.88944" lon="6.46876">
        <ele>2215</ele>
        <time>2017-12-01T15:44:10Z</time>
      </trkpt>
      <trkpt lat="45.8893" lon="6.46886">
        <ele>2219</ele>
        <time>2017-12-01T15:44:31Z</time>
      </trkpt>
      <trkpt lat="45.88928" lon="6.46887">
        <ele>2219</ele>
        <time>2017-12-01T15:44:33Z</time>
      </trkpt>
      <trkpt lat="45.88916" lon="6.46898">
        <ele>2217</ele>
        <time>2017-12-01T15:44:52Z</time>
      </trkpt>
      <trkpt lat="45.88905" lon="6.469">
        <ele>2216</ele>
        <time>2017-12-01T15:45:07Z</time>
      </trkpt>
      <trkpt lat="45.88896" lon="6.46904">
        <ele>2213</ele>
        <time>2017-12-01T15:45:24Z</time>
      </trkpt>
      <trkpt lat="45.88898" lon="6.46907">
        <ele>2215</ele>
        <time>2017-12-01T15:45:27Z</time>
      </trkpt>
      <trkpt lat="45.88899" lon="6.4691">
        <ele>2217</ele>
        <time>2017-12-01T15:45:31Z</time>
      </trkpt>
      <trkpt lat="45.88901" lon="6.46913">
        <ele>2219</ele>
        <time>2017-12-01T15:45:35Z</time>
      </trkpt>
      <trkpt lat="45.88902" lon="6.46915">
        <ele>2220</ele>
        <time>2017-12-01T15:45:37Z</time>
      </trkpt>
      <trkpt lat="45.88903" lon="6.46916">
        <ele>2220</ele>
        <time>2017-12-01T15:45:39Z</time>
      </trkpt>
      <trkpt lat="45.88907" lon="6.46926">
        <ele>2234</ele>
        <time>2017-12-01T15:45:50Z</time>
      </trkpt>
      <trkpt lat="45.88898" lon="6.46932">
        <ele>2234</ele>
        <time>2017-12-01T15:46:06Z</time>
      </trkpt>
      <trkpt lat="45.88889" lon="6.46932">
        <ele>2233</ele>
        <time>2017-12-01T15:46:19Z</time>
      </trkpt>
      <trkpt lat="45.88886" lon="6.46933">
        <ele>2232</ele>
        <time>2017-12-01T15:46:24Z</time>
      </trkpt>
      <trkpt lat="45.88884" lon="6.46935">
        <ele>2232</ele>
        <time>2017-12-01T15:46:32Z</time>
      </trkpt>
      <trkpt lat="45.88885" lon="6.46937">
        <ele>2232</ele>
        <time>2017-12-01T15:46:34Z</time>
      </trkpt>
      <trkpt lat="45.88885" lon="6.46937">
        <ele>2232</ele>
        <time>2017-12-01T15:46:35Z</time>
      </trkpt>
      <trkpt lat="45.88886" lon="6.46939">
        <ele>2233</ele>
        <time>2017-12-01T15:46:37Z</time>
      </trkpt>
      <trkpt lat="45.88887" lon="6.46942">
        <ele>2233</ele>
        <time>2017-12-01T15:46:40Z</time>
      </trkpt>
      <trkpt lat="45.88892" lon="6.46953">
        <ele>2236</ele>
        <time>2017-12-01T15:46:54Z</time>
      </trkpt>
      <trkpt lat="45.88889" lon="6.4696">
        <ele>2237</ele>
        <time>2017-12-01T15:47:07Z</time>
      </trkpt>
      <trkpt lat="45.88878" lon="6.46968">
        <ele>2237</ele>
        <time>2017-12-01T15:47:23Z</time>
      </trkpt>
      <trkpt lat="45.88877" lon="6.46968">
        <ele>2237</ele>
        <time>2017-12-01T15:47:24Z</time>
      </trkpt>
      <trkpt lat="45.88868" lon="6.46995">
        <ele>2241</ele>
        <time>2017-12-01T15:47:45Z</time>
      </trkpt>
      <trkpt lat="45.88867" lon="6.46997">
        <ele>2241</ele>
        <time>2017-12-01T15:47:46Z</time>
      </trkpt>
      <trkpt lat="45.88867" lon="6.46998">
        <ele>2241</ele>
        <time>2017-12-01T15:47:47Z</time>
      </trkpt>
      <trkpt lat="45.88867" lon="6.46999">
        <ele>2241</ele>
        <time>2017-12-01T15:47:48Z</time>
      </trkpt>
      <trkpt lat="45.88863" lon="6.47011">
        <ele>2259</ele>
        <time>2017-12-01T15:48:01Z</time>
      </trkpt>
      <trkpt lat="45.88863" lon="6.47014">
        <ele>2260</ele>
        <time>2017-12-01T15:48:04Z</time>
      </trkpt>
      <trkpt lat="45.88862" lon="6.47016">
        <ele>2260</ele>
        <time>2017-12-01T15:48:06Z</time>
      </trkpt>
      <trkpt lat="45.8886" lon="6.47029">
        <ele>2261</ele>
        <time>2017-12-01T15:48:20Z</time>
      </trkpt>
      <trkpt lat="45.88862" lon="6.4704">
        <ele>2263</ele>
        <time>2017-12-01T15:48:31Z</time>
      </trkpt>
      <trkpt lat="45.88863" lon="6.47043">
        <ele>2263</ele>
        <time>2017-12-01T15:48:33Z</time>
      </trkpt>
      <trkpt lat="45.88865" lon="6.47054">
        <ele>2265</ele>
        <time>2017-12-01T15:48:45Z</time>
      </trkpt>
      <trkpt lat="45.88865" lon="6.47062">
        <ele>2266</ele>
        <time>2017-12-01T15:48:54Z</time>
      </trkpt>
      <trkpt lat="45.88865" lon="6.47067">
        <ele>2266</ele>
        <time>2017-12-01T15:49:00Z</time>
      </trkpt>
      <trkpt lat="45.88865" lon="6.47074">
        <ele>2266</ele>
        <time>2017-12-01T15:49:08Z</time>
      </trkpt>
      <trkpt lat="45.88866" lon="6.47085">
        <ele>2280</ele>
        <time>2017-12-01T15:49:21Z</time>
      </trkpt>
      <trkpt lat="45.88868" lon="6.47096">
        <ele>2281</ele>
        <time>2017-12-01T15:49:35Z</time>
      </trkpt>
      <trkpt lat="45.88869" lon="6.47106">
        <ele>2283</ele>
        <time>2017-12-01T15:49:48Z</time>
      </trkpt>
      <trkpt lat="45.88869" lon="6.47108">
        <ele>2283</ele>
        <time>2017-12-01T15:49:50Z</time>
      </trkpt>
      <trkpt lat="45.8887" lon="6.47113">
        <ele>2284</ele>
        <time>2017-12-01T15:49:56Z</time>
      </trkpt>
      <trkpt lat="45.8887" lon="6.47126">
        <ele>2286</ele>
        <time>2017-12-01T15:50:11Z</time>
      </trkpt>
      <trkpt lat="45.88872" lon="6.47135">
        <ele>2287</ele>
        <time>2017-12-01T15:50:23Z</time>
      </trkpt>
      <trkpt lat="45.88873" lon="6.47145">
        <ele>2288</ele>
        <time>2017-12-01T15:50:35Z</time>
      </trkpt>
      <trkpt lat="45.88874" lon="6.47151">
        <ele>2289</ele>
        <time>2017-12-01T15:50:48Z</time>
      </trkpt>
      <trkpt lat="45.88878" lon="6.47149">
        <ele>2290</ele>
        <time>2017-12-01T15:50:55Z</time>
      </trkpt>
      <trkpt lat="45.88891" lon="6.4714">
        <ele>2291</ele>
        <time>2017-12-01T15:51:12Z</time>
      </trkpt>
      <trkpt lat="45.88893" lon="6.47138">
        <ele>2291</ele>
        <time>2017-12-01T15:51:16Z</time>
      </trkpt>
      <trkpt lat="45.88898" lon="6.47131">
        <ele>2291</ele>
        <time>2017-12-01T15:51:26Z</time>
      </trkpt>
      <trkpt lat="45.889" lon="6.47128">
        <ele>2290</ele>
        <time>2017-12-01T15:51:30Z</time>
      </trkpt>
      <trkpt lat="45.88907" lon="6.4712">
        <ele>2290</ele>
        <time>2017-12-01T15:51:44Z</time>
      </trkpt>
      <trkpt lat="45.88912" lon="6.47112">
        <ele>2290</ele>
        <time>2017-12-01T15:51:57Z</time>
      </trkpt>
      <trkpt lat="45.88917" lon="6.47106">
        <ele>2291</ele>
        <time>2017-12-01T15:52:10Z</time>
      </trkpt>
      <trkpt lat="45.88924" lon="6.47103">
        <ele>2291</ele>
        <time>2017-12-01T15:52:23Z</time>
      </trkpt>
      <trkpt lat="45.88937" lon="6.47106">
        <ele>2290</ele>
        <time>2017-12-01T15:53:06Z</time>
      </trkpt>
      <trkpt lat="45.88939" lon="6.47105">
        <ele>2290</ele>
        <time>2017-12-01T15:53:08Z</time>
      </trkpt>
      <trkpt lat="45.88962" lon="6.47099">
        <ele>2288</ele>
        <time>2017-12-01T15:53:33Z</time>
      </trkpt>
      <trkpt lat="45.88963" lon="6.47098">
        <ele>2287</ele>
        <time>2017-12-01T15:53:34Z</time>
      </trkpt>
      <trkpt lat="45.88965" lon="6.47098">
        <ele>2287</ele>
        <time>2017-12-01T15:53:35Z</time>
      </trkpt>
      <trkpt lat="45.88966" lon="6.47097">
        <ele>2287</ele>
        <time>2017-12-01T15:53:36Z</time>
      </trkpt>
      <trkpt lat="45.88973" lon="6.47095">
        <ele>2286</ele>
        <time>2017-12-01T15:53:48Z</time>
      </trkpt>
      <trkpt lat="45.88975" lon="6.47094">
        <ele>2286</ele>
        <time>2017-12-01T15:53:49Z</time>
      </trkpt>
      <trkpt lat="45.88976" lon="6.47094">
        <ele>2286</ele>
        <time>2017-12-01T15:53:50Z</time>
      </trkpt>
      <trkpt lat="45.88977" lon="6.47094">
        <ele>2285</ele>
        <time>2017-12-01T15:53:51Z</time>
      </trkpt>
      <trkpt lat="45.88979" lon="6.47093">
        <ele>2285</ele>
        <time>2017-12-01T15:53:52Z</time>
      </trkpt>
      <trkpt lat="45.8898" lon="6.47093">
        <ele>2285</ele>
        <time>2017-12-01T15:53:53Z</time>
      </trkpt>
      <trkpt lat="45.8898" lon="6.47093">
        <ele>2285</ele>
        <time>2017-12-01T15:53:54Z</time>
      </trkpt>
      <trkpt lat="45.88983" lon="6.47093">
        <ele>2285</ele>
        <time>2017-12-01T15:54:34Z</time>
      </trkpt>
      <trkpt lat="45.88982" lon="6.47093">
        <ele>2285</ele>
        <time>2017-12-01T15:55:07Z</time>
      </trkpt>
      <trkpt lat="45.88983" lon="6.47093">
        <ele>2285</ele>
        <time>2017-12-01T15:55:33Z</time>
      </trkpt>
      <trkpt lat="45.88982" lon="6.47091">
        <ele>2285</ele>
        <time>2017-12-01T15:55:59Z</time>
      </trkpt>
      <trkpt lat="45.88981" lon="6.47093">
        <ele>2285</ele>
        <time>2017-12-01T15:57:04Z</time>
      </trkpt>
      <trkpt lat="45.88981" lon="6.47092">
        <ele>2285</ele>
        <time>2017-12-01T15:57:33Z</time>
      </trkpt>
      <trkpt lat="45.88981" lon="6.47092">
        <ele>2285</ele>
        <time>2017-12-01T15:58:02Z</time>
      </trkpt>
      <trkpt lat="45.88981" lon="6.47092">
        <ele>2285</ele>
        <time>2017-12-01T15:58:17Z</time>
      </trkpt>
      <trkpt lat="45.88981" lon="6.47093">
        <ele>2285</ele>
        <time>2017-12-01T15:58:43Z</time>
      </trkpt>
      <trkpt lat="45.88981" lon="6.47092">
        <ele>2285</ele>
        <time>2017-12-01T15:59:08Z</time>
      </trkpt>
      <trkpt lat="45.88981" lon="6.47092">
        <ele>2285</ele>
        <time>2017-12-01T15:59:22Z</time>
      </trkpt>
      <trkpt lat="45.88981" lon="6.47092">
        <ele>2285</ele>
        <time>2017-12-01T15:59:24Z</time>
      </trkpt>
      <trkpt lat="45.88982" lon="6.47091">
        <ele>2285</ele>
        <time>2017-12-01T15:59:36Z</time>
      </trkpt>
      <trkpt lat="45.88982" lon="6.47091">
        <ele>2285</ele>
        <time>2017-12-01T15:59:38Z</time>
      </trkpt>
      <trkpt lat="45.88978" lon="6.47093">
        <ele>2285</ele>
        <time>2017-12-01T16:00:12Z</time>
      </trkpt>
      <trkpt lat="45.8897" lon="6.47096">
        <ele>2287</ele>
        <time>2017-12-01T16:00:26Z</time>
      </trkpt>
      <trkpt lat="45.88965" lon="6.47097">
        <ele>2287</ele>
        <time>2017-12-01T16:00:33Z</time>
      </trkpt>
      <trkpt lat="45.88959" lon="6.47099">
        <ele>2288</ele>
        <time>2017-12-01T16:00:39Z</time>
      </trkpt>
      <trkpt lat="45.88957" lon="6.471">
        <ele>2288</ele>
        <time>2017-12-01T16:00:42Z</time>
      </trkpt>
      <trkpt lat="45.88956" lon="6.471">
        <ele>2288</ele>
        <time>2017-12-01T16:00:43Z</time>
      </trkpt>
      <trkpt lat="45.88954" lon="6.47101">
        <ele>2289</ele>
        <time>2017-12-01T16:00:44Z</time>
      </trkpt>
      <trkpt lat="45.88949" lon="6.47102">
        <ele>2289</ele>
        <time>2017-12-01T16:00:49Z</time>
      </trkpt>
      <trkpt lat="45.88949" lon="6.47101">
        <ele>2289</ele>
        <time>2017-12-01T16:00:50Z</time>
      </trkpt>
      <trkpt lat="45.88949" lon="6.47099">
        <ele>2289</ele>
        <time>2017-12-01T16:00:51Z</time>
      </trkpt>
      <trkpt lat="45.8895" lon="6.47096">
        <ele>2289</ele>
        <time>2017-12-01T16:00:52Z</time>
      </trkpt>
      <trkpt lat="45.8895" lon="6.47094">
        <ele>2289</ele>
        <time>2017-12-01T16:00:53Z</time>
      </trkpt>
      <trkpt lat="45.88949" lon="6.4709">
        <ele>2289</ele>
        <time>2017-12-01T16:00:54Z</time>
      </trkpt>
      <trkpt lat="45.88949" lon="6.47086">
        <ele>2289</ele>
        <time>2017-12-01T16:00:55Z</time>
      </trkpt>
      <trkpt lat="45.88949" lon="6.47082">
        <ele>2279</ele>
        <time>2017-12-01T16:00:56Z</time>
      </trkpt>
      <trkpt lat="45.88949" lon="6.47078">
        <ele>2279</ele>
        <time>2017-12-01T16:00:57Z</time>
      </trkpt>
      <trkpt lat="45.8895" lon="6.47074">
        <ele>2278</ele>
        <time>2017-12-01T16:00:58Z</time>
      </trkpt>
      <trkpt lat="45.88949" lon="6.4707">
        <ele>2278</ele>
        <time>2017-12-01T16:00:59Z</time>
      </trkpt>
      <trkpt lat="45.88947" lon="6.47065">
        <ele>2278</ele>
        <time>2017-12-01T16:01:00Z</time>
      </trkpt>
      <trkpt lat="45.88948" lon="6.47061">
        <ele>2277</ele>
        <time>2017-12-01T16:01:01Z</time>
      </trkpt>
      <trkpt lat="45.88947" lon="6.47056">
        <ele>2276</ele>
        <time>2017-12-01T16:01:02Z</time>
      </trkpt>
      <trkpt lat="45.88946" lon="6.47051">
        <ele>2275</ele>
        <time>2017-12-01T16:01:03Z</time>
      </trkpt>
      <trkpt lat="45.88948" lon="6.47046">
        <ele>2275</ele>
        <time>2017-12-01T16:01:04Z</time>
      </trkpt>
      <trkpt lat="45.88949" lon="6.47043">
        <ele>2274</ele>
        <time>2017-12-01T16:01:05Z</time>
      </trkpt>
      <trkpt lat="45.88948" lon="6.47038">
        <ele>2273</ele>
        <time>2017-12-01T16:01:06Z</time>
      </trkpt>
      <trkpt lat="45.8895" lon="6.47034">
        <ele>2272</ele>
        <time>2017-12-01T16:01:07Z</time>
      </trkpt>
      <trkpt lat="45.88949" lon="6.4703">
        <ele>2272</ele>
        <time>2017-12-01T16:01:08Z</time>
      </trkpt>
      <trkpt lat="45.88947" lon="6.47028">
        <ele>2271</ele>
        <time>2017-12-01T16:01:09Z</time>
      </trkpt>
      <trkpt lat="45.88944" lon="6.47026">
        <ele>2271</ele>
        <time>2017-12-01T16:01:10Z</time>
      </trkpt>
      <trkpt lat="45.88943" lon="6.47023">
        <ele>2270</ele>
        <time>2017-12-01T16:01:11Z</time>
      </trkpt>
      <trkpt lat="45.88942" lon="6.47019">
        <ele>2270</ele>
        <time>2017-12-01T16:01:12Z</time>
      </trkpt>
      <trkpt lat="45.88942" lon="6.47016">
        <ele>2269</ele>
        <time>2017-12-01T16:01:13Z</time>
      </trkpt>
      <trkpt lat="45.8894" lon="6.47012">
        <ele>2269</ele>
        <time>2017-12-01T16:01:14Z</time>
      </trkpt>
      <trkpt lat="45.88939" lon="6.47008">
        <ele>2268</ele>
        <time>2017-12-01T16:01:15Z</time>
      </trkpt>
      <trkpt lat="45.88938" lon="6.47004">
        <ele>2267</ele>
        <time>2017-12-01T16:01:16Z</time>
      </trkpt>
      <trkpt lat="45.88935" lon="6.46999">
        <ele>2254</ele>
        <time>2017-12-01T16:01:17Z</time>
      </trkpt>
      <trkpt lat="45.88933" lon="6.46995">
        <ele>2254</ele>
        <time>2017-12-01T16:01:18Z</time>
      </trkpt>
      <trkpt lat="45.88932" lon="6.4699">
        <ele>2253</ele>
        <time>2017-12-01T16:01:19Z</time>
      </trkpt>
      <trkpt lat="45.88931" lon="6.46984">
        <ele>2252</ele>
        <time>2017-12-01T16:01:20Z</time>
      </trkpt>
      <trkpt lat="45.88929" lon="6.4698">
        <ele>2252</ele>
        <time>2017-12-01T16:01:21Z</time>
      </trkpt>
      <trkpt lat="45.88929" lon="6.46974">
        <ele>2250</ele>
        <time>2017-12-01T16:01:22Z</time>
      </trkpt>
      <trkpt lat="45.88926" lon="6.46968">
        <ele>2249</ele>
        <time>2017-12-01T16:01:23Z</time>
      </trkpt>
      <trkpt lat="45.88924" lon="6.46963">
        <ele>2248</ele>
        <time>2017-12-01T16:01:24Z</time>
      </trkpt>
      <trkpt lat="45.88923" lon="6.46957">
        <ele>2246</ele>
        <time>2017-12-01T16:01:25Z</time>
      </trkpt>
      <trkpt lat="45.88921" lon="6.46951">
        <ele>2245</ele>
        <time>2017-12-01T16:01:26Z</time>
      </trkpt>
      <trkpt lat="45.88919" lon="6.46944">
        <ele>2243</ele>
        <time>2017-12-01T16:01:27Z</time>
      </trkpt>
      <trkpt lat="45.88918" lon="6.46937">
        <ele>2242</ele>
        <time>2017-12-01T16:01:28Z</time>
      </trkpt>
      <trkpt lat="45.88917" lon="6.4693">
        <ele>2240</ele>
        <time>2017-12-01T16:01:29Z</time>
      </trkpt>
      <trkpt lat="45.88917" lon="6.46922">
        <ele>2237</ele>
        <time>2017-12-01T16:01:30Z</time>
      </trkpt>
      <trkpt lat="45.88918" lon="6.46914">
        <ele>2233</ele>
        <time>2017-12-01T16:01:31Z</time>
      </trkpt>
      <trkpt lat="45.88918" lon="6.46906">
        <ele>2227</ele>
        <time>2017-12-01T16:01:32Z</time>
      </trkpt>
      <trkpt lat="45.88916" lon="6.46896">
        <ele>2216</ele>
        <time>2017-12-01T16:01:33Z</time>
      </trkpt>
      <trkpt lat="45.88917" lon="6.46888">
        <ele>2220</ele>
        <time>2017-12-01T16:01:34Z</time>
      </trkpt>
      <trkpt lat="45.88917" lon="6.46879">
        <ele>2217</ele>
        <time>2017-12-01T16:01:35Z</time>
      </trkpt>
      <trkpt lat="45.88916" lon="6.46869">
        <ele>2205</ele>
        <time>2017-12-01T16:01:36Z</time>
      </trkpt>
      <trkpt lat="45.88917" lon="6.46861">
        <ele>2212</ele>
        <time>2017-12-01T16:01:37Z</time>
      </trkpt>
      <trkpt lat="45.88918" lon="6.46852">
        <ele>2209</ele>
        <time>2017-12-01T16:01:38Z</time>
      </trkpt>
      <trkpt lat="45.88917" lon="6.46844">
        <ele>2206</ele>
        <time>2017-12-01T16:01:39Z</time>
      </trkpt>
      <trkpt lat="45.88916" lon="6.46836">
        <ele>2201</ele>
        <time>2017-12-01T16:01:40Z</time>
      </trkpt>
      <trkpt lat="45.88917" lon="6.46829">
        <ele>2199</ele>
        <time>2017-12-01T16:01:41Z</time>
      </trkpt>
      <trkpt lat="45.88918" lon="6.46822">
        <ele>2195</ele>
        <time>2017-12-01T16:01:42Z</time>
      </trkpt>
      <trkpt lat="45.88918" lon="6.46813">
        <ele>2192</ele>
        <time>2017-12-01T16:01:43Z</time>
      </trkpt>
      <trkpt lat="45.88919" lon="6.46805">
        <ele>2190</ele>
        <time>2017-12-01T16:01:44Z</time>
      </trkpt>
      <trkpt lat="45.8892" lon="6.46796">
        <ele>2188</ele>
        <time>2017-12-01T16:01:45Z</time>
      </trkpt>
      <trkpt lat="45.88921" lon="6.46787">
        <ele>2186</ele>
        <time>2017-12-01T16:01:46Z</time>
      </trkpt>
      <trkpt lat="45.88922" lon="6.46778">
        <ele>2185</ele>
        <time>2017-12-01T16:01:47Z</time>
      </trkpt>
      <trkpt lat="45.88922" lon="6.46768">
        <ele>2183</ele>
        <time>2017-12-01T16:01:48Z</time>
      </trkpt>
      <trkpt lat="45.88923" lon="6.4676">
        <ele>2181</ele>
        <time>2017-12-01T16:01:49Z</time>
      </trkpt>
      <trkpt lat="45.88924" lon="6.46751">
        <ele>2181</ele>
        <time>2017-12-01T16:01:50Z</time>
      </trkpt>
      <trkpt lat="45.88925" lon="6.46742">
        <ele>2172</ele>
        <time>2017-12-01T16:01:51Z</time>
      </trkpt>
      <trkpt lat="45.88927" lon="6.46735">
        <ele>2169</ele>
        <time>2017-12-01T16:01:52Z</time>
      </trkpt>
      <trkpt lat="45.8893" lon="6.46731">
        <ele>2167</ele>
        <time>2017-12-01T16:01:53Z</time>
      </trkpt>
      <trkpt lat="45.88934" lon="6.4673">
        <ele>2166</ele>
        <time>2017-12-01T16:01:54Z</time>
      </trkpt>
      <trkpt lat="45.88938" lon="6.46729">
        <ele>2165</ele>
        <time>2017-12-01T16:01:55Z</time>
      </trkpt>
      <trkpt lat="45.88941" lon="6.46728">
        <ele>2164</ele>
        <time>2017-12-01T16:01:56Z</time>
      </trkpt>
      <trkpt lat="45.88945" lon="6.46727">
        <ele>2163</ele>
        <time>2017-12-01T16:01:57Z</time>
      </trkpt>
      <trkpt lat="45.88948" lon="6.46727">
        <ele>2163</ele>
        <time>2017-12-01T16:01:58Z</time>
      </trkpt>
      <trkpt lat="45.8895" lon="6.46727">
        <ele>2163</ele>
        <time>2017-12-01T16:01:59Z</time>
      </trkpt>
      <trkpt lat="45.88955" lon="6.46727">
        <ele>2162</ele>
        <time>2017-12-01T16:02:10Z</time>
      </trkpt>
      <trkpt lat="45.88956" lon="6.46726">
        <ele>2162</ele>
        <time>2017-12-01T16:02:11Z</time>
      </trkpt>
      <trkpt lat="45.88958" lon="6.46725">
        <ele>2162</ele>
        <time>2017-12-01T16:02:12Z</time>
      </trkpt>
      <trkpt lat="45.88961" lon="6.46721">
        <ele>2161</ele>
        <time>2017-12-01T16:02:14Z</time>
      </trkpt>
      <trkpt lat="45.88961" lon="6.46716">
        <ele>2160</ele>
        <time>2017-12-01T16:02:15Z</time>
      </trkpt>
      <trkpt lat="45.88961" lon="6.46712">
        <ele>2159</ele>
        <time>2017-12-01T16:02:16Z</time>
      </trkpt>
      <trkpt lat="45.88963" lon="6.46707">
        <ele>2159</ele>
        <time>2017-12-01T16:02:17Z</time>
      </trkpt>
      <trkpt lat="45.88964" lon="6.46702">
        <ele>2158</ele>
        <time>2017-12-01T16:02:18Z</time>
      </trkpt>
      <trkpt lat="45.88966" lon="6.46697">
        <ele>2156</ele>
        <time>2017-12-01T16:02:19Z</time>
      </trkpt>
      <trkpt lat="45.88969" lon="6.46692">
        <ele>2155</ele>
        <time>2017-12-01T16:02:20Z</time>
      </trkpt>
      <trkpt lat="45.88971" lon="6.46687">
        <ele>2154</ele>
        <time>2017-12-01T16:02:21Z</time>
      </trkpt>
      <trkpt lat="45.88973" lon="6.46681">
        <ele>2153</ele>
        <time>2017-12-01T16:02:22Z</time>
      </trkpt>
      <trkpt lat="45.88976" lon="6.46675">
        <ele>2151</ele>
        <time>2017-12-01T16:02:23Z</time>
      </trkpt>
      <trkpt lat="45.88981" lon="6.46663">
        <ele>2135</ele>
        <time>2017-12-01T16:02:25Z</time>
      </trkpt>
      <trkpt lat="45.88984" lon="6.46656">
        <ele>2134</ele>
        <time>2017-12-01T16:02:26Z</time>
      </trkpt>
      <trkpt lat="45.88988" lon="6.4665">
        <ele>2133</ele>
        <time>2017-12-01T16:02:27Z</time>
      </trkpt>
      <trkpt lat="45.88989" lon="6.46643">
        <ele>2132</ele>
        <time>2017-12-01T16:02:28Z</time>
      </trkpt>
      <trkpt lat="45.88989" lon="6.46636">
        <ele>2130</ele>
        <time>2017-12-01T16:02:29Z</time>
      </trkpt>
      <trkpt lat="45.88992" lon="6.4663">
        <ele>2129</ele>
        <time>2017-12-01T16:02:30Z</time>
      </trkpt>
      <trkpt lat="45.88994" lon="6.46624">
        <ele>2127</ele>
        <time>2017-12-01T16:02:31Z</time>
      </trkpt>
      <trkpt lat="45.88994" lon="6.46616">
        <ele>2125</ele>
        <time>2017-12-01T16:02:32Z</time>
      </trkpt>
      <trkpt lat="45.88995" lon="6.46608">
        <ele>2122</ele>
        <time>2017-12-01T16:02:33Z</time>
      </trkpt>
      <trkpt lat="45.88998" lon="6.46602">
        <ele>2119</ele>
        <time>2017-12-01T16:02:34Z</time>
      </trkpt>
      <trkpt lat="45.89" lon="6.46595">
        <ele>2116</ele>
        <time>2017-12-01T16:02:35Z</time>
      </trkpt>
      <trkpt lat="45.89001" lon="6.46587">
        <ele>2107</ele>
        <time>2017-12-01T16:02:36Z</time>
      </trkpt>
      <trkpt lat="45.89003" lon="6.4658">
        <ele>2102</ele>
        <time>2017-12-01T16:02:37Z</time>
      </trkpt>
      <trkpt lat="45.89003" lon="6.46573">
        <ele>2097</ele>
        <time>2017-12-01T16:02:38Z</time>
      </trkpt>
      <trkpt lat="45.89003" lon="6.46565">
        <ele>2092</ele>
        <time>2017-12-01T16:02:39Z</time>
      </trkpt>
      <trkpt lat="45.89004" lon="6.46557">
        <ele>2088</ele>
        <time>2017-12-01T16:02:40Z</time>
      </trkpt>
      <trkpt lat="45.89005" lon="6.46549">
        <ele>2086</ele>
        <time>2017-12-01T16:02:41Z</time>
      </trkpt>
      <trkpt lat="45.89005" lon="6.46541">
        <ele>2083</ele>
        <time>2017-12-01T16:02:42Z</time>
      </trkpt>
      <trkpt lat="45.89006" lon="6.46533">
        <ele>2081</ele>
        <time>2017-12-01T16:02:43Z</time>
      </trkpt>
      <trkpt lat="45.89007" lon="6.46526">
        <ele>2080</ele>
        <time>2017-12-01T16:02:44Z</time>
      </trkpt>
      <trkpt lat="45.89007" lon="6.46518">
        <ele>2079</ele>
        <time>2017-12-01T16:02:45Z</time>
      </trkpt>
      <trkpt lat="45.89008" lon="6.4651">
        <ele>2078</ele>
        <time>2017-12-01T16:02:46Z</time>
      </trkpt>
      <trkpt lat="45.8901" lon="6.46503">
        <ele>2078</ele>
        <time>2017-12-01T16:02:47Z</time>
      </trkpt>
      <trkpt lat="45.89011" lon="6.46496">
        <ele>2068</ele>
        <time>2017-12-01T16:02:48Z</time>
      </trkpt>
      <trkpt lat="45.89011" lon="6.46488">
        <ele>2065</ele>
        <time>2017-12-01T16:02:49Z</time>
      </trkpt>
      <trkpt lat="45.89013" lon="6.46481">
        <ele>2061</ele>
        <time>2017-12-01T16:02:50Z</time>
      </trkpt>
      <trkpt lat="45.89012" lon="6.46472">
        <ele>2059</ele>
        <time>2017-12-01T16:02:51Z</time>
      </trkpt>
      <trkpt lat="45.89011" lon="6.46463">
        <ele>2056</ele>
        <time>2017-12-01T16:02:52Z</time>
      </trkpt>
      <trkpt lat="45.89011" lon="6.46455">
        <ele>2054</ele>
        <time>2017-12-01T16:02:53Z</time>
      </trkpt>
      <trkpt lat="45.89011" lon="6.46445">
        <ele>2053</ele>
        <time>2017-12-01T16:02:54Z</time>
      </trkpt>
      <trkpt lat="45.89013" lon="6.46435">
        <ele>2051</ele>
        <time>2017-12-01T16:02:55Z</time>
      </trkpt>
      <trkpt lat="45.89014" lon="6.46425">
        <ele>2050</ele>
        <time>2017-12-01T16:02:56Z</time>
      </trkpt>
      <trkpt lat="45.89014" lon="6.46415">
        <ele>2042</ele>
        <time>2017-12-01T16:02:57Z</time>
      </trkpt>
      <trkpt lat="45.89016" lon="6.46406">
        <ele>2039</ele>
        <time>2017-12-01T16:02:58Z</time>
      </trkpt>
      <trkpt lat="45.89016" lon="6.46396">
        <ele>2037</ele>
        <time>2017-12-01T16:02:59Z</time>
      </trkpt>
      <trkpt lat="45.89018" lon="6.46386">
        <ele>2034</ele>
        <time>2017-12-01T16:03:00Z</time>
      </trkpt>
      <trkpt lat="45.89019" lon="6.46376">
        <ele>2032</ele>
        <time>2017-12-01T16:03:01Z</time>
      </trkpt>
      <trkpt lat="45.89019" lon="6.46365">
        <ele>2031</ele>
        <time>2017-12-01T16:03:02Z</time>
      </trkpt>
      <trkpt lat="45.89021" lon="6.46355">
        <ele>2029</ele>
        <time>2017-12-01T16:03:03Z</time>
      </trkpt>
      <trkpt lat="45.89022" lon="6.46347">
        <ele>2028</ele>
        <time>2017-12-01T16:03:04Z</time>
      </trkpt>
      <trkpt lat="45.89023" lon="6.46338">
        <ele>2028</ele>
        <time>2017-12-01T16:03:05Z</time>
      </trkpt>
      <trkpt lat="45.89025" lon="6.46331">
        <ele>2016</ele>
        <time>2017-12-01T16:03:06Z</time>
      </trkpt>
      <trkpt lat="45.89025" lon="6.46324">
        <ele>2016</ele>
        <time>2017-12-01T16:03:07Z</time>
      </trkpt>
      <trkpt lat="45.89023" lon="6.4632">
        <ele>2015</ele>
        <time>2017-12-01T16:03:08Z</time>
      </trkpt>
      <trkpt lat="45.89021" lon="6.4632">
        <ele>2016</ele>
        <time>2017-12-01T16:03:09Z</time>
      </trkpt>
      <trkpt lat="45.89019" lon="6.46321">
        <ele>2016</ele>
        <time>2017-12-01T16:03:10Z</time>
      </trkpt>
      <trkpt lat="45.89018" lon="6.46321">
        <ele>2016</ele>
        <time>2017-12-01T16:03:11Z</time>
      </trkpt>
      <trkpt lat="45.8902" lon="6.46317">
        <ele>2015</ele>
        <time>2017-12-01T16:03:21Z</time>
      </trkpt>
      <trkpt lat="45.89021" lon="6.46313">
        <ele>2014</ele>
        <time>2017-12-01T16:03:22Z</time>
      </trkpt>
      <trkpt lat="45.89023" lon="6.46309">
        <ele>2013</ele>
        <time>2017-12-01T16:03:23Z</time>
      </trkpt>
      <trkpt lat="45.89025" lon="6.46305">
        <ele>2013</ele>
        <time>2017-12-01T16:03:24Z</time>
      </trkpt>
      <trkpt lat="45.89025" lon="6.463">
        <ele>2012</ele>
        <time>2017-12-01T16:03:25Z</time>
      </trkpt>
      <trkpt lat="45.89025" lon="6.46293">
        <ele>2011</ele>
        <time>2017-12-01T16:03:26Z</time>
      </trkpt>
      <trkpt lat="45.89026" lon="6.46288">
        <ele>2010</ele>
        <time>2017-12-01T16:03:27Z</time>
      </trkpt>
      <trkpt lat="45.89028" lon="6.46287">
        <ele>2009</ele>
        <time>2017-12-01T16:03:28Z</time>
      </trkpt>
      <trkpt lat="45.89029" lon="6.46286">
        <ele>2009</ele>
        <time>2017-12-01T16:03:31Z</time>
      </trkpt>
      <trkpt lat="45.8903" lon="6.46285">
        <ele>2009</ele>
        <time>2017-12-01T16:03:36Z</time>
      </trkpt>
      <trkpt lat="45.8903" lon="6.46281">
        <ele>2009</ele>
        <time>2017-12-01T16:03:37Z</time>
      </trkpt>
      <trkpt lat="45.89029" lon="6.46277">
        <ele>2008</ele>
        <time>2017-12-01T16:03:38Z</time>
      </trkpt>
      <trkpt lat="45.89027" lon="6.46271">
        <ele>2007</ele>
        <time>2017-12-01T16:03:39Z</time>
      </trkpt>
      <trkpt lat="45.89027" lon="6.46264">
        <ele>2006</ele>
        <time>2017-12-01T16:03:40Z</time>
      </trkpt>
      <trkpt lat="45.89026" lon="6.46256">
        <ele>2005</ele>
        <time>2017-12-01T16:03:41Z</time>
      </trkpt>
      <trkpt lat="45.89026" lon="6.46247">
        <ele>1991</ele>
        <time>2017-12-01T16:03:42Z</time>
      </trkpt>
      <trkpt lat="45.89027" lon="6.4624">
        <ele>1990</ele>
        <time>2017-12-01T16:03:43Z</time>
      </trkpt>
      <trkpt lat="45.89028" lon="6.46232">
        <ele>1989</ele>
        <time>2017-12-01T16:03:44Z</time>
      </trkpt>
      <trkpt lat="45.89027" lon="6.46225">
        <ele>1988</ele>
        <time>2017-12-01T16:03:45Z</time>
      </trkpt>
      <trkpt lat="45.89027" lon="6.46219">
        <ele>1987</ele>
        <time>2017-12-01T16:03:46Z</time>
      </trkpt>
      <trkpt lat="45.89029" lon="6.46213">
        <ele>1986</ele>
        <time>2017-12-01T16:03:47Z</time>
      </trkpt>
      <trkpt lat="45.89029" lon="6.46207">
        <ele>1985</ele>
        <time>2017-12-01T16:03:48Z</time>
      </trkpt>
      <trkpt lat="45.89028" lon="6.462">
        <ele>1983</ele>
        <time>2017-12-01T16:03:49Z</time>
      </trkpt>
      <trkpt lat="45.89029" lon="6.46193">
        <ele>1982</ele>
        <time>2017-12-01T16:03:50Z</time>
      </trkpt>
      <trkpt lat="45.89029" lon="6.46186">
        <ele>1981</ele>
        <time>2017-12-01T16:03:51Z</time>
      </trkpt>
      <trkpt lat="45.89027" lon="6.46179">
        <ele>1980</ele>
        <time>2017-12-01T16:03:52Z</time>
      </trkpt>
      <trkpt lat="45.89026" lon="6.46171">
        <ele>1979</ele>
        <time>2017-12-01T16:03:53Z</time>
      </trkpt>
      <trkpt lat="45.89026" lon="6.46163">
        <ele>1963</ele>
        <time>2017-12-01T16:03:54Z</time>
      </trkpt>
      <trkpt lat="45.89025" lon="6.46155">
        <ele>1962</ele>
        <time>2017-12-01T16:03:55Z</time>
      </trkpt>
      <trkpt lat="45.89026" lon="6.46147">
        <ele>1961</ele>
        <time>2017-12-01T16:03:56Z</time>
      </trkpt>
      <trkpt lat="45.89026" lon="6.46139">
        <ele>1959</ele>
        <time>2017-12-01T16:03:57Z</time>
      </trkpt>
      <trkpt lat="45.89024" lon="6.46132">
        <ele>1958</ele>
        <time>2017-12-01T16:03:58Z</time>
      </trkpt>
      <trkpt lat="45.89024" lon="6.46125">
        <ele>1956</ele>
        <time>2017-12-01T16:03:59Z</time>
      </trkpt>
      <trkpt lat="45.89024" lon="6.46118">
        <ele>1955</ele>
        <time>2017-12-01T16:04:00Z</time>
      </trkpt>
      <trkpt lat="45.89024" lon="6.46111">
        <ele>1953</ele>
        <time>2017-12-01T16:04:01Z</time>
      </trkpt>
      <trkpt lat="45.89024" lon="6.46103">
        <ele>1952</ele>
        <time>2017-12-01T16:04:02Z</time>
      </trkpt>
      <trkpt lat="45.89024" lon="6.46095">
        <ele>1951</ele>
        <time>2017-12-01T16:04:03Z</time>
      </trkpt>
      <trkpt lat="45.89023" lon="6.46086">
        <ele>1950</ele>
        <time>2017-12-01T16:04:04Z</time>
      </trkpt>
      <trkpt lat="45.89023" lon="6.46079">
        <ele>1935</ele>
        <time>2017-12-01T16:04:05Z</time>
      </trkpt>
      <trkpt lat="45.89023" lon="6.46071">
        <ele>1934</ele>
        <time>2017-12-01T16:04:06Z</time>
      </trkpt>
      <trkpt lat="45.89023" lon="6.46062">
        <ele>1933</ele>
        <time>2017-12-01T16:04:07Z</time>
      </trkpt>
      <trkpt lat="45.89023" lon="6.46054">
        <ele>1932</ele>
        <time>2017-12-01T16:04:08Z</time>
      </trkpt>
      <trkpt lat="45.89023" lon="6.46046">
        <ele>1930</ele>
        <time>2017-12-01T16:04:09Z</time>
      </trkpt>
      <trkpt lat="45.89024" lon="6.4604">
        <ele>1929</ele>
        <time>2017-12-01T16:04:10Z</time>
      </trkpt>
      <trkpt lat="45.89026" lon="6.46036">
        <ele>1928</ele>
        <time>2017-12-01T16:04:11Z</time>
      </trkpt>
      <trkpt lat="45.89028" lon="6.46033">
        <ele>1928</ele>
        <time>2017-12-01T16:04:12Z</time>
      </trkpt>
      <trkpt lat="45.89027" lon="6.4603">
        <ele>1927</ele>
        <time>2017-12-01T16:04:13Z</time>
      </trkpt>
      <trkpt lat="45.89026" lon="6.46027">
        <ele>1927</ele>
        <time>2017-12-01T16:04:14Z</time>
      </trkpt>
      <trkpt lat="45.89026" lon="6.46022">
        <ele>1926</ele>
        <time>2017-12-01T16:04:15Z</time>
      </trkpt>
      <trkpt lat="45.89026" lon="6.46015">
        <ele>1925</ele>
        <time>2017-12-01T16:04:16Z</time>
      </trkpt>
      <trkpt lat="45.89027" lon="6.46008">
        <ele>1925</ele>
        <time>2017-12-01T16:04:17Z</time>
      </trkpt>
      <trkpt lat="45.8903" lon="6.46">
        <ele>1924</ele>
        <time>2017-12-01T16:04:18Z</time>
      </trkpt>
      <trkpt lat="45.89033" lon="6.45993">
        <ele>1912</ele>
        <time>2017-12-01T16:04:19Z</time>
      </trkpt>
      <trkpt lat="45.89036" lon="6.45985">
        <ele>1911</ele>
        <time>2017-12-01T16:04:20Z</time>
      </trkpt>
      <trkpt lat="45.89039" lon="6.45975">
        <ele>1911</ele>
        <time>2017-12-01T16:04:21Z</time>
      </trkpt>
      <trkpt lat="45.89045" lon="6.45956">
        <ele>1909</ele>
        <time>2017-12-01T16:04:23Z</time>
      </trkpt>
      <trkpt lat="45.8905" lon="6.45945">
        <ele>1908</ele>
        <time>2017-12-01T16:04:24Z</time>
      </trkpt>
      <trkpt lat="45.89055" lon="6.45936">
        <ele>1908</ele>
        <time>2017-12-01T16:04:25Z</time>
      </trkpt>
      <trkpt lat="45.89058" lon="6.45927">
        <ele>1907</ele>
        <time>2017-12-01T16:04:26Z</time>
      </trkpt>
      <trkpt lat="45.8906" lon="6.45918">
        <ele>1907</ele>
        <time>2017-12-01T16:04:27Z</time>
      </trkpt>
      <trkpt lat="45.89063" lon="6.45908">
        <ele>1900</ele>
        <time>2017-12-01T16:04:28Z</time>
      </trkpt>
      <trkpt lat="45.89065" lon="6.45898">
        <ele>1899</ele>
        <time>2017-12-01T16:04:29Z</time>
      </trkpt>
      <trkpt lat="45.89067" lon="6.45888">
        <ele>1898</ele>
        <time>2017-12-01T16:04:30Z</time>
      </trkpt>
      <trkpt lat="45.89068" lon="6.45878">
        <ele>1898</ele>
        <time>2017-12-01T16:04:31Z</time>
      </trkpt>
      <trkpt lat="45.89069" lon="6.45868">
        <ele>1897</ele>
        <time>2017-12-01T16:04:32Z</time>
      </trkpt>
      <trkpt lat="45.89069" lon="6.45857">
        <ele>1897</ele>
        <time>2017-12-01T16:04:33Z</time>
      </trkpt>
      <trkpt lat="45.89067" lon="6.45847">
        <ele>1897</ele>
        <time>2017-12-01T16:04:34Z</time>
      </trkpt>
      <trkpt lat="45.89065" lon="6.45835">
        <ele>1896</ele>
        <time>2017-12-01T16:04:35Z</time>
      </trkpt>
      <trkpt lat="45.89065" lon="6.45823">
        <ele>1890</ele>
        <time>2017-12-01T16:04:36Z</time>
      </trkpt>
      <trkpt lat="45.89065" lon="6.4581">
        <ele>1888</ele>
        <time>2017-12-01T16:04:37Z</time>
      </trkpt>
      <trkpt lat="45.89065" lon="6.45797">
        <ele>1886</ele>
        <time>2017-12-01T16:04:38Z</time>
      </trkpt>
      <trkpt lat="45.89067" lon="6.45767">
        <ele>1885</ele>
        <time>2017-12-01T16:04:40Z</time>
      </trkpt>
      <trkpt lat="45.89069" lon="6.45738">
        <ele>1879</ele>
        <time>2017-12-01T16:04:42Z</time>
      </trkpt>
      <trkpt lat="45.8907" lon="6.45724">
        <ele>1876</ele>
        <time>2017-12-01T16:04:43Z</time>
      </trkpt>
      <trkpt lat="45.8907" lon="6.45699">
        <ele>1873</ele>
        <time>2017-12-01T16:04:45Z</time>
      </trkpt>
      <trkpt lat="45.89068" lon="6.45623">
        <ele>1862</ele>
        <time>2017-12-01T16:04:51Z</time>
      </trkpt>
      <trkpt lat="45.89069" lon="6.45545">
        <ele>1850</ele>
        <time>2017-12-01T16:04:58Z</time>
      </trkpt>
      <trkpt lat="45.89069" lon="6.45488">
        <ele>1843</ele>
        <time>2017-12-01T16:05:03Z</time>
      </trkpt>
      <trkpt lat="45.89066" lon="6.45454">
        <ele>1839</ele>
        <time>2017-12-01T16:05:06Z</time>
      </trkpt>
      <trkpt lat="45.89066" lon="6.45433">
        <ele>1839</ele>
        <time>2017-12-01T16:05:08Z</time>
      </trkpt>
      <trkpt lat="45.89066" lon="6.45413">
        <ele>1837</ele>
        <time>2017-12-01T16:05:10Z</time>
      </trkpt>
      <trkpt lat="45.89065" lon="6.45394">
        <ele>1835</ele>
        <time>2017-12-01T16:05:12Z</time>
      </trkpt>
      <trkpt lat="45.89064" lon="6.45368">
        <ele>1834</ele>
        <time>2017-12-01T16:05:15Z</time>
      </trkpt>
      <trkpt lat="45.89064" lon="6.45337">
        <ele>1833</ele>
        <time>2017-12-01T16:05:20Z</time>
      </trkpt>
      <trkpt lat="45.89064" lon="6.45315">
        <ele>1833</ele>
        <time>2017-12-01T16:05:24Z</time>
      </trkpt>
      <trkpt lat="45.89064" lon="6.45295">
        <ele>1834</ele>
        <time>2017-12-01T16:05:28Z</time>
      </trkpt>
      <trkpt lat="45.89057" lon="6.45227">
        <ele>1837</ele>
        <time>2017-12-01T16:05:44Z</time>
      </trkpt>
      <trkpt lat="45.89052" lon="6.45197">
        <ele>1836</ele>
        <time>2017-12-01T16:05:55Z</time>
      </trkpt>
      <trkpt lat="45.89045" lon="6.45165">
        <ele>1831</ele>
        <time>2017-12-01T16:06:00Z</time>
      </trkpt>
      <trkpt lat="45.89046" lon="6.45151">
        <ele>1830</ele>
        <time>2017-12-01T16:06:02Z</time>
      </trkpt>
      <trkpt lat="45.89046" lon="6.45145">
        <ele>1830</ele>
        <time>2017-12-01T16:06:03Z</time>
      </trkpt>
      <trkpt lat="45.89047" lon="6.4514">
        <ele>1829</ele>
        <time>2017-12-01T16:06:04Z</time>
      </trkpt>
      <trkpt lat="45.89048" lon="6.45135">
        <ele>1829</ele>
        <time>2017-12-01T16:06:05Z</time>
      </trkpt>
      <trkpt lat="45.89049" lon="6.45129">
        <ele>1828</ele>
        <time>2017-12-01T16:06:06Z</time>
      </trkpt>
      <trkpt lat="45.89051" lon="6.45122">
        <ele>1828</ele>
        <time>2017-12-01T16:06:07Z</time>
      </trkpt>
      <trkpt lat="45.89053" lon="6.45114">
        <ele>1827</ele>
        <time>2017-12-01T16:06:08Z</time>
      </trkpt>
      <trkpt lat="45.89056" lon="6.45107">
        <ele>1827</ele>
        <time>2017-12-01T16:06:09Z</time>
      </trkpt>
      <trkpt lat="45.89059" lon="6.45102">
        <ele>1827</ele>
        <time>2017-12-01T16:06:10Z</time>
      </trkpt>
      <trkpt lat="45.89062" lon="6.45098">
        <ele>1827</ele>
        <time>2017-12-01T16:06:11Z</time>
      </trkpt>
      <trkpt lat="45.89065" lon="6.45095">
        <ele>1827</ele>
        <time>2017-12-01T16:06:12Z</time>
      </trkpt>
      <trkpt lat="45.89066" lon="6.45091">
        <ele>1827</ele>
        <time>2017-12-01T16:06:13Z</time>
      </trkpt>
      <trkpt lat="45.89067" lon="6.45088">
        <ele>1826</ele>
        <time>2017-12-01T16:06:14Z</time>
      </trkpt>
      <trkpt lat="45.89064" lon="6.45083">
        <ele>1818</ele>
        <time>2017-12-01T16:06:17Z</time>
      </trkpt>
      <trkpt lat="45.8906" lon="6.45076">
        <ele>1817</ele>
        <time>2017-12-01T16:06:19Z</time>
      </trkpt>
      <trkpt lat="45.89058" lon="6.45071">
        <ele>1816</ele>
        <time>2017-12-01T16:06:20Z</time>
      </trkpt>
      <trkpt lat="45.89058" lon="6.45064">
        <ele>1815</ele>
        <time>2017-12-01T16:06:21Z</time>
      </trkpt>
      <trkpt lat="45.89057" lon="6.45057">
        <ele>1814</ele>
        <time>2017-12-01T16:06:22Z</time>
      </trkpt>
      <trkpt lat="45.89056" lon="6.45051">
        <ele>1813</ele>
        <time>2017-12-01T16:06:23Z</time>
      </trkpt>
      <trkpt lat="45.89055" lon="6.45043">
        <ele>1812</ele>
        <time>2017-12-01T16:06:24Z</time>
      </trkpt>
      <trkpt lat="45.89053" lon="6.45035">
        <ele>1811</ele>
        <time>2017-12-01T16:06:25Z</time>
      </trkpt>
      <trkpt lat="45.89052" lon="6.45026">
        <ele>1810</ele>
        <time>2017-12-01T16:06:26Z</time>
      </trkpt>
      <trkpt lat="45.8905" lon="6.45018">
        <ele>1809</ele>
        <time>2017-12-01T16:06:27Z</time>
      </trkpt>
      <trkpt lat="45.89047" lon="6.4501">
        <ele>1808</ele>
        <time>2017-12-01T16:06:28Z</time>
      </trkpt>
      <trkpt lat="45.89046" lon="6.45001">
        <ele>1807</ele>
        <time>2017-12-01T16:06:29Z</time>
      </trkpt>
      <trkpt lat="45.89043" lon="6.44992">
        <ele>1794</ele>
        <time>2017-12-01T16:06:30Z</time>
      </trkpt>
      <trkpt lat="45.89042" lon="6.44983">
        <ele>1793</ele>
        <time>2017-12-01T16:06:31Z</time>
      </trkpt>
      <trkpt lat="45.89042" lon="6.44974">
        <ele>1792</ele>
        <time>2017-12-01T16:06:32Z</time>
      </trkpt>
      <trkpt lat="45.89041" lon="6.44965">
        <ele>1790</ele>
        <time>2017-12-01T16:06:33Z</time>
      </trkpt>
      <trkpt lat="45.89042" lon="6.44955">
        <ele>1789</ele>
        <time>2017-12-01T16:06:34Z</time>
      </trkpt>
      <trkpt lat="45.89041" lon="6.44947">
        <ele>1788</ele>
        <time>2017-12-01T16:06:35Z</time>
      </trkpt>
      <trkpt lat="45.8904" lon="6.44939">
        <ele>1787</ele>
        <time>2017-12-01T16:06:36Z</time>
      </trkpt>
      <trkpt lat="45.89039" lon="6.4493">
        <ele>1786</ele>
        <time>2017-12-01T16:06:37Z</time>
      </trkpt>
      <trkpt lat="45.89038" lon="6.44921">
        <ele>1785</ele>
        <time>2017-12-01T16:06:38Z</time>
      </trkpt>
      <trkpt lat="45.89036" lon="6.44911">
        <ele>1770</ele>
        <time>2017-12-01T16:06:39Z</time>
      </trkpt>
      <trkpt lat="45.89035" lon="6.44901">
        <ele>1770</ele>
        <time>2017-12-01T16:06:40Z</time>
      </trkpt>
      <trkpt lat="45.89033" lon="6.44879">
        <ele>1767</ele>
        <time>2017-12-01T16:06:42Z</time>
      </trkpt>
      <trkpt lat="45.89031" lon="6.44868">
        <ele>1766</ele>
        <time>2017-12-01T16:06:43Z</time>
      </trkpt>
      <trkpt lat="45.89031" lon="6.44857">
        <ele>1764</ele>
        <time>2017-12-01T16:06:44Z</time>
      </trkpt>
      <trkpt lat="45.89031" lon="6.44846">
        <ele>1763</ele>
        <time>2017-12-01T16:06:45Z</time>
      </trkpt>
      <trkpt lat="45.89028" lon="6.44836">
        <ele>1763</ele>
        <time>2017-12-01T16:06:46Z</time>
      </trkpt>
      <trkpt lat="45.89025" lon="6.44826">
        <ele>1748</ele>
        <time>2017-12-01T16:06:47Z</time>
      </trkpt>
      <trkpt lat="45.89024" lon="6.44816">
        <ele>1747</ele>
        <time>2017-12-01T16:06:48Z</time>
      </trkpt>
      <trkpt lat="45.89021" lon="6.44808">
        <ele>1746</ele>
        <time>2017-12-01T16:06:49Z</time>
      </trkpt>
      <trkpt lat="45.89018" lon="6.448">
        <ele>1745</ele>
        <time>2017-12-01T16:06:50Z</time>
      </trkpt>
      <trkpt lat="45.89016" lon="6.44793">
        <ele>1743</ele>
        <time>2017-12-01T16:06:51Z</time>
      </trkpt>
      <trkpt lat="45.89013" lon="6.4478">
        <ele>1741</ele>
        <time>2017-12-01T16:06:53Z</time>
      </trkpt>
      <trkpt lat="45.89012" lon="6.44776">
        <ele>1741</ele>
        <time>2017-12-01T16:06:54Z</time>
      </trkpt>
      <trkpt lat="45.89009" lon="6.44774">
        <ele>1740</ele>
        <time>2017-12-01T16:06:55Z</time>
      </trkpt>
      <trkpt lat="45.89007" lon="6.44774">
        <ele>1740</ele>
        <time>2017-12-01T16:06:56Z</time>
      </trkpt>
      <trkpt lat="45.89005" lon="6.44775">
        <ele>1741</ele>
        <time>2017-12-01T16:06:57Z</time>
      </trkpt>
      <trkpt lat="45.89005" lon="6.44774">
        <ele>1740</ele>
        <time>2017-12-01T16:06:58Z</time>
      </trkpt>
      <trkpt lat="45.89002" lon="6.4477">
        <ele>1740</ele>
        <time>2017-12-01T16:07:04Z</time>
      </trkpt>
      <trkpt lat="45.89001" lon="6.44764">
        <ele>1739</ele>
        <time>2017-12-01T16:07:05Z</time>
      </trkpt>
      <trkpt lat="45.89001" lon="6.44757">
        <ele>1738</ele>
        <time>2017-12-01T16:07:06Z</time>
      </trkpt>
      <trkpt lat="45.89" lon="6.4475">
        <ele>1736</ele>
        <time>2017-12-01T16:07:07Z</time>
      </trkpt>
      <trkpt lat="45.88999" lon="6.44742">
        <ele>1730</ele>
        <time>2017-12-01T16:07:08Z</time>
      </trkpt>
      <trkpt lat="45.88997" lon="6.44735">
        <ele>1726</ele>
        <time>2017-12-01T16:07:09Z</time>
      </trkpt>
      <trkpt lat="45.88997" lon="6.44728">
        <ele>1723</ele>
        <time>2017-12-01T16:07:10Z</time>
      </trkpt>
      <trkpt lat="45.88996" lon="6.44721">
        <ele>1720</ele>
        <time>2017-12-01T16:07:11Z</time>
      </trkpt>
      <trkpt lat="45.88995" lon="6.44714">
        <ele>1718</ele>
        <time>2017-12-01T16:07:12Z</time>
      </trkpt>
      <trkpt lat="45.88994" lon="6.44707">
        <ele>1716</ele>
        <time>2017-12-01T16:07:13Z</time>
      </trkpt>
      <trkpt lat="45.88992" lon="6.44699">
        <ele>1714</ele>
        <time>2017-12-01T16:07:14Z</time>
      </trkpt>
      <trkpt lat="45.88991" lon="6.44692">
        <ele>1713</ele>
        <time>2017-12-01T16:07:15Z</time>
      </trkpt>
      <trkpt lat="45.88989" lon="6.44686">
        <ele>1712</ele>
        <time>2017-12-01T16:07:16Z</time>
      </trkpt>
      <trkpt lat="45.88987" lon="6.4468">
        <ele>1711</ele>
        <time>2017-12-01T16:07:17Z</time>
      </trkpt>
      <trkpt lat="45.88986" lon="6.44674">
        <ele>1711</ele>
        <time>2017-12-01T16:07:18Z</time>
      </trkpt>
      <trkpt lat="45.88984" lon="6.44667">
        <ele>1710</ele>
        <time>2017-12-01T16:07:19Z</time>
      </trkpt>
      <trkpt lat="45.88983" lon="6.4466">
        <ele>1700</ele>
        <time>2017-12-01T16:07:20Z</time>
      </trkpt>
      <trkpt lat="45.88983" lon="6.44653">
        <ele>1698</ele>
        <time>2017-12-01T16:07:21Z</time>
      </trkpt>
      <trkpt lat="45.88982" lon="6.44647">
        <ele>1697</ele>
        <time>2017-12-01T16:07:22Z</time>
      </trkpt>
      <trkpt lat="45.88983" lon="6.44642">
        <ele>1696</ele>
        <time>2017-12-01T16:07:23Z</time>
      </trkpt>
      <trkpt lat="45.88985" lon="6.44637">
        <ele>1695</ele>
        <time>2017-12-01T16:07:24Z</time>
      </trkpt>
      <trkpt lat="45.88987" lon="6.44632">
        <ele>1694</ele>
        <time>2017-12-01T16:07:25Z</time>
      </trkpt>
      <trkpt lat="45.88989" lon="6.44628">
        <ele>1693</ele>
        <time>2017-12-01T16:07:26Z</time>
      </trkpt>
      <trkpt lat="45.88991" lon="6.44625">
        <ele>1693</ele>
        <time>2017-12-01T16:07:27Z</time>
      </trkpt>
      <trkpt lat="45.88993" lon="6.44623">
        <ele>1692</ele>
        <time>2017-12-01T16:07:28Z</time>
      </trkpt>
      <trkpt lat="45.88994" lon="6.44622">
        <ele>1692</ele>
        <time>2017-12-01T16:07:29Z</time>
      </trkpt>
      <trkpt lat="45.88996" lon="6.44621">
        <ele>1692</ele>
        <time>2017-12-01T16:07:30Z</time>
      </trkpt>
      <trkpt lat="45.88997" lon="6.44619">
        <ele>1692</ele>
        <time>2017-12-01T16:07:31Z</time>
      </trkpt>
      <trkpt lat="45.88998" lon="6.44618">
        <ele>1691</ele>
        <time>2017-12-01T16:07:32Z</time>
      </trkpt>
      <trkpt lat="45.88999" lon="6.44617">
        <ele>1691</ele>
        <time>2017-12-01T16:07:33Z</time>
      </trkpt>
      <trkpt lat="45.89003" lon="6.44615">
        <ele>1691</ele>
        <time>2017-12-01T16:07:44Z</time>
      </trkpt>
      <trkpt lat="45.89005" lon="6.44614">
        <ele>1690</ele>
        <time>2017-12-01T16:07:45Z</time>
      </trkpt>
      <trkpt lat="45.89007" lon="6.44613">
        <ele>1690</ele>
        <time>2017-12-01T16:07:46Z</time>
      </trkpt>
      <trkpt lat="45.8901" lon="6.44613">
        <ele>1690</ele>
        <time>2017-12-01T16:07:47Z</time>
      </trkpt>
      <trkpt lat="45.89014" lon="6.44614">
        <ele>1690</ele>
        <time>2017-12-01T16:07:48Z</time>
      </trkpt>
      <trkpt lat="45.89016" lon="6.44615">
        <ele>1690</ele>
        <time>2017-12-01T16:07:49Z</time>
      </trkpt>
      <trkpt lat="45.89018" lon="6.44617">
        <ele>1690</ele>
        <time>2017-12-01T16:07:50Z</time>
      </trkpt>
      <trkpt lat="45.89021" lon="6.44617">
        <ele>1690</ele>
        <time>2017-12-01T16:07:51Z</time>
      </trkpt>
      <trkpt lat="45.89024" lon="6.44617">
        <ele>1690</ele>
        <time>2017-12-01T16:07:52Z</time>
      </trkpt>
      <trkpt lat="45.89028" lon="6.44616">
        <ele>1690</ele>
        <time>2017-12-01T16:07:53Z</time>
      </trkpt>
      <trkpt lat="45.89032" lon="6.44616">
        <ele>1690</ele>
        <time>2017-12-01T16:07:54Z</time>
      </trkpt>
      <trkpt lat="45.89037" lon="6.44616">
        <ele>1689</ele>
        <time>2017-12-01T16:07:55Z</time>
      </trkpt>
      <trkpt lat="45.89042" lon="6.44616">
        <ele>1689</ele>
        <time>2017-12-01T16:07:56Z</time>
      </trkpt>
      <trkpt lat="45.89048" lon="6.44618">
        <ele>1689</ele>
        <time>2017-12-01T16:07:57Z</time>
      </trkpt>
      <trkpt lat="45.89053" lon="6.4462">
        <ele>1688</ele>
        <time>2017-12-01T16:07:58Z</time>
      </trkpt>
      <trkpt lat="45.89059" lon="6.44623">
        <ele>1688</ele>
        <time>2017-12-01T16:07:59Z</time>
      </trkpt>
      <trkpt lat="45.89064" lon="6.44627">
        <ele>1689</ele>
        <time>2017-12-01T16:08:00Z</time>
      </trkpt>
      <trkpt lat="45.8907" lon="6.44631">
        <ele>1689</ele>
        <time>2017-12-01T16:08:01Z</time>
      </trkpt>
      <trkpt lat="45.89075" lon="6.44633">
        <ele>1689</ele>
        <time>2017-12-01T16:08:02Z</time>
      </trkpt>
      <trkpt lat="45.89081" lon="6.44637">
        <ele>1689</ele>
        <time>2017-12-01T16:08:03Z</time>
      </trkpt>
      <trkpt lat="45.89087" lon="6.44642">
        <ele>1677</ele>
        <time>2017-12-01T16:08:04Z</time>
      </trkpt>
      <trkpt lat="45.89094" lon="6.44646">
        <ele>1677</ele>
        <time>2017-12-01T16:08:05Z</time>
      </trkpt>
      <trkpt lat="45.891" lon="6.4465">
        <ele>1677</ele>
        <time>2017-12-01T16:08:06Z</time>
      </trkpt>
      <trkpt lat="45.89106" lon="6.44656">
        <ele>1676</ele>
        <time>2017-12-01T16:08:07Z</time>
      </trkpt>
      <trkpt lat="45.89113" lon="6.4466">
        <ele>1674</ele>
        <time>2017-12-01T16:08:08Z</time>
      </trkpt>
      <trkpt lat="45.89119" lon="6.44665">
        <ele>1673</ele>
        <time>2017-12-01T16:08:09Z</time>
      </trkpt>
      <trkpt lat="45.89125" lon="6.44669">
        <ele>1686</ele>
        <time>2017-12-01T16:08:10Z</time>
      </trkpt>
      <trkpt lat="45.89132" lon="6.44673">
        <ele>1684</ele>
        <time>2017-12-01T16:08:11Z</time>
      </trkpt>
      <trkpt lat="45.8914" lon="6.44678">
        <ele>1682</ele>
        <time>2017-12-01T16:08:12Z</time>
      </trkpt>
      <trkpt lat="45.89147" lon="6.44682">
        <ele>1681</ele>
        <time>2017-12-01T16:08:13Z</time>
      </trkpt>
      <trkpt lat="45.89154" lon="6.44686">
        <ele>1680</ele>
        <time>2017-12-01T16:08:14Z</time>
      </trkpt>
      <trkpt lat="45.8916" lon="6.44691">
        <ele>1680</ele>
        <time>2017-12-01T16:08:15Z</time>
      </trkpt>
      <trkpt lat="45.89167" lon="6.44695">
        <ele>1666</ele>
        <time>2017-12-01T16:08:16Z</time>
      </trkpt>
      <trkpt lat="45.89173" lon="6.44699">
        <ele>1666</ele>
        <time>2017-12-01T16:08:17Z</time>
      </trkpt>
      <trkpt lat="45.8918" lon="6.44704">
        <ele>1667</ele>
        <time>2017-12-01T16:08:18Z</time>
      </trkpt>
      <trkpt lat="45.89186" lon="6.4471">
        <ele>1667</ele>
        <time>2017-12-01T16:08:19Z</time>
      </trkpt>
      <trkpt lat="45.89193" lon="6.44715">
        <ele>1667</ele>
        <time>2017-12-01T16:08:20Z</time>
      </trkpt>
      <trkpt lat="45.892" lon="6.4472">
        <ele>1667</ele>
        <time>2017-12-01T16:08:21Z</time>
      </trkpt>
      <trkpt lat="45.89207" lon="6.44724">
        <ele>1667</ele>
        <time>2017-12-01T16:08:22Z</time>
      </trkpt>
      <trkpt lat="45.89214" lon="6.44727">
        <ele>1666</ele>
        <time>2017-12-01T16:08:23Z</time>
      </trkpt>
      <trkpt lat="45.89222" lon="6.4473">
        <ele>1665</ele>
        <time>2017-12-01T16:08:24Z</time>
      </trkpt>
      <trkpt lat="45.8923" lon="6.44733">
        <ele>1665</ele>
        <time>2017-12-01T16:08:25Z</time>
      </trkpt>
      <trkpt lat="45.89236" lon="6.44737">
        <ele>1665</ele>
        <time>2017-12-01T16:08:26Z</time>
      </trkpt>
      <trkpt lat="45.89242" lon="6.4474">
        <ele>1665</ele>
        <time>2017-12-01T16:08:27Z</time>
      </trkpt>
      <trkpt lat="45.89249" lon="6.44743">
        <ele>1665</ele>
        <time>2017-12-01T16:08:28Z</time>
      </trkpt>
      <trkpt lat="45.89254" lon="6.44744">
        <ele>1660</ele>
        <time>2017-12-01T16:08:29Z</time>
      </trkpt>
      <trkpt lat="45.89257" lon="6.44744">
        <ele>1659</ele>
        <time>2017-12-01T16:08:30Z</time>
      </trkpt>
      <trkpt lat="45.89258" lon="6.4474">
        <ele>1657</ele>
        <time>2017-12-01T16:08:34Z</time>
      </trkpt>
      <trkpt lat="45.8926" lon="6.44737">
        <ele>1655</ele>
        <time>2017-12-01T16:08:35Z</time>
      </trkpt>
      <trkpt lat="45.89263" lon="6.44734">
        <ele>1653</ele>
        <time>2017-12-01T16:08:36Z</time>
      </trkpt>
      <trkpt lat="45.89269" lon="6.44727">
        <ele>1650</ele>
        <time>2017-12-01T16:08:38Z</time>
      </trkpt>
      <trkpt lat="45.89273" lon="6.44722">
        <ele>1648</ele>
        <time>2017-12-01T16:08:39Z</time>
      </trkpt>
      <trkpt lat="45.89276" lon="6.44717">
        <ele>1646</ele>
        <time>2017-12-01T16:08:40Z</time>
      </trkpt>
      <trkpt lat="45.89279" lon="6.44712">
        <ele>1645</ele>
        <time>2017-12-01T16:08:41Z</time>
      </trkpt>
      <trkpt lat="45.89283" lon="6.44708">
        <ele>1644</ele>
        <time>2017-12-01T16:08:42Z</time>
      </trkpt>
      <trkpt lat="45.89287" lon="6.44705">
        <ele>1643</ele>
        <time>2017-12-01T16:08:43Z</time>
      </trkpt>
      <trkpt lat="45.89289" lon="6.447">
        <ele>1642</ele>
        <time>2017-12-01T16:08:44Z</time>
      </trkpt>
      <trkpt lat="45.89291" lon="6.44694">
        <ele>1641</ele>
        <time>2017-12-01T16:08:45Z</time>
      </trkpt>
      <trkpt lat="45.89294" lon="6.44689">
        <ele>1640</ele>
        <time>2017-12-01T16:08:46Z</time>
      </trkpt>
      <trkpt lat="45.89295" lon="6.44684">
        <ele>1639</ele>
        <time>2017-12-01T16:08:47Z</time>
      </trkpt>
      <trkpt lat="45.89295" lon="6.44679">
        <ele>1639</ele>
        <time>2017-12-01T16:08:48Z</time>
      </trkpt>
      <trkpt lat="45.89296" lon="6.44668">
        <ele>1638</ele>
        <time>2017-12-01T16:08:50Z</time>
      </trkpt>
      <trkpt lat="45.89295" lon="6.44652">
        <ele>1623</ele>
        <time>2017-12-01T16:08:53Z</time>
      </trkpt>
      <trkpt lat="45.89295" lon="6.44647">
        <ele>1622</ele>
        <time>2017-12-01T16:08:54Z</time>
      </trkpt>
      <trkpt lat="45.89295" lon="6.44641">
        <ele>1622</ele>
        <time>2017-12-01T16:08:55Z</time>
      </trkpt>
      <trkpt lat="45.89295" lon="6.44635">
        <ele>1621</ele>
        <time>2017-12-01T16:08:56Z</time>
      </trkpt>
      <trkpt lat="45.89296" lon="6.44629">
        <ele>1620</ele>
        <time>2017-12-01T16:08:57Z</time>
      </trkpt>
      <trkpt lat="45.89297" lon="6.44623">
        <ele>1620</ele>
        <time>2017-12-01T16:08:58Z</time>
      </trkpt>
      <trkpt lat="45.89299" lon="6.44617">
        <ele>1619</ele>
        <time>2017-12-01T16:08:59Z</time>
      </trkpt>
      <trkpt lat="45.89301" lon="6.44614">
        <ele>1618</ele>
        <time>2017-12-01T16:09:00Z</time>
      </trkpt>
      <trkpt lat="45.89305" lon="6.44616">
        <ele>1618</ele>
        <time>2017-12-01T16:09:01Z</time>
      </trkpt>
      <trkpt lat="45.89309" lon="6.44618">
        <ele>1618</ele>
        <time>2017-12-01T16:09:02Z</time>
      </trkpt>
      <trkpt lat="45.89314" lon="6.44622">
        <ele>1618</ele>
        <time>2017-12-01T16:09:04Z</time>
      </trkpt>
      <trkpt lat="45.89317" lon="6.44621">
        <ele>1618</ele>
        <time>2017-12-01T16:09:05Z</time>
      </trkpt>
      <trkpt lat="45.8932" lon="6.4462">
        <ele>1618</ele>
        <time>2017-12-01T16:09:06Z</time>
      </trkpt>
      <trkpt lat="45.89324" lon="6.44621">
        <ele>1618</ele>
        <time>2017-12-01T16:09:07Z</time>
      </trkpt>
      <trkpt lat="45.89327" lon="6.44622">
        <ele>1618</ele>
        <time>2017-12-01T16:09:08Z</time>
      </trkpt>
      <trkpt lat="45.89332" lon="6.44623">
        <ele>1618</ele>
        <time>2017-12-01T16:09:09Z</time>
      </trkpt>
      <trkpt lat="45.89336" lon="6.44626">
        <ele>1610</ele>
        <time>2017-12-01T16:09:10Z</time>
      </trkpt>
      <trkpt lat="45.8934" lon="6.44625">
        <ele>1609</ele>
        <time>2017-12-01T16:09:11Z</time>
      </trkpt>
      <trkpt lat="45.89344" lon="6.44623">
        <ele>1609</ele>
        <time>2017-12-01T16:09:12Z</time>
      </trkpt>
      <trkpt lat="45.89349" lon="6.44623">
        <ele>1608</ele>
        <time>2017-12-01T16:09:13Z</time>
      </trkpt>
      <trkpt lat="45.89352" lon="6.4462">
        <ele>1608</ele>
        <time>2017-12-01T16:09:14Z</time>
      </trkpt>
      <trkpt lat="45.89356" lon="6.44619">
        <ele>1608</ele>
        <time>2017-12-01T16:09:15Z</time>
      </trkpt>
      <trkpt lat="45.8936" lon="6.4462">
        <ele>1607</ele>
        <time>2017-12-01T16:09:16Z</time>
      </trkpt>
      <trkpt lat="45.89364" lon="6.44619">
        <ele>1607</ele>
        <time>2017-12-01T16:09:17Z</time>
      </trkpt>
      <trkpt lat="45.89388" lon="6.44612">
        <ele>1604</ele>
        <time>2017-12-01T16:09:34Z</time>
      </trkpt>
      <trkpt lat="45.89396" lon="6.44606">
        <ele>1603</ele>
        <time>2017-12-01T16:09:36Z</time>
      </trkpt>
      <trkpt lat="45.89404" lon="6.44602">
        <ele>1601</ele>
        <time>2017-12-01T16:09:38Z</time>
      </trkpt>
      <trkpt lat="45.89408" lon="6.44601">
        <ele>1600</ele>
        <time>2017-12-01T16:09:39Z</time>
      </trkpt>
      <trkpt lat="45.89411" lon="6.44598">
        <ele>1599</ele>
        <time>2017-12-01T16:09:40Z</time>
      </trkpt>
      <trkpt lat="45.89412" lon="6.44593">
        <ele>1598</ele>
        <time>2017-12-01T16:09:41Z</time>
      </trkpt>
      <trkpt lat="45.89412" lon="6.44589">
        <ele>1596</ele>
        <time>2017-12-01T16:09:42Z</time>
      </trkpt>
      <trkpt lat="45.89413" lon="6.44584">
        <ele>1595</ele>
        <time>2017-12-01T16:09:43Z</time>
      </trkpt>
      <trkpt lat="45.89414" lon="6.4458">
        <ele>1593</ele>
        <time>2017-12-01T16:09:44Z</time>
      </trkpt>
      <trkpt lat="45.89416" lon="6.44575">
        <ele>1593</ele>
        <time>2017-12-01T16:09:45Z</time>
      </trkpt>
      <trkpt lat="45.89419" lon="6.44571">
        <ele>1589</ele>
        <time>2017-12-01T16:09:46Z</time>
      </trkpt>
      <trkpt lat="45.89422" lon="6.44568">
        <ele>1588</ele>
        <time>2017-12-01T16:09:47Z</time>
      </trkpt>
      <trkpt lat="45.89424" lon="6.44565">
        <ele>1588</ele>
        <time>2017-12-01T16:09:48Z</time>
      </trkpt>
      <trkpt lat="45.89431" lon="6.44554">
        <ele>1586</ele>
        <time>2017-12-01T16:09:51Z</time>
      </trkpt>
      <trkpt lat="45.89434" lon="6.44549">
        <ele>1585</ele>
        <time>2017-12-01T16:09:52Z</time>
      </trkpt>
      <trkpt lat="45.89439" lon="6.44544">
        <ele>1584</ele>
        <time>2017-12-01T16:09:53Z</time>
      </trkpt>
      <trkpt lat="45.89449" lon="6.44534">
        <ele>1583</ele>
        <time>2017-12-01T16:09:55Z</time>
      </trkpt>
      <trkpt lat="45.89453" lon="6.44527">
        <ele>1582</ele>
        <time>2017-12-01T16:09:56Z</time>
      </trkpt>
      <trkpt lat="45.89458" lon="6.4452">
        <ele>1582</ele>
        <time>2017-12-01T16:09:57Z</time>
      </trkpt>
      <trkpt lat="45.89467" lon="6.44509">
        <ele>1581</ele>
        <time>2017-12-01T16:09:59Z</time>
      </trkpt>
      <trkpt lat="45.89471" lon="6.44502">
        <ele>1580</ele>
        <time>2017-12-01T16:10:00Z</time>
      </trkpt>
      <trkpt lat="45.89475" lon="6.44497">
        <ele>1572</ele>
        <time>2017-12-01T16:10:01Z</time>
      </trkpt>
      <trkpt lat="45.89479" lon="6.44492">
        <ele>1572</ele>
        <time>2017-12-01T16:10:02Z</time>
      </trkpt>
      <trkpt lat="45.89481" lon="6.44484">
        <ele>1571</ele>
        <time>2017-12-01T16:10:03Z</time>
      </trkpt>
      <trkpt lat="45.89485" lon="6.44478">
        <ele>1571</ele>
        <time>2017-12-01T16:10:04Z</time>
      </trkpt>
      <trkpt lat="45.89489" lon="6.44473">
        <ele>1570</ele>
        <time>2017-12-01T16:10:05Z</time>
      </trkpt>
      <trkpt lat="45.89493" lon="6.44467">
        <ele>1570</ele>
        <time>2017-12-01T16:10:06Z</time>
      </trkpt>
      <trkpt lat="45.89497" lon="6.4446">
        <ele>1569</ele>
        <time>2017-12-01T16:10:07Z</time>
      </trkpt>
      <trkpt lat="45.89502" lon="6.44454">
        <ele>1562</ele>
        <time>2017-12-01T16:10:08Z</time>
      </trkpt>
      <trkpt lat="45.89506" lon="6.44447">
        <ele>1561</ele>
        <time>2017-12-01T16:10:09Z</time>
      </trkpt>
      <trkpt lat="45.89509" lon="6.44439">
        <ele>1561</ele>
        <time>2017-12-01T16:10:10Z</time>
      </trkpt>
      <trkpt lat="45.89513" lon="6.44431">
        <ele>1560</ele>
        <time>2017-12-01T16:10:11Z</time>
      </trkpt>
      <trkpt lat="45.89518" lon="6.44423">
        <ele>1560</ele>
        <time>2017-12-01T16:10:12Z</time>
      </trkpt>
      <trkpt lat="45.89522" lon="6.44415">
        <ele>1553</ele>
        <time>2017-12-01T16:10:13Z</time>
      </trkpt>
      <trkpt lat="45.89527" lon="6.44408">
        <ele>1551</ele>
        <time>2017-12-01T16:10:14Z</time>
      </trkpt>
      <trkpt lat="45.8953" lon="6.444">
        <ele>1550</ele>
        <time>2017-12-01T16:10:15Z</time>
      </trkpt>
      <trkpt lat="45.89533" lon="6.44391">
        <ele>1549</ele>
        <time>2017-12-01T16:10:16Z</time>
      </trkpt>
      <trkpt lat="45.89537" lon="6.44384">
        <ele>1548</ele>
        <time>2017-12-01T16:10:17Z</time>
      </trkpt>
      <trkpt lat="45.8954" lon="6.44376">
        <ele>1547</ele>
        <time>2017-12-01T16:10:18Z</time>
      </trkpt>
      <trkpt lat="45.89543" lon="6.44368">
        <ele>1547</ele>
        <time>2017-12-01T16:10:19Z</time>
      </trkpt>
      <trkpt lat="45.89548" lon="6.44361">
        <ele>1546</ele>
        <time>2017-12-01T16:10:20Z</time>
      </trkpt>
      <trkpt lat="45.89552" lon="6.44353">
        <ele>1545</ele>
        <time>2017-12-01T16:10:21Z</time>
      </trkpt>
      <trkpt lat="45.89557" lon="6.44345">
        <ele>1543</ele>
        <time>2017-12-01T16:10:22Z</time>
      </trkpt>
      <trkpt lat="45.89563" lon="6.44339">
        <ele>1542</ele>
        <time>2017-12-01T16:10:23Z</time>
      </trkpt>
      <trkpt lat="45.89568" lon="6.44332">
        <ele>1536</ele>
        <time>2017-12-01T16:10:24Z</time>
      </trkpt>
      <trkpt lat="45.89572" lon="6.44324">
        <ele>1536</ele>
        <time>2017-12-01T16:10:25Z</time>
      </trkpt>
      <trkpt lat="45.89577" lon="6.44317">
        <ele>1535</ele>
        <time>2017-12-01T16:10:26Z</time>
      </trkpt>
      <trkpt lat="45.89582" lon="6.44311">
        <ele>1535</ele>
        <time>2017-12-01T16:10:27Z</time>
      </trkpt>
      <trkpt lat="45.89587" lon="6.44304">
        <ele>1527</ele>
        <time>2017-12-01T16:10:28Z</time>
      </trkpt>
      <trkpt lat="45.89592" lon="6.44297">
        <ele>1526</ele>
        <time>2017-12-01T16:10:29Z</time>
      </trkpt>
      <trkpt lat="45.89597" lon="6.4429">
        <ele>1525</ele>
        <time>2017-12-01T16:10:30Z</time>
      </trkpt>
      <trkpt lat="45.89601" lon="6.44285">
        <ele>1525</ele>
        <time>2017-12-01T16:10:31Z</time>
      </trkpt>
      <trkpt lat="45.89605" lon="6.44279">
        <ele>1524</ele>
        <time>2017-12-01T16:10:32Z</time>
      </trkpt>
      <trkpt lat="45.89608" lon="6.44274">
        <ele>1524</ele>
        <time>2017-12-01T16:10:33Z</time>
      </trkpt>
      <trkpt lat="45.89611" lon="6.44268">
        <ele>1523</ele>
        <time>2017-12-01T16:10:34Z</time>
      </trkpt>
      <trkpt lat="45.89614" lon="6.44262">
        <ele>1523</ele>
        <time>2017-12-01T16:10:35Z</time>
      </trkpt>
      <trkpt lat="45.89619" lon="6.44249">
        <ele>1518</ele>
        <time>2017-12-01T16:10:37Z</time>
      </trkpt>
      <trkpt lat="45.89621" lon="6.44242">
        <ele>1517</ele>
        <time>2017-12-01T16:10:38Z</time>
      </trkpt>
      <trkpt lat="45.89623" lon="6.44236">
        <ele>1517</ele>
        <time>2017-12-01T16:10:39Z</time>
      </trkpt>
      <trkpt lat="45.89624" lon="6.44228">
        <ele>1517</ele>
        <time>2017-12-01T16:10:40Z</time>
      </trkpt>
      <trkpt lat="45.89625" lon="6.44221">
        <ele>1516</ele>
        <time>2017-12-01T16:10:41Z</time>
      </trkpt>
      <trkpt lat="45.89626" lon="6.44213">
        <ele>1516</ele>
        <time>2017-12-01T16:10:42Z</time>
      </trkpt>
      <trkpt lat="45.89626" lon="6.44205">
        <ele>1516</ele>
        <time>2017-12-01T16:10:43Z</time>
      </trkpt>
      <trkpt lat="45.89627" lon="6.44197">
        <ele>1515</ele>
        <time>2017-12-01T16:10:44Z</time>
      </trkpt>
      <trkpt lat="45.89628" lon="6.44189">
        <ele>1515</ele>
        <time>2017-12-01T16:10:45Z</time>
      </trkpt>
      <trkpt lat="45.8963" lon="6.44177">
        <ele>1514</ele>
        <time>2017-12-01T16:10:47Z</time>
      </trkpt>
      <trkpt lat="45.89631" lon="6.44175">
        <ele>1514</ele>
        <time>2017-12-01T16:10:48Z</time>
      </trkpt>
      <trkpt lat="45.89632" lon="6.44172">
        <ele>1514</ele>
        <time>2017-12-01T16:10:53Z</time>
      </trkpt>
      <trkpt lat="45.89634" lon="6.4417">
        <ele>1514</ele>
        <time>2017-12-01T16:10:54Z</time>
      </trkpt>
      <trkpt lat="45.89637" lon="6.4417">
        <ele>1513</ele>
        <time>2017-12-01T16:10:55Z</time>
      </trkpt>
      <trkpt lat="45.8964" lon="6.44169">
        <ele>1513</ele>
        <time>2017-12-01T16:10:56Z</time>
      </trkpt>
      <trkpt lat="45.89642" lon="6.44166">
        <ele>1507</ele>
        <time>2017-12-01T16:10:57Z</time>
      </trkpt>
      <trkpt lat="45.89645" lon="6.44163">
        <ele>1507</ele>
        <time>2017-12-01T16:10:58Z</time>
      </trkpt>
      <trkpt lat="45.89647" lon="6.44163">
        <ele>1507</ele>
        <time>2017-12-01T16:10:59Z</time>
      </trkpt>
      <trkpt lat="45.89647" lon="6.44163">
        <ele>1507</ele>
        <time>2017-12-01T16:11:02Z</time>
      </trkpt>
      <trkpt lat="45.89649" lon="6.44163">
        <ele>1507</ele>
        <time>2017-12-01T16:11:16Z</time>
      </trkpt>
      <trkpt lat="45.89652" lon="6.44165">
        <ele>1507</ele>
        <time>2017-12-01T16:11:17Z</time>
      </trkpt>
      <trkpt lat="45.8967" lon="6.44168">
        <ele>1506</ele>
        <time>2017-12-01T16:11:23Z</time>
      </trkpt>
      <trkpt lat="45.89677" lon="6.44165">
        <ele>1502</ele>
        <time>2017-12-01T16:11:25Z</time>
      </trkpt>
      <trkpt lat="45.89681" lon="6.44166">
        <ele>1501</ele>
        <time>2017-12-01T16:11:26Z</time>
      </trkpt>
      <trkpt lat="45.89685" lon="6.44169">
        <ele>1501</ele>
        <time>2017-12-01T16:11:27Z</time>
      </trkpt>
      <trkpt lat="45.89689" lon="6.44171">
        <ele>1500</ele>
        <time>2017-12-01T16:11:28Z</time>
      </trkpt>
      <trkpt lat="45.89692" lon="6.44172">
        <ele>1500</ele>
        <time>2017-12-01T16:11:29Z</time>
      </trkpt>
      <trkpt lat="45.89696" lon="6.44172">
        <ele>1499</ele>
        <time>2017-12-01T16:11:30Z</time>
      </trkpt>
      <trkpt lat="45.89699" lon="6.44173">
        <ele>1498</ele>
        <time>2017-12-01T16:11:31Z</time>
      </trkpt>
      <trkpt lat="45.89702" lon="6.44174">
        <ele>1497</ele>
        <time>2017-12-01T16:11:32Z</time>
      </trkpt>
      <trkpt lat="45.89706" lon="6.44173">
        <ele>1497</ele>
        <time>2017-12-01T16:11:33Z</time>
      </trkpt>
      <trkpt lat="45.89709" lon="6.44173">
        <ele>1496</ele>
        <time>2017-12-01T16:11:34Z</time>
      </trkpt>
      <trkpt lat="45.89712" lon="6.44173">
        <ele>1495</ele>
        <time>2017-12-01T16:11:35Z</time>
      </trkpt>
      <trkpt lat="45.89715" lon="6.44172">
        <ele>1495</ele>
        <time>2017-12-01T16:11:36Z</time>
      </trkpt>
      <trkpt lat="45.89719" lon="6.4417">
        <ele>1494</ele>
        <time>2017-12-01T16:11:37Z</time>
      </trkpt>
      <trkpt lat="45.89721" lon="6.44167">
        <ele>1493</ele>
        <time>2017-12-01T16:11:38Z</time>
      </trkpt>
      <trkpt lat="45.89723" lon="6.44165">
        <ele>1491</ele>
        <time>2017-12-01T16:11:39Z</time>
      </trkpt>
      <trkpt lat="45.89725" lon="6.44163">
        <ele>1490</ele>
        <time>2017-12-01T16:11:40Z</time>
      </trkpt>
      <trkpt lat="45.89727" lon="6.44163">
        <ele>1490</ele>
        <time>2017-12-01T16:11:41Z</time>
      </trkpt>
      <trkpt lat="45.89729" lon="6.44163">
        <ele>1489</ele>
        <time>2017-12-01T16:11:42Z</time>
      </trkpt>
      <trkpt lat="45.8973" lon="6.44162">
        <ele>1489</ele>
        <time>2017-12-01T16:11:43Z</time>
      </trkpt>
      <trkpt lat="45.89731" lon="6.44161">
        <ele>1489</ele>
        <time>2017-12-01T16:11:45Z</time>
      </trkpt>
      <trkpt lat="45.89733" lon="6.44158">
        <ele>1489</ele>
        <time>2017-12-01T16:12:01Z</time>
      </trkpt>
      <trkpt lat="45.89736" lon="6.44158">
        <ele>1488</ele>
        <time>2017-12-01T16:12:02Z</time>
      </trkpt>
      <trkpt lat="45.89739" lon="6.44159">
        <ele>1487</ele>
        <time>2017-12-01T16:12:03Z</time>
      </trkpt>
      <trkpt lat="45.89743" lon="6.44158">
        <ele>1487</ele>
        <time>2017-12-01T16:12:04Z</time>
      </trkpt>
      <trkpt lat="45.89746" lon="6.44155">
        <ele>1487</ele>
        <time>2017-12-01T16:12:05Z</time>
      </trkpt>
      <trkpt lat="45.89751" lon="6.44154">
        <ele>1479</ele>
        <time>2017-12-01T16:12:06Z</time>
      </trkpt>
      <trkpt lat="45.89755" lon="6.44151">
        <ele>1478</ele>
        <time>2017-12-01T16:12:07Z</time>
      </trkpt>
      <trkpt lat="45.8976" lon="6.44149">
        <ele>1477</ele>
        <time>2017-12-01T16:12:08Z</time>
      </trkpt>
      <trkpt lat="45.89764" lon="6.44149">
        <ele>1476</ele>
        <time>2017-12-01T16:12:09Z</time>
      </trkpt>
      <trkpt lat="45.89768" lon="6.44147">
        <ele>1475</ele>
        <time>2017-12-01T16:12:10Z</time>
      </trkpt>
      <trkpt lat="45.89772" lon="6.44145">
        <ele>1475</ele>
        <time>2017-12-01T16:12:11Z</time>
      </trkpt>
      <trkpt lat="45.89775" lon="6.44144">
        <ele>1474</ele>
        <time>2017-12-01T16:12:12Z</time>
      </trkpt>
      <trkpt lat="45.89779" lon="6.44142">
        <ele>1473</ele>
        <time>2017-12-01T16:12:13Z</time>
      </trkpt>
      <trkpt lat="45.89783" lon="6.4414">
        <ele>1473</ele>
        <time>2017-12-01T16:12:14Z</time>
      </trkpt>
      <trkpt lat="45.89786" lon="6.44137">
        <ele>1472</ele>
        <time>2017-12-01T16:12:15Z</time>
      </trkpt>
      <trkpt lat="45.8979" lon="6.44133">
        <ele>1471</ele>
        <time>2017-12-01T16:12:16Z</time>
      </trkpt>
      <trkpt lat="45.89794" lon="6.4413">
        <ele>1471</ele>
        <time>2017-12-01T16:12:17Z</time>
      </trkpt>
      <trkpt lat="45.89798" lon="6.44126">
        <ele>1470</ele>
        <time>2017-12-01T16:12:18Z</time>
      </trkpt>
      <trkpt lat="45.89803" lon="6.44122">
        <ele>1469</ele>
        <time>2017-12-01T16:12:19Z</time>
      </trkpt>
      <trkpt lat="45.89807" lon="6.44118">
        <ele>1468</ele>
        <time>2017-12-01T16:12:20Z</time>
      </trkpt>
      <trkpt lat="45.89811" lon="6.44112">
        <ele>1467</ele>
        <time>2017-12-01T16:12:21Z</time>
      </trkpt>
      <trkpt lat="45.8982" lon="6.44103">
        <ele>1464</ele>
        <time>2017-12-01T16:12:24Z</time>
      </trkpt>
      <trkpt lat="45.89827" lon="6.44097">
        <ele>1460</ele>
        <time>2017-12-01T16:12:26Z</time>
      </trkpt>
      <trkpt lat="45.89832" lon="6.44093">
        <ele>1458</ele>
        <time>2017-12-01T16:12:27Z</time>
      </trkpt>
      <trkpt lat="45.89835" lon="6.44089">
        <ele>1450</ele>
        <time>2017-12-01T16:12:28Z</time>
      </trkpt>
      <trkpt lat="45.89837" lon="6.44084">
        <ele>1451</ele>
        <time>2017-12-01T16:12:29Z</time>
      </trkpt>
      <trkpt lat="45.8984" lon="6.44079">
        <ele>1448</ele>
        <time>2017-12-01T16:12:30Z</time>
      </trkpt>
      <trkpt lat="45.89843" lon="6.44075">
        <ele>1445</ele>
        <time>2017-12-01T16:12:31Z</time>
      </trkpt>
      <trkpt lat="45.89844" lon="6.44069">
        <ele>1443</ele>
        <time>2017-12-01T16:12:32Z</time>
      </trkpt>
      <trkpt lat="45.89847" lon="6.44059">
        <ele>1441</ele>
        <time>2017-12-01T16:12:34Z</time>
      </trkpt>
      <trkpt lat="45.89848" lon="6.44053">
        <ele>1440</ele>
        <time>2017-12-01T16:12:35Z</time>
      </trkpt>
      <trkpt lat="45.89848" lon="6.44047">
        <ele>1439</ele>
        <time>2017-12-01T16:12:36Z</time>
      </trkpt>
      <trkpt lat="45.8985" lon="6.44041">
        <ele>1439</ele>
        <time>2017-12-01T16:12:37Z</time>
      </trkpt>
      <trkpt lat="45.89851" lon="6.44034">
        <ele>1438</ele>
        <time>2017-12-01T16:12:38Z</time>
      </trkpt>
      <trkpt lat="45.89852" lon="6.44028">
        <ele>1438</ele>
        <time>2017-12-01T16:12:39Z</time>
      </trkpt>
      <trkpt lat="45.89853" lon="6.44022">
        <ele>1438</ele>
        <time>2017-12-01T16:12:40Z</time>
      </trkpt>
      <trkpt lat="45.89854" lon="6.44015">
        <ele>1438</ele>
        <time>2017-12-01T16:12:41Z</time>
      </trkpt>
      <trkpt lat="45.89855" lon="6.44009">
        <ele>1439</ele>
        <time>2017-12-01T16:12:42Z</time>
      </trkpt>
      <trkpt lat="45.89855" lon="6.44002">
        <ele>1439</ele>
        <time>2017-12-01T16:12:43Z</time>
      </trkpt>
      <trkpt lat="45.89856" lon="6.43995">
        <ele>1433</ele>
        <time>2017-12-01T16:12:44Z</time>
      </trkpt>
      <trkpt lat="45.89857" lon="6.43989">
        <ele>1432</ele>
        <time>2017-12-01T16:12:45Z</time>
      </trkpt>
      <trkpt lat="45.89857" lon="6.43981">
        <ele>1430</ele>
        <time>2017-12-01T16:12:46Z</time>
      </trkpt>
      <trkpt lat="45.89859" lon="6.43974">
        <ele>1429</ele>
        <time>2017-12-01T16:12:47Z</time>
      </trkpt>
      <trkpt lat="45.8986" lon="6.43968">
        <ele>1428</ele>
        <time>2017-12-01T16:12:48Z</time>
      </trkpt>
      <trkpt lat="45.8986" lon="6.43963">
        <ele>1427</ele>
        <time>2017-12-01T16:12:49Z</time>
      </trkpt>
      <trkpt lat="45.89862" lon="6.43958">
        <ele>1427</ele>
        <time>2017-12-01T16:12:50Z</time>
      </trkpt>
      <trkpt lat="45.89863" lon="6.43952">
        <ele>1426</ele>
        <time>2017-12-01T16:12:51Z</time>
      </trkpt>
      <trkpt lat="45.89863" lon="6.43946">
        <ele>1426</ele>
        <time>2017-12-01T16:12:52Z</time>
      </trkpt>
      <trkpt lat="45.89865" lon="6.43939">
        <ele>1425</ele>
        <time>2017-12-01T16:12:53Z</time>
      </trkpt>
      <trkpt lat="45.89866" lon="6.43932">
        <ele>1424</ele>
        <time>2017-12-01T16:12:54Z</time>
      </trkpt>
      <trkpt lat="45.89867" lon="6.43924">
        <ele>1424</ele>
        <time>2017-12-01T16:12:55Z</time>
      </trkpt>
      <trkpt lat="45.89868" lon="6.43919">
        <ele>1424</ele>
        <time>2017-12-01T16:12:56Z</time>
      </trkpt>
      <trkpt lat="45.89869" lon="6.43914">
        <ele>1415</ele>
        <time>2017-12-01T16:12:57Z</time>
      </trkpt>
      <trkpt lat="45.89869" lon="6.43909">
        <ele>1415</ele>
        <time>2017-12-01T16:12:58Z</time>
      </trkpt>
      <trkpt lat="45.89869" lon="6.43902">
        <ele>1415</ele>
        <time>2017-12-01T16:13:00Z</time>
      </trkpt>
      <trkpt lat="45.89868" lon="6.439">
        <ele>1415</ele>
        <time>2017-12-01T16:13:01Z</time>
      </trkpt>
      <trkpt lat="45.89868" lon="6.43898">
        <ele>1414</ele>
        <time>2017-12-01T16:13:02Z</time>
      </trkpt>
      <trkpt lat="45.89865" lon="6.43889">
        <ele>1414</ele>
        <time>2017-12-01T16:13:05Z</time>
      </trkpt>
      <trkpt lat="45.89864" lon="6.43887">
        <ele>1414</ele>
        <time>2017-12-01T16:13:06Z</time>
      </trkpt>
      <trkpt lat="45.89861" lon="6.4388">
        <ele>1414</ele>
        <time>2017-12-01T16:13:11Z</time>
      </trkpt>
      <trkpt lat="45.89865" lon="6.43867">
        <ele>1412</ele>
        <time>2017-12-01T16:13:15Z</time>
      </trkpt>
      <trkpt lat="45.89868" lon="6.43862">
        <ele>1411</ele>
        <time>2017-12-01T16:13:16Z</time>
      </trkpt>
      <trkpt lat="45.89871" lon="6.43858">
        <ele>1410</ele>
        <time>2017-12-01T16:13:17Z</time>
      </trkpt>
      <trkpt lat="45.89873" lon="6.43852">
        <ele>1409</ele>
        <time>2017-12-01T16:13:18Z</time>
      </trkpt>
      <trkpt lat="45.89876" lon="6.43847">
        <ele>1408</ele>
        <time>2017-12-01T16:13:19Z</time>
      </trkpt>
      <trkpt lat="45.89877" lon="6.43841">
        <ele>1408</ele>
        <time>2017-12-01T16:13:20Z</time>
      </trkpt>
      <trkpt lat="45.89877" lon="6.43835">
        <ele>1407</ele>
        <time>2017-12-01T16:13:21Z</time>
      </trkpt>
      <trkpt lat="45.89877" lon="6.4383">
        <ele>1398</ele>
        <time>2017-12-01T16:13:22Z</time>
      </trkpt>
      <trkpt lat="45.89877" lon="6.43825">
        <ele>1398</ele>
        <time>2017-12-01T16:13:23Z</time>
      </trkpt>
      <trkpt lat="45.89877" lon="6.43818">
        <ele>1398</ele>
        <time>2017-12-01T16:13:24Z</time>
      </trkpt>
      <trkpt lat="45.89878" lon="6.43789">
        <ele>1395</ele>
        <time>2017-12-01T16:13:29Z</time>
      </trkpt>
      <trkpt lat="45.89879" lon="6.43761">
        <ele>1392</ele>
        <time>2017-12-01T16:13:35Z</time>
      </trkpt>
      <trkpt lat="45.89875" lon="6.43733">
        <ele>1381</ele>
        <time>2017-12-01T16:13:43Z</time>
      </trkpt>
      <trkpt lat="45.89868" lon="6.43715">
        <ele>1381</ele>
        <time>2017-12-01T16:13:49Z</time>
      </trkpt>
      <trkpt lat="45.89867" lon="6.43711">
        <ele>1381</ele>
        <time>2017-12-01T16:13:55Z</time>
      </trkpt>
      <trkpt lat="45.89866" lon="6.43709">
        <ele>1380</ele>
        <time>2017-12-01T16:13:56Z</time>
      </trkpt>
      <trkpt lat="45.89865" lon="6.43693">
        <ele>1379</ele>
        <time>2017-12-01T16:14:00Z</time>
      </trkpt>
      <trkpt lat="45.89868" lon="6.43689">
        <ele>1378</ele>
        <time>2017-12-01T16:14:01Z</time>
      </trkpt>
      <trkpt lat="45.89871" lon="6.43686">
        <ele>1377</ele>
        <time>2017-12-01T16:14:02Z</time>
      </trkpt>
      <trkpt lat="45.89872" lon="6.43681">
        <ele>1377</ele>
        <time>2017-12-01T16:14:03Z</time>
      </trkpt>
      <trkpt lat="45.89874" lon="6.43676">
        <ele>1376</ele>
        <time>2017-12-01T16:14:04Z</time>
      </trkpt>
      <trkpt lat="45.89876" lon="6.43671">
        <ele>1376</ele>
        <time>2017-12-01T16:14:05Z</time>
      </trkpt>
      <trkpt lat="45.89878" lon="6.43665">
        <ele>1361</ele>
        <time>2017-12-01T16:14:06Z</time>
      </trkpt>
      <trkpt lat="45.8988" lon="6.43661">
        <ele>1361</ele>
        <time>2017-12-01T16:14:07Z</time>
      </trkpt>
      <trkpt lat="45.89882" lon="6.43658">
        <ele>1360</ele>
        <time>2017-12-01T16:14:08Z</time>
      </trkpt>
      <trkpt lat="45.89884" lon="6.43653">
        <ele>1360</ele>
        <time>2017-12-01T16:14:09Z</time>
      </trkpt>
      <trkpt lat="45.89887" lon="6.4365">
        <ele>1359</ele>
        <time>2017-12-01T16:14:10Z</time>
      </trkpt>
      <trkpt lat="45.8989" lon="6.43646">
        <ele>1358</ele>
        <time>2017-12-01T16:14:11Z</time>
      </trkpt>
      <trkpt lat="45.89892" lon="6.43642">
        <ele>1358</ele>
        <time>2017-12-01T16:14:12Z</time>
      </trkpt>
      <trkpt lat="45.89895" lon="6.43638">
        <ele>1357</ele>
        <time>2017-12-01T16:14:13Z</time>
      </trkpt>
      <trkpt lat="45.89897" lon="6.43635">
        <ele>1357</ele>
        <time>2017-12-01T16:14:14Z</time>
      </trkpt>
      <trkpt lat="45.89899" lon="6.43631">
        <ele>1356</ele>
        <time>2017-12-01T16:14:15Z</time>
      </trkpt>
      <trkpt lat="45.89902" lon="6.43626">
        <ele>1355</ele>
        <time>2017-12-01T16:14:16Z</time>
      </trkpt>
      <trkpt lat="45.89904" lon="6.43623">
        <ele>1354</ele>
        <time>2017-12-01T16:14:17Z</time>
      </trkpt>
      <trkpt lat="45.89905" lon="6.43619">
        <ele>1353</ele>
        <time>2017-12-01T16:14:18Z</time>
      </trkpt>
      <trkpt lat="45.89907" lon="6.43615">
        <ele>1353</ele>
        <time>2017-12-01T16:14:19Z</time>
      </trkpt>
      <trkpt lat="45.89909" lon="6.43613">
        <ele>1352</ele>
        <time>2017-12-01T16:14:20Z</time>
      </trkpt>
      <trkpt lat="45.8991" lon="6.43611">
        <ele>1351</ele>
        <time>2017-12-01T16:14:21Z</time>
      </trkpt>
      <trkpt lat="45.89913" lon="6.43605">
        <ele>1349</ele>
        <time>2017-12-01T16:14:25Z</time>
      </trkpt>
      <trkpt lat="45.89914" lon="6.43604">
        <ele>1349</ele>
        <time>2017-12-01T16:14:26Z</time>
      </trkpt>
      <trkpt lat="45.89919" lon="6.43602">
        <ele>1339</ele>
        <time>2017-12-01T16:14:41Z</time>
      </trkpt>
      <trkpt lat="45.8992" lon="6.43599">
        <ele>1339</ele>
        <time>2017-12-01T16:14:42Z</time>
      </trkpt>
      <trkpt lat="45.89921" lon="6.43595">
        <ele>1339</ele>
        <time>2017-12-01T16:14:43Z</time>
      </trkpt>
      <trkpt lat="45.89923" lon="6.43593">
        <ele>1339</ele>
        <time>2017-12-01T16:14:44Z</time>
      </trkpt>
      <trkpt lat="45.89924" lon="6.43589">
        <ele>1339</ele>
        <time>2017-12-01T16:14:45Z</time>
      </trkpt>
      <trkpt lat="45.89927" lon="6.43586">
        <ele>1339</ele>
        <time>2017-12-01T16:14:46Z</time>
      </trkpt>
      <trkpt lat="45.8993" lon="6.43584">
        <ele>1338</ele>
        <time>2017-12-01T16:14:47Z</time>
      </trkpt>
      <trkpt lat="45.89932" lon="6.43581">
        <ele>1331</ele>
        <time>2017-12-01T16:14:48Z</time>
      </trkpt>
      <trkpt lat="45.89935" lon="6.43578">
        <ele>1329</ele>
        <time>2017-12-01T16:14:49Z</time>
      </trkpt>
      <trkpt lat="45.89937" lon="6.43575">
        <ele>1328</ele>
        <time>2017-12-01T16:14:50Z</time>
      </trkpt>
      <trkpt lat="45.89939" lon="6.43572">
        <ele>1327</ele>
        <time>2017-12-01T16:14:51Z</time>
      </trkpt>
      <trkpt lat="45.89941" lon="6.43568">
        <ele>1326</ele>
        <time>2017-12-01T16:14:52Z</time>
      </trkpt>
      <trkpt lat="45.89947" lon="6.43558">
        <ele>1323</ele>
        <time>2017-12-01T16:14:55Z</time>
      </trkpt>
      <trkpt lat="45.89949" lon="6.43554">
        <ele>1322</ele>
        <time>2017-12-01T16:14:56Z</time>
      </trkpt>
      <trkpt lat="45.89951" lon="6.4355">
        <ele>1322</ele>
        <time>2017-12-01T16:14:57Z</time>
      </trkpt>
      <trkpt lat="45.89952" lon="6.43546">
        <ele>1321</ele>
        <time>2017-12-01T16:14:58Z</time>
      </trkpt>
      <trkpt lat="45.89954" lon="6.43542">
        <ele>1320</ele>
        <time>2017-12-01T16:14:59Z</time>
      </trkpt>
      <trkpt lat="45.89956" lon="6.43538">
        <ele>1320</ele>
        <time>2017-12-01T16:15:00Z</time>
      </trkpt>
      <trkpt lat="45.89958" lon="6.43534">
        <ele>1319</ele>
        <time>2017-12-01T16:15:01Z</time>
      </trkpt>
      <trkpt lat="45.89961" lon="6.43531">
        <ele>1318</ele>
        <time>2017-12-01T16:15:02Z</time>
      </trkpt>
      <trkpt lat="45.89967" lon="6.43526">
        <ele>1317</ele>
        <time>2017-12-01T16:15:04Z</time>
      </trkpt>
      <trkpt lat="45.89971" lon="6.43522">
        <ele>1316</ele>
        <time>2017-12-01T16:15:05Z</time>
      </trkpt>
      <trkpt lat="45.89974" lon="6.43519">
        <ele>1315</ele>
        <time>2017-12-01T16:15:06Z</time>
      </trkpt>
      <trkpt lat="45.89976" lon="6.43515">
        <ele>1315</ele>
        <time>2017-12-01T16:15:07Z</time>
      </trkpt>
      <trkpt lat="45.89977" lon="6.4351">
        <ele>1314</ele>
        <time>2017-12-01T16:15:08Z</time>
      </trkpt>
      <trkpt lat="45.89979" lon="6.43505">
        <ele>1313</ele>
        <time>2017-12-01T16:15:09Z</time>
      </trkpt>
      <trkpt lat="45.89982" lon="6.43502">
        <ele>1312</ele>
        <time>2017-12-01T16:15:10Z</time>
      </trkpt>
      <trkpt lat="45.89984" lon="6.43498">
        <ele>1303</ele>
        <time>2017-12-01T16:15:11Z</time>
      </trkpt>
      <trkpt lat="45.89986" lon="6.43494">
        <ele>1303</ele>
        <time>2017-12-01T16:15:12Z</time>
      </trkpt>
      <trkpt lat="45.89987" lon="6.43491">
        <ele>1303</ele>
        <time>2017-12-01T16:15:13Z</time>
      </trkpt>
      <trkpt lat="45.89989" lon="6.43487">
        <ele>1302</ele>
        <time>2017-12-01T16:15:14Z</time>
      </trkpt>
      <trkpt lat="45.89991" lon="6.43481">
        <ele>1302</ele>
        <time>2017-12-01T16:15:15Z</time>
      </trkpt>
      <trkpt lat="45.89993" lon="6.43475">
        <ele>1301</ele>
        <time>2017-12-01T16:15:16Z</time>
      </trkpt>
      <trkpt lat="45.89996" lon="6.43472">
        <ele>1301</ele>
        <time>2017-12-01T16:15:17Z</time>
      </trkpt>
      <trkpt lat="45.89997" lon="6.43466">
        <ele>1300</ele>
        <time>2017-12-01T16:15:18Z</time>
      </trkpt>
      <trkpt lat="45.89999" lon="6.43461">
        <ele>1299</ele>
        <time>2017-12-01T16:15:19Z</time>
      </trkpt>
      <trkpt lat="45.90001" lon="6.43456">
        <ele>1289</ele>
        <time>2017-12-01T16:15:20Z</time>
      </trkpt>
      <trkpt lat="45.90008" lon="6.43441">
        <ele>1287</ele>
        <time>2017-12-01T16:15:24Z</time>
      </trkpt>
      <trkpt lat="45.90011" lon="6.43437">
        <ele>1287</ele>
        <time>2017-12-01T16:15:25Z</time>
      </trkpt>
      <trkpt lat="45.90014" lon="6.43433">
        <ele>1287</ele>
        <time>2017-12-01T16:15:26Z</time>
      </trkpt>
      <trkpt lat="45.90015" lon="6.43429">
        <ele>1287</ele>
        <time>2017-12-01T16:15:27Z</time>
      </trkpt>
      <trkpt lat="45.90016" lon="6.43424">
        <ele>1286</ele>
        <time>2017-12-01T16:15:28Z</time>
      </trkpt>
      <trkpt lat="45.90019" lon="6.43421">
        <ele>1286</ele>
        <time>2017-12-01T16:15:29Z</time>
      </trkpt>
      <trkpt lat="45.90023" lon="6.43418">
        <ele>1285</ele>
        <time>2017-12-01T16:15:30Z</time>
      </trkpt>
      <trkpt lat="45.90025" lon="6.43413">
        <ele>1276</ele>
        <time>2017-12-01T16:15:31Z</time>
      </trkpt>
      <trkpt lat="45.90026" lon="6.43408">
        <ele>1275</ele>
        <time>2017-12-01T16:15:32Z</time>
      </trkpt>
      <trkpt lat="45.90028" lon="6.43403">
        <ele>1275</ele>
        <time>2017-12-01T16:15:33Z</time>
      </trkpt>
      <trkpt lat="45.9003" lon="6.43399">
        <ele>1274</ele>
        <time>2017-12-01T16:15:34Z</time>
      </trkpt>
      <trkpt lat="45.90031" lon="6.43393">
        <ele>1273</ele>
        <time>2017-12-01T16:15:35Z</time>
      </trkpt>
      <trkpt lat="45.90034" lon="6.43388">
        <ele>1272</ele>
        <time>2017-12-01T16:15:36Z</time>
      </trkpt>
      <trkpt lat="45.90037" lon="6.43385">
        <ele>1271</ele>
        <time>2017-12-01T16:15:37Z</time>
      </trkpt>
      <trkpt lat="45.90039" lon="6.4338">
        <ele>1270</ele>
        <time>2017-12-01T16:15:38Z</time>
      </trkpt>
      <trkpt lat="45.90041" lon="6.43373">
        <ele>1269</ele>
        <time>2017-12-01T16:15:39Z</time>
      </trkpt>
      <trkpt lat="45.90043" lon="6.43367">
        <ele>1269</ele>
        <time>2017-12-01T16:15:40Z</time>
      </trkpt>
      <trkpt lat="45.90045" lon="6.43361">
        <ele>1268</ele>
        <time>2017-12-01T16:15:41Z</time>
      </trkpt>
      <trkpt lat="45.90047" lon="6.43354">
        <ele>1267</ele>
        <time>2017-12-01T16:15:42Z</time>
      </trkpt>
      <trkpt lat="45.9005" lon="6.43348">
        <ele>1266</ele>
        <time>2017-12-01T16:15:43Z</time>
      </trkpt>
      <trkpt lat="45.90052" lon="6.43342">
        <ele>1265</ele>
        <time>2017-12-01T16:15:44Z</time>
      </trkpt>
      <trkpt lat="45.90054" lon="6.43335">
        <ele>1265</ele>
        <time>2017-12-01T16:15:45Z</time>
      </trkpt>
      <trkpt lat="45.90057" lon="6.43329">
        <ele>1255</ele>
        <time>2017-12-01T16:15:46Z</time>
      </trkpt>
      <trkpt lat="45.90058" lon="6.43322">
        <ele>1255</ele>
        <time>2017-12-01T16:15:47Z</time>
      </trkpt>
      <trkpt lat="45.9006" lon="6.43316">
        <ele>1254</ele>
        <time>2017-12-01T16:15:48Z</time>
      </trkpt>
      <trkpt lat="45.90063" lon="6.43311">
        <ele>1254</ele>
        <time>2017-12-01T16:15:49Z</time>
      </trkpt>
      <trkpt lat="45.90064" lon="6.43306">
        <ele>1254</ele>
        <time>2017-12-01T16:15:50Z</time>
      </trkpt>
      <trkpt lat="45.90063" lon="6.43301">
        <ele>1253</ele>
        <time>2017-12-01T16:15:51Z</time>
      </trkpt>
      <trkpt lat="45.90064" lon="6.43295">
        <ele>1253</ele>
        <time>2017-12-01T16:15:52Z</time>
      </trkpt>
      <trkpt lat="45.90067" lon="6.4329">
        <ele>1252</ele>
        <time>2017-12-01T16:15:53Z</time>
      </trkpt>
      <trkpt lat="45.90069" lon="6.43284">
        <ele>1251</ele>
        <time>2017-12-01T16:15:54Z</time>
      </trkpt>
      <trkpt lat="45.90072" lon="6.43279">
        <ele>1250</ele>
        <time>2017-12-01T16:15:55Z</time>
      </trkpt>
      <trkpt lat="45.90074" lon="6.43274">
        <ele>1249</ele>
        <time>2017-12-01T16:15:56Z</time>
      </trkpt>
      <trkpt lat="45.90077" lon="6.43268">
        <ele>1248</ele>
        <time>2017-12-01T16:15:57Z</time>
      </trkpt>
      <trkpt lat="45.9008" lon="6.43263">
        <ele>1247</ele>
        <time>2017-12-01T16:15:58Z</time>
      </trkpt>
      <trkpt lat="45.90081" lon="6.43258">
        <ele>1246</ele>
        <time>2017-12-01T16:15:59Z</time>
      </trkpt>
      <trkpt lat="45.90083" lon="6.43252">
        <ele>1244</ele>
        <time>2017-12-01T16:16:00Z</time>
      </trkpt>
      <trkpt lat="45.90086" lon="6.43247">
        <ele>1240</ele>
        <time>2017-12-01T16:16:01Z</time>
      </trkpt>
      <trkpt lat="45.90088" lon="6.43242">
        <ele>1237</ele>
        <time>2017-12-01T16:16:02Z</time>
      </trkpt>
      <trkpt lat="45.90091" lon="6.43236">
        <ele>1234</ele>
        <time>2017-12-01T16:16:03Z</time>
      </trkpt>
      <trkpt lat="45.90094" lon="6.4323">
        <ele>1231</ele>
        <time>2017-12-01T16:16:04Z</time>
      </trkpt>
      <trkpt lat="45.90098" lon="6.43223">
        <ele>1229</ele>
        <time>2017-12-01T16:16:05Z</time>
      </trkpt>
      <trkpt lat="45.90102" lon="6.43217">
        <ele>1227</ele>
        <time>2017-12-01T16:16:06Z</time>
      </trkpt>
      <trkpt lat="45.90106" lon="6.4321">
        <ele>1226</ele>
        <time>2017-12-01T16:16:07Z</time>
      </trkpt>
      <trkpt lat="45.90108" lon="6.43204">
        <ele>1225</ele>
        <time>2017-12-01T16:16:08Z</time>
      </trkpt>
      <trkpt lat="45.90111" lon="6.43198">
        <ele>1224</ele>
        <time>2017-12-01T16:16:09Z</time>
      </trkpt>
      <trkpt lat="45.90115" lon="6.43193">
        <ele>1223</ele>
        <time>2017-12-01T16:16:10Z</time>
      </trkpt>
      <trkpt lat="45.90119" lon="6.43191">
        <ele>1223</ele>
        <time>2017-12-01T16:16:11Z</time>
      </trkpt>
      <trkpt lat="45.90122" lon="6.4319">
        <ele>1222</ele>
        <time>2017-12-01T16:16:12Z</time>
      </trkpt>
      <trkpt lat="45.90124" lon="6.43187">
        <ele>1222</ele>
        <time>2017-12-01T16:16:15Z</time>
      </trkpt>
      <trkpt lat="45.90124" lon="6.43186">
        <ele>1222</ele>
        <time>2017-12-01T16:16:16Z</time>
      </trkpt>
      <trkpt lat="45.90126" lon="6.43185">
        <ele>1221</ele>
        <time>2017-12-01T16:16:17Z</time>
      </trkpt>
      <trkpt lat="45.90128" lon="6.43184">
        <ele>1221</ele>
        <time>2017-12-01T16:16:18Z</time>
      </trkpt>
      <trkpt lat="45.90131" lon="6.43184">
        <ele>1221</ele>
        <time>2017-12-01T16:16:19Z</time>
      </trkpt>
      <trkpt lat="45.90134" lon="6.43185">
        <ele>1221</ele>
        <time>2017-12-01T16:16:20Z</time>
      </trkpt>
      <trkpt lat="45.90138" lon="6.43187">
        <ele>1220</ele>
        <time>2017-12-01T16:16:21Z</time>
      </trkpt>
      <trkpt lat="45.90141" lon="6.43188">
        <ele>1220</ele>
        <time>2017-12-01T16:16:22Z</time>
      </trkpt>
      <trkpt lat="45.90145" lon="6.4319">
        <ele>1220</ele>
        <time>2017-12-01T16:16:23Z</time>
      </trkpt>
      <trkpt lat="45.90161" lon="6.43202">
        <ele>1220</ele>
        <time>2017-12-01T16:16:28Z</time>
      </trkpt>
      <trkpt lat="45.90173" lon="6.43209">
        <ele>1207</ele>
        <time>2017-12-01T16:16:31Z</time>
      </trkpt>
      <trkpt lat="45.90177" lon="6.43206">
        <ele>1207</ele>
        <time>2017-12-01T16:16:32Z</time>
      </trkpt>
      <trkpt lat="45.9018" lon="6.43203">
        <ele>1206</ele>
        <time>2017-12-01T16:16:33Z</time>
      </trkpt>
      <trkpt lat="45.90184" lon="6.43198">
        <ele>1205</ele>
        <time>2017-12-01T16:16:34Z</time>
      </trkpt>
      <trkpt lat="45.90188" lon="6.43192">
        <ele>1205</ele>
        <time>2017-12-01T16:16:35Z</time>
      </trkpt>
      <trkpt lat="45.90191" lon="6.43186">
        <ele>1204</ele>
        <time>2017-12-01T16:16:36Z</time>
      </trkpt>
      <trkpt lat="45.90193" lon="6.4318">
        <ele>1204</ele>
        <time>2017-12-01T16:16:37Z</time>
      </trkpt>
      <trkpt lat="45.90196" lon="6.43176">
        <ele>1203</ele>
        <time>2017-12-01T16:16:38Z</time>
      </trkpt>
      <trkpt lat="45.90199" lon="6.43172">
        <ele>1203</ele>
        <time>2017-12-01T16:16:39Z</time>
      </trkpt>
      <trkpt lat="45.90203" lon="6.43168">
        <ele>1202</ele>
        <time>2017-12-01T16:16:40Z</time>
      </trkpt>
      <trkpt lat="45.90206" lon="6.43165">
        <ele>1194</ele>
        <time>2017-12-01T16:16:41Z</time>
      </trkpt>
      <trkpt lat="45.90209" lon="6.43162">
        <ele>1193</ele>
        <time>2017-12-01T16:16:42Z</time>
      </trkpt>
      <trkpt lat="45.90213" lon="6.43157">
        <ele>1192</ele>
        <time>2017-12-01T16:16:43Z</time>
      </trkpt>
      <trkpt lat="45.90217" lon="6.43152">
        <ele>1192</ele>
        <time>2017-12-01T16:16:44Z</time>
      </trkpt>
      <trkpt lat="45.90221" lon="6.43147">
        <ele>1191</ele>
        <time>2017-12-01T16:16:45Z</time>
      </trkpt>
      <trkpt lat="45.90223" lon="6.43141">
        <ele>1190</ele>
        <time>2017-12-01T16:16:46Z</time>
      </trkpt>
      <trkpt lat="45.90225" lon="6.43134">
        <ele>1190</ele>
        <time>2017-12-01T16:16:47Z</time>
      </trkpt>
      <trkpt lat="45.90227" lon="6.43127">
        <ele>1189</ele>
        <time>2017-12-01T16:16:48Z</time>
      </trkpt>
      <trkpt lat="45.90229" lon="6.43119">
        <ele>1188</ele>
        <time>2017-12-01T16:16:49Z</time>
      </trkpt>
      <trkpt lat="45.90232" lon="6.43111">
        <ele>1187</ele>
        <time>2017-12-01T16:16:50Z</time>
      </trkpt>
      <trkpt lat="45.90234" lon="6.43103">
        <ele>1185</ele>
        <time>2017-12-01T16:16:51Z</time>
      </trkpt>
      <trkpt lat="45.90235" lon="6.43096">
        <ele>1183</ele>
        <time>2017-12-01T16:16:52Z</time>
      </trkpt>
      <trkpt lat="45.90236" lon="6.4309">
        <ele>1182</ele>
        <time>2017-12-01T16:16:53Z</time>
      </trkpt>
      <trkpt lat="45.90238" lon="6.43083">
        <ele>1177</ele>
        <time>2017-12-01T16:16:54Z</time>
      </trkpt>
      <trkpt lat="45.9024" lon="6.43076">
        <ele>1176</ele>
        <time>2017-12-01T16:16:55Z</time>
      </trkpt>
      <trkpt lat="45.90243" lon="6.4306">
        <ele>1177</ele>
        <time>2017-12-01T16:16:57Z</time>
      </trkpt>
      <trkpt lat="45.90244" lon="6.43053">
        <ele>1177</ele>
        <time>2017-12-01T16:16:58Z</time>
      </trkpt>
      <trkpt lat="45.90245" lon="6.43045">
        <ele>1176</ele>
        <time>2017-12-01T16:16:59Z</time>
      </trkpt>
      <trkpt lat="45.90246" lon="6.43037">
        <ele>1176</ele>
        <time>2017-12-01T16:17:00Z</time>
      </trkpt>
      <trkpt lat="45.90247" lon="6.43029">
        <ele>1175</ele>
        <time>2017-12-01T16:17:01Z</time>
      </trkpt>
      <trkpt lat="45.90249" lon="6.43021">
        <ele>1173</ele>
        <time>2017-12-01T16:17:02Z</time>
      </trkpt>
      <trkpt lat="45.90251" lon="6.43013">
        <ele>1163</ele>
        <time>2017-12-01T16:17:03Z</time>
      </trkpt>
      <trkpt lat="45.90251" lon="6.43004">
        <ele>1165</ele>
        <time>2017-12-01T16:17:04Z</time>
      </trkpt>
      <trkpt lat="45.90252" lon="6.42997">
        <ele>1164</ele>
        <time>2017-12-01T16:17:05Z</time>
      </trkpt>
      <trkpt lat="45.90254" lon="6.42989">
        <ele>1160</ele>
        <time>2017-12-01T16:17:06Z</time>
      </trkpt>
      <trkpt lat="45.90256" lon="6.42981">
        <ele>1158</ele>
        <time>2017-12-01T16:17:07Z</time>
      </trkpt>
      <trkpt lat="45.90257" lon="6.42974">
        <ele>1156</ele>
        <time>2017-12-01T16:17:08Z</time>
      </trkpt>
      <trkpt lat="45.90257" lon="6.42966">
        <ele>1155</ele>
        <time>2017-12-01T16:17:09Z</time>
      </trkpt>
      <trkpt lat="45.90257" lon="6.42958">
        <ele>1154</ele>
        <time>2017-12-01T16:17:10Z</time>
      </trkpt>
      <trkpt lat="45.90258" lon="6.4295">
        <ele>1154</ele>
        <time>2017-12-01T16:17:11Z</time>
      </trkpt>
      <trkpt lat="45.90258" lon="6.42943">
        <ele>1154</ele>
        <time>2017-12-01T16:17:12Z</time>
      </trkpt>
      <trkpt lat="45.90258" lon="6.42935">
        <ele>1154</ele>
        <time>2017-12-01T16:17:13Z</time>
      </trkpt>
      <trkpt lat="45.90257" lon="6.42927">
        <ele>1155</ele>
        <time>2017-12-01T16:17:14Z</time>
      </trkpt>
      <trkpt lat="45.90258" lon="6.42913">
        <ele>1152</ele>
        <time>2017-12-01T16:17:16Z</time>
      </trkpt>
      <trkpt lat="45.90259" lon="6.42906">
        <ele>1150</ele>
        <time>2017-12-01T16:17:17Z</time>
      </trkpt>
      <trkpt lat="45.90259" lon="6.42898">
        <ele>1148</ele>
        <time>2017-12-01T16:17:18Z</time>
      </trkpt>
      <trkpt lat="45.9026" lon="6.42891">
        <ele>1147</ele>
        <time>2017-12-01T16:17:19Z</time>
      </trkpt>
      <trkpt lat="45.90261" lon="6.42883">
        <ele>1146</ele>
        <time>2017-12-01T16:17:20Z</time>
      </trkpt>
      <trkpt lat="45.90261" lon="6.42876">
        <ele>1145</ele>
        <time>2017-12-01T16:17:21Z</time>
      </trkpt>
      <trkpt lat="45.90263" lon="6.42869">
        <ele>1144</ele>
        <time>2017-12-01T16:17:22Z</time>
      </trkpt>
      <trkpt lat="45.90265" lon="6.42855">
        <ele>1143</ele>
        <time>2017-12-01T16:17:24Z</time>
      </trkpt>
      <trkpt lat="45.90267" lon="6.42848">
        <ele>1143</ele>
        <time>2017-12-01T16:17:25Z</time>
      </trkpt>
      <trkpt lat="45.90268" lon="6.42842">
        <ele>1143</ele>
        <time>2017-12-01T16:17:26Z</time>
      </trkpt>
      <trkpt lat="45.9027" lon="6.42837">
        <ele>1143</ele>
        <time>2017-12-01T16:17:27Z</time>
      </trkpt>
      <trkpt lat="45.90271" lon="6.42831">
        <ele>1137</ele>
        <time>2017-12-01T16:17:28Z</time>
      </trkpt>
      <trkpt lat="45.90272" lon="6.42825">
        <ele>1136</ele>
        <time>2017-12-01T16:17:29Z</time>
      </trkpt>
      <trkpt lat="45.90272" lon="6.4282">
        <ele>1135</ele>
        <time>2017-12-01T16:17:30Z</time>
      </trkpt>
      <trkpt lat="45.90273" lon="6.42807">
        <ele>1133</ele>
        <time>2017-12-01T16:17:33Z</time>
      </trkpt>
      <trkpt lat="45.90273" lon="6.42806">
        <ele>1133</ele>
        <time>2017-12-01T16:17:35Z</time>
      </trkpt>
      <trkpt lat="45.90273" lon="6.42806">
        <ele>1133</ele>
        <time>2017-12-01T16:17:37Z</time>
      </trkpt>
      <trkpt lat="45.90273" lon="6.42804">
        <ele>1133</ele>
        <time>2017-12-01T16:17:38Z</time>
      </trkpt>
      <trkpt lat="45.90274" lon="6.42801">
        <ele>1132</ele>
        <time>2017-12-01T16:17:39Z</time>
      </trkpt>
      <trkpt lat="45.90274" lon="6.42795">
        <ele>1132</ele>
        <time>2017-12-01T16:17:40Z</time>
      </trkpt>
      <trkpt lat="45.90275" lon="6.42789">
        <ele>1131</ele>
        <time>2017-12-01T16:17:41Z</time>
      </trkpt>
      <trkpt lat="45.90277" lon="6.42782">
        <ele>1130</ele>
        <time>2017-12-01T16:17:42Z</time>
      </trkpt>
      <trkpt lat="45.90278" lon="6.42774">
        <ele>1130</ele>
        <time>2017-12-01T16:17:43Z</time>
      </trkpt>
      <trkpt lat="45.90278" lon="6.42767">
        <ele>1129</ele>
        <time>2017-12-01T16:17:44Z</time>
      </trkpt>
      <trkpt lat="45.9028" lon="6.42759">
        <ele>1129</ele>
        <time>2017-12-01T16:17:45Z</time>
      </trkpt>
      <trkpt lat="45.90281" lon="6.42752">
        <ele>1128</ele>
        <time>2017-12-01T16:17:46Z</time>
      </trkpt>
      <trkpt lat="45.90281" lon="6.42745">
        <ele>1120</ele>
        <time>2017-12-01T16:17:47Z</time>
      </trkpt>
      <trkpt lat="45.90281" lon="6.42739">
        <ele>1119</ele>
        <time>2017-12-01T16:17:48Z</time>
      </trkpt>
      <trkpt lat="45.90279" lon="6.42733">
        <ele>1119</ele>
        <time>2017-12-01T16:17:49Z</time>
      </trkpt>
      <trkpt lat="45.90278" lon="6.42727">
        <ele>1118</ele>
        <time>2017-12-01T16:17:50Z</time>
      </trkpt>
      <trkpt lat="45.90277" lon="6.42721">
        <ele>1118</ele>
        <time>2017-12-01T16:17:51Z</time>
      </trkpt>
      <trkpt lat="45.90275" lon="6.42716">
        <ele>1117</ele>
        <time>2017-12-01T16:17:52Z</time>
      </trkpt>
      <trkpt lat="45.90273" lon="6.42712">
        <ele>1117</ele>
        <time>2017-12-01T16:17:53Z</time>
      </trkpt>
      <trkpt lat="45.90271" lon="6.42708">
        <ele>1117</ele>
        <time>2017-12-01T16:17:54Z</time>
      </trkpt>
      <trkpt lat="45.90267" lon="6.42703">
        <ele>1116</ele>
        <time>2017-12-01T16:17:55Z</time>
      </trkpt>
      <trkpt lat="45.90264" lon="6.42698">
        <ele>1116</ele>
        <time>2017-12-01T16:17:56Z</time>
      </trkpt>
      <trkpt lat="45.90261" lon="6.42694">
        <ele>1116</ele>
        <time>2017-12-01T16:17:57Z</time>
      </trkpt>
      <trkpt lat="45.90258" lon="6.4269">
        <ele>1115</ele>
        <time>2017-12-01T16:17:58Z</time>
      </trkpt>
      <trkpt lat="45.90255" lon="6.42685">
        <ele>1115</ele>
        <time>2017-12-01T16:17:59Z</time>
      </trkpt>
      <trkpt lat="45.90248" lon="6.4267">
        <ele>1116</ele>
        <time>2017-12-01T16:18:03Z</time>
      </trkpt>
      <trkpt lat="45.90248" lon="6.42666">
        <ele>1114</ele>
        <time>2017-12-01T16:18:04Z</time>
      </trkpt>
      <trkpt lat="45.90248" lon="6.42662">
        <ele>1114</ele>
        <time>2017-12-01T16:18:05Z</time>
      </trkpt>
      <trkpt lat="45.90249" lon="6.4266">
        <ele>1114</ele>
        <time>2017-12-01T16:18:06Z</time>
      </trkpt>
      <trkpt lat="45.9025" lon="6.42659">
        <ele>1114</ele>
        <time>2017-12-01T16:18:07Z</time>
      </trkpt>
      <trkpt lat="45.90251" lon="6.42658">
        <ele>1110</ele>
        <time>2017-12-01T16:18:08Z</time>
      </trkpt>
      <trkpt lat="45.90252" lon="6.42658">
        <ele>1110</ele>
        <time>2017-12-01T16:18:09Z</time>
      </trkpt>
      <trkpt lat="45.90253" lon="6.42657">
        <ele>1109</ele>
        <time>2017-12-01T16:18:10Z</time>
      </trkpt>
      <trkpt lat="45.90254" lon="6.42652">
        <ele>1107</ele>
        <time>2017-12-01T16:18:12Z</time>
      </trkpt>
      <trkpt lat="45.90256" lon="6.42648">
        <ele>1106</ele>
        <time>2017-12-01T16:18:13Z</time>
      </trkpt>
      <trkpt lat="45.90258" lon="6.42645">
        <ele>1105</ele>
        <time>2017-12-01T16:18:14Z</time>
      </trkpt>
      <trkpt lat="45.9026" lon="6.42642">
        <ele>1105</ele>
        <time>2017-12-01T16:18:15Z</time>
      </trkpt>
      <trkpt lat="45.90262" lon="6.42639">
        <ele>1104</ele>
        <time>2017-12-01T16:18:16Z</time>
      </trkpt>
      <trkpt lat="45.90266" lon="6.42633">
        <ele>1103</ele>
        <time>2017-12-01T16:18:18Z</time>
      </trkpt>
      <trkpt lat="45.90269" lon="6.4263">
        <ele>1102</ele>
        <time>2017-12-01T16:18:19Z</time>
      </trkpt>
      <trkpt lat="45.90271" lon="6.42629">
        <ele>1102</ele>
        <time>2017-12-01T16:18:20Z</time>
      </trkpt>
      <trkpt lat="45.90274" lon="6.42628">
        <ele>1101</ele>
        <time>2017-12-01T16:18:21Z</time>
      </trkpt>
      <trkpt lat="45.90276" lon="6.42627">
        <ele>1101</ele>
        <time>2017-12-01T16:18:22Z</time>
      </trkpt>
      <trkpt lat="45.90278" lon="6.42627">
        <ele>1101</ele>
        <time>2017-12-01T16:18:23Z</time>
      </trkpt>
      <trkpt lat="45.90279" lon="6.42627">
        <ele>1101</ele>
        <time>2017-12-01T16:18:24Z</time>
      </trkpt>
      <trkpt lat="45.9028" lon="6.42627">
        <ele>1101</ele>
        <time>2017-12-01T16:18:25Z</time>
      </trkpt>
      <trkpt lat="45.903" lon="6.42635">
        <ele>1100</ele>
        <time>2017-12-01T16:18:38Z</time>
      </trkpt>
      <trkpt lat="45.90309" lon="6.42648">
        <ele>1100</ele>
        <time>2017-12-01T16:18:50Z</time>
      </trkpt>
    </trkseg>
  </trk>
</gpx>